GFSSE_850_rhum_000.txt.gz
RH
35 41 88 89 86 88 88 85 76 65 75 61 51 67 74 71 80 88 84 80 78 71 61 58 77 82 89 86 85 82 88 84 81 75 64 46 32 39 49 80 63 49 73
31 42 91 91 90 88 84 80 76 76 84 63 62 97 81 72 87 82 71 67 66 63 62 45 72 75 84 94 94 90 88 86 73 62 60 34 44 44 45 57 100 74 77
23 39 89 98 90 80 71 76 76 81 83 61 55 89 95 89 81 75 73 76 73 69 55 40 44 54 50 65 81 76 67 62 46 48 50 34 41 46 48 64 99 78 83
24 34 62 92 85 78 70 79 80 85 71 58 57 81 93 82 86 88 87 77 78 53 38 36 42 37 27 34 41 37 33 35 26 32 33 42 39 43 48 82 99 92 72
23 28 43 88 79 77 76 79 79 69 61 58 71 94 88 84 83 78 67 82 80 52 40 37 34 35 35 35 37 35 35 31 28 26 23 24 24 36 50 98 97 99 95
24 29 31 43 57 88 86 68 72 64 53 56 50 82 88 84 81 81 80 81 85 49 40 38 38 37 37 41 44 42 40 40 40 42 44 43 40 36 33 49 69 97 99
30 36 32 40 57 86 73 66 66 51 44 46 45 76 89 86 84 84 81 77 87 71 47 46 46 46 44 44 44 46 45 47 45 50 59 63 69 65 56 49 47 88 98
42 41 39 38 52 63 77 72 69 52 46 45 58 66 81 85 86 83 82 82 89 63 49 51 52 54 57 58 66 68 71 75 72 73 73 74 74 74 70 69 68 65 65
52 50 44 40 44 58 78 76 72 56 60 53 53 56 59 70 80 78 75 75 69 48 48 59 69 76 79 82 85 86 86 85 83 82 82 84 91 90 85 87 84 84 88
59 57 54 54 48 41 54 74 73 59 80 65 57 48 39 47 64 68 70 55 44 49 64 73 76 81 82 81 84 85 85 81 76 74 74 84 93 92 88 86 82 83 78
60 63 62 61 58 46 49 62 70 67 81 80 71 45 33 39 51 51 46 43 54 67 73 83 85 87 86 82 81 81 78 73 66 63 72 68 75 84 82 80 80 78 83
47 56 62 63 62 54 55 60 65 69 71 65 64 44 30 35 43 48 50 54 70 80 89 89 85 85 83 81 78 74 70 61 59 56 54 61 65 63 61 61 72 85 92
39 46 53 59 65 63 57 60 62 72 76 74 65 47 45 42 48 62 66 79 88 89 99 91 84 81 81 81 77 73 58 43 38 37 40 42 55 65 67 55 49 64 67
36 42 52 62 67 67 64 65 64 77 90 80 70 66 70 70 74 83 84 95 90 97 91 86 85 84 81 70 47 34 32 34 35 35 33 37 47 56 60 54 76 76 72
33 33 38 52 67 72 71 78 81 92 88 85 88 87 84 84 86 88 99 98 95 90 90 85 80 56 40 35 35 36 34 29 24 22 24 30 38 44 52 70 76 75 74
31 31 31 35 58 75 79 87 90 95 93 94 90 92 97 97 96 100 99 96 88 85 83 59 32 31 32 32 28 23 21 22 23 25 30 40 47 50 49 50 52 54 57
27 30 30 29 44 71 86 96 99 98 99 97 98 96 96 96 97 96 92 89 86 54 29 30 28 25 22 20 18 19 22 24 25 30 38 42 46 49 48 47 44 40 41
31 30 28 28 36 69 92 100 100 96 96 94 91 94 93 97 98 95 92 77 29 30 29 27 24 21 20 20 19 19 19 19 23 31 33 33 35 36 32 29 31 31 27
30 29 28 30 40 72 90 100 99 96 98 94 91 92 92 94 92 86 61 29 32 34 34 28 21 21 22 21 20 18 16 18 22 35 27 17 12 14 8 14 13 8 6
29 29 27 34 52 75 90 98 96 94 98 97 95 100 91 92 75 26 31 35 40 38 30 22 22 24 23 22 21 17 14 14 26 37 22 24 12 13 8 13 11 6 6
31 30 30 36 64 71 83 95 98 92 100 100 100 100 91 74 24 34 40 45 46 41 30 23 23 24 24 24 20 16 12 13 14 11 21 29 11 13 8 7 6 6 5
37 33 35 45 69 67 80 97 96 91 94 92 98 86 61 27 35 42 49 50 49 45 36 28 26 27 26 21 14 14 13 12 13 16 9 10 9 9 9 8 7 6 6
43 35 40 55 82 74 99 99 99 93 91 95 85 68 30 36 41 51 52 52 51 50 44 34 29 28 23 14 11 16 17 19 18 15 11 12 12 11 10 10 9 8 8
36 44 46 56 81 94 86 97 93 84 86 87 68 35 35 39 50 52 52 52 53 53 47 37 30 24 13 10 13 16 18 20 20 23 17 13 14 13 12 11 10 9 8
43 44 49 57 74 88 87 94 95 91 88 82 42 34 38 44 51 52 51 52 53 53 48 37 25 14 9 13 17 18 16 14 16 30 24 17 14 14 14 13 12 12 12
47 50 58 68 90 88 95 98 95 92 87 65 35 37 38 46 51 52 50 52 54 53 45 32 16 9 10 16 19 17 15 18 20 28 37 31 35 25 16 15 15 17 19

GFSSE_850_rhum_003.txt.gz
RH
30 42 93 97 93 87 91 77 66 66 69 53 40 53 66 75 80 82 86 85 81 72 69 61 63 83 94 93 82 84 86 91 85 85 58 36 26 28 32 91 89 76 60
27 44 95 89 90 92 85 72 68 70 75 49 90 90 87 84 84 80 77 74 63 58 54 41 58 75 87 89 92 88 88 91 81 61 47 36 36 38 40 69 94 91 80
24 37 96 95 96 91 78 69 70 72 68 50 89 88 81 75 74 81 70 65 57 56 45 36 40 55 49 72 89 82 74 61 44 28 32 34 35 41 44 58 87 91 65
25 36 80 97 96 92 71 74 75 77 66 52 57 78 77 86 88 87 83 70 62 44 36 38 39 34 25 34 44 41 36 31 21 16 19 27 34 36 41 78 78 96 78
24 45 93 98 98 90 71 78 81 71 61 55 81 93 86 82 80 60 71 78 74 43 42 41 39 42 43 43 43 42 41 35 29 27 25 21 20 22 29 36 84 87 96
20 32 86 100 97 86 98 78 87 67 57 59 63 89 86 83 86 82 86 80 79 52 45 45 45 43 43 45 47 46 60 54 38 43 44 48 48 44 36 31 44 62 87
22 32 79 100 97 91 100 99 95 57 50 52 58 85 85 82 88 86 85 78 79 57 48 47 50 51 50 49 51 50 47 48 43 46 53 56 62 64 60 55 49 49 88
26 31 48 98 84 98 100 99 92 53 47 50 56 80 88 85 88 86 84 77 76 61 49 49 61 71 73 76 80 75 71 71 65 63 62 63 68 64 66 69 79 72 69
37 33 42 78 89 98 100 99 83 54 55 52 58 64 82 86 87 88 79 75 71 54 49 68 76 77 79 81 82 82 79 76 75 69 64 63 68 72 72 79 81 82 79
43 45 50 67 93 92 100 97 94 61 88 63 52 44 49 67 79 76 73 67 55 48 63 77 79 84 86 86 85 81 79 73 67 62 59 64 64 73 75 82 83 82 84
55 56 64 69 92 95 94 98 96 67 84 82 61 42 34 44 60 64 58 46 47 63 79 83 83 83 81 78 75 73 64 56 47 47 53 53 55 60 67 73 75 75 79
48 58 65 70 72 85 91 98 92 67 69 71 66 48 30 36 48 41 40 47 67 76 79 84 88 78 74 75 70 65 63 50 36 34 34 34 36 41 49 57 52 52 70
42 52 61 68 76 74 63 84 84 68 66 67 62 49 37 39 47 48 62 70 83 84 98 88 82 81 76 65 56 41 30 28 29 33 34 34 34 36 48 66 82 71 66
34 41 50 59 69 77 70 61 70 68 76 81 67 43 57 57 64 75 88 91 90 94 96 90 85 80 59 35 32 31 33 34 33 29 26 25 26 33 73 87 86 77 74
34 33 36 43 55 71 75 69 69 69 86 85 68 66 73 79 85 92 98 97 90 89 87 84 72 45 29 29 29 27 24 21 20 19 21 25 33 41 47 62 64 66 88
31 31 32 34 40 60 77 76 76 79 90 80 77 79 86 97 97 98 96 93 92 87 78 44 27 27 26 24 22 20 18 19 21 24 28 34 42 48 49 49 50 50 55
28 29 29 30 33 43 71 84 88 90 91 89 90 95 97 94 94 94 95 92 88 59 28 28 28 26 24 22 21 20 20 20 21 26 31 38 42 45 46 47 48 46 43
29 28 31 30 30 36 70 83 84 96 92 91 92 90 89 90 94 93 89 88 42 30 31 30 26 19 17 16 17 18 17 17 19 27 28 21 19 22 20 17 19 21 19
31 30 31 31 30 31 64 77 86 95 91 89 90 94 89 89 90 90 84 36 32 34 33 25 17 16 18 18 18 17 14 15 18 29 34 27 19 12 13 10 11 13 9
32 31 31 31 32 34 58 87 99 95 92 97 97 98 90 89 85 74 28 33 40 42 36 29 23 22 21 19 16 12 12 11 16 32 38 18 18 22 13 11 9 7 7
34 31 31 30 31 35 56 83 95 87 97 100 100 100 96 88 74 22 35 46 49 48 47 42 34 26 20 16 11 9 9 11 14 16 21 15 8 12 8 9 10 10 9
35 33 34 35 34 40 52 66 81 86 99 100 100 100 96 70 25 35 48 51 51 52 54 51 45 31 20 14 10 11 11 11 14 11 10 10 10 12 12 12 12 11 10
35 34 39 37 43 54 52 71 84 96 100 100 100 94 61 32 34 44 50 51 52 54 56 55 49 33 17 10 10 13 17 22 15 11 14 14 16 15 15 15 14 13 12
34 37 44 47 53 57 62 77 74 83 91 92 86 73 53 35 41 50 50 51 52 55 56 55 46 28 12 10 12 15 16 15 21 31 22 20 19 19 18 17 16 14 14
35 38 45 52 58 68 93 90 80 88 89 79 77 76 33 38 46 51 51 50 52 55 56 52 40 20 10 11 16 17 15 15 18 25 31 24 24 23 21 20 18 15 16
40 46 51 50 59 97 100 85 90 86 88 82 78 41 36 41 49 51 50 50 53 56 56 50 34 17 12 16 19 17 18 21 23 28 48 46 48 40 25 24 18 19 20

GFSSE_850_rhum_006.txt.gz
RH
34 56 92 95 83 76 75 67 52 60 59 46 37 56 66 72 72 80 85 85 84 75 61 53 60 92 77 99 89 84 81 90 85 81 67 36 18 19 17 31 84 94 91
28 61 86 97 93 87 79 66 63 65 55 60 84 77 79 85 84 80 81 71 60 52 49 39 49 79 85 86 87 88 89 92 84 63 38 37 31 30 30 42 75 96 72
40 75 86 97 97 88 77 67 64 64 51 71 90 83 80 82 82 82 66 52 48 46 39 42 49 60 72 88 83 90 87 76 47 26 25 76 46 32 32 49 83 86 57
37 88 99 98 98 96 78 71 71 69 57 47 87 76 73 78 76 80 55 52 42 39 38 41 40 31 31 36 48 47 39 33 25 20 62 68 70 35 36 48 68 84 68
48 56 90 90 97 97 80 74 78 67 54 49 70 82 78 72 64 64 78 68 54 42 43 42 45 48 49 49 46 94 96 64 34 53 71 47 34 56 26 41 72 91 90
59 62 62 81 96 94 97 98 84 66 53 47 81 85 80 85 88 83 80 72 68 47 47 46 48 47 47 46 48 46 40 38 41 91 65 72 53 53 41 31 41 70 84
82 96 74 87 95 93 98 98 97 64 52 48 82 82 79 82 88 88 88 79 75 56 50 50 53 91 61 59 63 56 54 56 53 69 61 62 68 58 54 52 51 45 44
55 96 92 92 96 91 96 98 96 55 43 45 75 84 80 76 90 86 86 83 71 60 56 55 70 77 75 79 78 73 69 69 90 97 91 79 67 66 61 65 80 73 68
58 92 90 86 96 94 98 99 96 53 45 47 63 83 83 82 88 92 90 82 72 52 47 65 78 81 84 85 81 78 73 68 70 87 64 85 73 62 67 85 87 85 85
58 89 92 93 91 95 97 97 88 58 61 47 45 56 76 82 85 82 79 76 72 47 58 72 80 86 86 83 78 73 65 55 58 45 61 64 50 46 51 62 73 79 83
68 90 92 93 95 98 95 97 94 66 90 62 45 35 40 56 68 71 64 59 46 49 66 77 81 84 78 73 69 63 59 58 45 40 36 31 33 36 45 50 51 56 63
80 60 51 94 100 100 93 93 98 84 86 86 60 40 32 36 49 55 45 41 51 69 76 74 81 77 74 72 62 43 36 30 29 30 37 33 33 33 35 43 55 61 59
78 83 56 63 91 96 96 95 99 98 99 96 64 45 26 31 43 42 54 72 84 82 80 91 87 81 75 58 33 30 30 31 33 36 41 29 27 29 59 84 79 73 80
78 77 52 56 60 72 97 98 100 97 96 96 83 48 35 36 42 60 96 81 88 80 85 86 82 74 53 28 28 28 27 25 22 24 35 21 26 31 51 67 61 74 81
64 60 60 46 53 63 87 98 100 97 97 98 86 48 68 73 89 78 85 83 90 86 86 82 64 30 27 26 24 21 19 19 21 22 44 28 34 42 48 54 65 63 64
50 43 54 43 41 51 70 80 95 98 100 99 92 62 85 97 87 93 91 90 89 90 79 38 28 28 25 22 20 17 18 19 20 23 32 32 38 44 47 47 47 46 46
40 49 40 43 41 42 65 82 97 96 91 98 98 95 93 88 92 88 91 90 89 78 31 30 28 24 17 14 16 17 18 18 19 22 30 34 38 39 39 38 37 36 38
36 32 34 33 35 37 57 84 87 97 96 99 98 87 87 88 89 89 87 87 84 30 31 30 25 18 15 15 16 18 17 16 20 24 26 22 18 15 14 12 10 9 11
37 37 32 32 34 43 85 86 87 96 94 90 88 85 85 90 90 89 89 84 31 34 38 34 30 24 18 15 15 14 13 16 26 28 33 33 32 21 21 15 10 8 8
36 33 31 32 34 41 84 96 83 90 94 90 90 87 93 90 88 89 82 30 38 45 45 44 40 34 23 14 10 11 12 14 20 33 42 20 15 10 15 13 10 12 11
37 34 32 32 33 37 57 56 75 87 88 89 96 98 100 93 86 77 28 38 48 48 48 49 46 39 26 13 11 19 21 11 17 34 17 12 13 10 14 14 14 13 12
37 36 34 33 33 39 45 56 57 73 89 94 98 100 100 93 75 33 37 48 49 49 51 53 51 42 27 13 12 23 25 24 26 20 22 14 15 16 15 16 16 15 14
43 35 36 35 35 44 54 76 76 75 88 100 100 100 98 68 46 34 47 49 49 51 54 56 54 44 24 15 13 18 24 23 24 24 22 17 21 19 19 19 18 16 15
40 36 37 36 40 47 61 67 65 58 80 99 100 98 89 55 35 43 49 48 50 52 55 57 55 43 25 15 21 17 16 18 27 28 30 30 31 35 36 32 24 17 17
34 31 38 39 48 47 56 70 85 80 89 90 99 98 74 40 42 48 49 49 50 53 56 57 54 41 25 18 18 19 20 28 37 42 34 34 38 42 42 44 37 38 40
47 35 40 48 55 55 65 88 97 83 77 85 97 86 50 42 44 50 49 49 51 54 56 57 52 41 26 21 21 20 22 31 37 41 41 42 44 43 43 42 42 42 44

GFSSE_850_rhum_009.txt.gz
RH
72 46 84 90 92 77 70 58 54 55 50 40 43 64 63 65 74 80 84 82 81 74 59 43 48 90 96 98 99 93 83 87 81 74 64 40 26 22 19 21 91 90 97
69 68 79 88 86 74 74 66 64 63 44 63 61 67 81 88 88 93 81 71 62 51 41 30 39 81 85 90 84 82 88 90 80 60 30 45 57 34 30 54 76 90 100
79 93 76 89 95 80 74 70 68 59 60 91 84 78 81 84 78 75 67 46 41 34 31 36 51 66 78 84 82 83 88 82 45 26 31 75 76 39 36 50 78 82 73
77 93 95 92 96 86 74 70 69 58 45 85 79 60 76 71 66 59 52 42 37 36 34 36 35 28 33 40 46 50 47 32 24 26 68 64 70 60 30 36 49 76 80
76 87 90 81 92 92 75 68 73 56 43 47 72 77 72 80 76 64 67 63 46 41 40 41 43 45 44 45 45 42 74 56 38 81 86 88 42 79 32 24 33 67 84
73 80 96 95 93 95 95 76 78 56 46 64 78 75 73 66 67 80 74 73 60 45 45 46 56 74 51 50 51 47 48 45 48 87 88 89 87 61 53 49 38 33 45
72 85 89 94 93 95 95 94 92 50 44 66 80 82 82 81 85 86 84 77 75 51 47 51 74 85 72 78 81 69 65 62 64 95 95 97 96 61 54 53 55 59 57
71 85 91 95 91 94 92 96 98 57 41 63 77 79 78 79 82 84 85 82 73 62 49 65 72 79 81 80 77 74 68 65 65 91 95 96 78 63 58 65 83 80 72
72 80 92 91 93 92 90 92 97 61 40 54 73 80 78 78 86 85 88 86 79 61 47 70 77 83 82 82 76 68 59 50 53 75 62 78 57 46 41 47 67 81 87
72 77 84 98 97 89 86 90 96 65 45 43 59 70 77 82 86 87 86 85 81 49 48 68 78 78 76 71 63 60 50 51 63 60 59 51 34 34 38 43 49 52 56
75 77 75 78 86 98 87 90 94 79 68 44 40 46 62 86 85 86 70 65 55 42 60 68 70 79 72 63 58 41 32 52 47 47 48 34 30 32 33 35 37 41 51
72 75 75 77 80 95 95 89 94 84 81 59 46 36 65 78 78 88 54 47 41 56 67 68 76 76 73 70 56 31 33 28 31 38 45 39 32 31 34 73 60 56 66
64 73 82 80 87 92 98 98 95 95 97 98 95 77 67 40 42 50 51 52 80 71 81 80 80 73 71 49 27 27 28 26 30 39 46 34 21 68 89 88 67 82 83
59 69 89 89 93 93 98 98 99 94 94 97 96 92 68 79 62 81 93 98 93 83 75 77 79 70 34 26 26 22 23 23 32 36 42 29 24 36 44 48 68 68 68
51 64 79 91 86 96 93 99 98 96 89 90 95 94 81 86 84 93 90 82 78 79 80 80 61 28 28 23 21 20 21 21 29 35 45 31 31 39 44 47 56 57 58
44 58 70 85 86 80 92 99 97 95 86 91 95 92 85 89 94 80 79 83 83 84 83 52 29 26 23 16 16 22 23 27 23 31 47 34 33 37 41 43 44 45 45
36 47 58 72 89 60 76 95 99 92 88 95 97 91 90 93 94 84 87 86 85 85 56 29 28 25 19 14 19 24 22 21 28 32 40 40 38 31 33 28 24 21 18
31 35 46 61 76 91 51 84 97 94 95 97 97 96 99 93 82 86 85 83 84 72 29 33 34 30 24 16 14 17 24 24 32 33 34 33 29 23 21 15 12 12 9
33 33 36 45 66 83 55 84 97 98 97 97 98 100 88 82 83 86 83 85 83 30 38 40 38 35 27 17 11 13 15 24 36 32 36 35 35 24 11 14 16 15 13
32 35 34 42 50 72 83 94 99 100 96 99 94 87 82 86 92 85 88 84 33 40 43 44 44 39 29 17 9 18 19 24 36 41 46 28 30 17 14 15 14 15 14
32 37 38 38 50 64 84 88 98 98 100 99 93 80 84 90 91 88 84 43 39 46 46 48 47 42 31 18 13 17 30 19 37 50 24 28 29 25 23 21 18 17 15
37 40 41 45 54 70 75 58 96 99 99 99 92 88 90 97 93 84 62 32 47 47 50 51 51 45 34 21 14 26 29 27 30 28 24 28 26 25 26 22 20 19 17
37 38 40 50 64 73 47 57 100 99 99 96 91 95 99 100 90 71 31 43 47 49 52 54 54 50 36 24 17 16 27 27 23 25 28 27 32 29 28 29 26 24 19
36 40 43 56 75 63 46 65 85 56 88 91 87 95 98 97 70 49 39 47 48 50 52 55 56 53 40 26 26 19 18 20 33 31 29 32 32 33 37 33 26 19 18
30 36 46 60 82 95 51 68 99 93 98 94 94 99 97 89 66 43 45 48 49 51 53 56 57 54 44 29 22 20 22 32 38 41 40 37 37 39 41 41 42 39 39
30 35 44 66 79 92 56 93 93 91 85 87 99 99 98 80 50 44 47 48 49 51 53 56 57 56 46 32 25 22 23 29 34 44 44 42 44 42 42 37 37 36 38

GFSSE_850_rhum_012.txt.gz
RH
54 40 50 43 57 68 60 43 42 42 46 52 70 75 70 72 73 74 77 76 74 68 55 35 66 76 87 100 99 96 80 88 76 65 50 32 28 22 16 18 88 94 97
39 53 70 54 56 58 53 51 56 42 39 37 47 65 73 81 83 87 74 71 60 42 30 28 59 80 78 74 80 82 85 77 66 36 24 57 56 35 28 40 62 90 97
49 52 74 73 66 59 54 57 56 50 87 85 65 84 89 84 76 69 55 33 29 26 30 34 46 73 81 75 77 74 73 55 26 30 60 71 74 62 35 39 56 76 69
70 51 55 60 66 71 60 60 56 47 87 73 64 81 83 76 68 37 36 34 33 30 30 31 30 24 28 33 36 32 33 28 42 66 70 60 70 62 50 27 37 50 81
84 65 66 81 84 80 67 62 54 43 57 70 60 70 72 68 57 53 58 47 39 38 36 36 37 36 36 36 38 39 38 39 64 81 88 81 67 63 55 45 29 32 44
84 90 76 86 97 96 81 71 59 40 41 68 70 69 76 60 69 68 69 64 48 44 46 50 70 59 53 56 56 57 57 59 61 90 81 89 68 68 60 55 50 46 41
79 87 90 81 93 90 88 80 55 38 48 67 65 61 60 69 79 78 68 65 57 48 48 66 78 70 76 77 72 68 62 61 72 93 95 94 94 86 68 61 71 87 66
75 85 86 84 93 94 86 77 52 39 37 58 71 73 73 76 83 85 82 69 59 44 48 62 74 83 79 78 72 62 55 49 68 90 89 80 77 59 45 64 84 84 99
77 87 81 84 90 93 86 85 67 48 35 53 67 70 73 76 82 82 86 84 77 50 48 67 73 73 73 68 60 54 47 46 48 48 63 66 58 36 34 38 43 52 68
75 82 87 84 87 92 87 87 62 48 38 53 55 67 75 79 86 86 87 86 83 50 51 64 67 70 70 60 55 42 34 40 39 53 42 42 35 29 31 32 33 37 43
73 79 89 82 87 94 88 88 80 65 44 39 55 54 68 82 84 83 74 72 62 43 54 63 62 68 66 58 56 36 30 28 28 37 30 29 32 34 34 44 48 48 62
73 75 77 82 91 94 99 91 89 73 53 40 44 45 56 85 89 73 70 58 45 48 61 64 67 67 67 64 45 27 28 27 27 34 33 34 34 38 83 75 69 82 82
68 74 74 75 80 85 88 89 92 89 66 55 54 52 76 78 76 82 56 46 57 64 61 64 64 67 61 33 26 24 22 21 22 32 33 31 25 66 98 86 80 68 77
60 69 75 76 80 83 89 95 96 98 84 82 89 81 73 52 51 60 94 92 96 79 70 75 75 67 30 25 22 19 17 18 22 31 29 33 24 29 36 46 44 49 56
50 62 71 75 85 88 86 95 96 91 93 81 94 92 71 69 57 86 96 96 79 72 76 76 68 30 24 22 16 14 14 16 20 32 32 35 28 32 36 40 44 46 48
38 54 66 73 84 95 90 93 96 88 90 86 91 91 79 76 84 95 90 76 75 78 79 73 32 26 26 20 14 14 16 18 21 28 38 32 29 32 35 37 38 37 35
32 42 60 72 79 82 92 93 97 95 90 86 91 91 84 86 89 92 78 85 84 81 78 34 30 31 26 20 14 13 19 18 21 27 36 35 27 26 25 19 14 12 10
31 34 49 65 77 74 60 98 96 96 92 86 86 92 88 88 92 90 85 86 85 82 47 31 35 32 29 21 14 10 13 16 24 30 29 32 30 28 27 19 13 16 16
31 31 39 53 68 73 60 81 95 94 88 90 86 91 91 90 90 77 84 83 82 76 32 38 37 37 31 20 12 9 12 16 31 32 33 33 27 24 16 14 11 12 13
29 31 32 43 58 73 58 70 93 93 91 90 89 91 94 92 81 86 83 83 85 34 42 41 43 40 32 20 11 12 16 16 30 28 41 37 26 23 19 16 16 15 16
27 28 32 35 39 62 73 76 84 91 88 93 94 95 95 84 83 85 83 82 68 38 43 46 45 43 35 21 12 15 26 25 23 43 46 25 24 22 22 19 19 19 19
31 28 33 35 38 44 70 68 69 88 91 94 99 100 90 84 83 86 83 77 32 43 46 49 49 47 41 26 14 16 24 28 31 25 23 27 24 26 27 24 22 21 19
32 35 35 36 39 40 67 77 90 94 97 97 99 99 91 95 91 91 82 53 35 44 47 50 51 51 47 35 20 14 18 27 25 22 27 28 28 31 29 26 25 25 24
30 33 37 40 40 47 59 76 62 65 93 99 99 100 100 100 98 91 74 37 42 45 48 51 53 54 51 41 29 20 19 19 20 21 25 27 26 29 29 28 26 24 22
25 32 33 38 43 52 65 70 71 85 97 98 100 99 99 100 96 83 55 41 44 46 48 51 53 55 55 47 32 24 22 22 26 36 36 30 29 26 28 29 29 31 28
24 23 34 37 44 65 68 77 73 89 99 97 99 98 99 92 88 65 48 45 47 47 49 51 54 57 57 50 37 28 25 25 27 34 38 32 33 28 31 28 26 34 34

GFSSE_850_rhum_015.txt.gz
RH
73 56 52 32 20 36 34 27 31 43 52 74 81 81 80 78 77 72 72 70 68 62 48 30 76 83 85 96 90 72 76 70 69 58 41 28 27 18 15 19 74 90 95
59 50 36 27 26 33 32 32 32 30 32 39 64 70 64 71 76 73 69 62 49 30 25 34 81 83 73 73 75 78 64 55 36 24 40 51 52 45 27 33 63 73 79
46 62 40 38 32 36 37 34 29 57 68 52 77 83 87 85 72 54 34 27 25 29 32 37 76 74 72 73 61 44 40 25 27 53 59 50 52 54 32 30 40 57 60
50 59 48 50 40 41 38 34 34 58 61 65 78 86 85 74 49 31 32 32 30 30 30 27 23 26 30 26 28 34 29 40 59 64 65 51 46 57 47 27 27 30 54
56 58 54 53 44 48 44 39 34 42 51 50 69 79 78 63 43 44 40 38 38 35 35 35 34 34 35 37 40 41 42 50 64 67 70 80 65 63 59 54 46 36 39
64 54 53 52 51 61 49 37 31 30 42 53 58 72 75 60 51 52 48 40 38 40 44 59 51 54 60 58 57 55 56 64 73 89 94 86 73 83 73 60 49 59 60
77 64 67 68 84 61 52 30 23 27 44 58 62 72 64 64 68 59 50 42 38 40 49 62 61 72 69 69 67 61 55 66 86 90 90 92 73 69 48 55 82 89 84
81 86 81 76 89 75 60 28 22 24 45 59 54 58 62 80 84 79 59 44 38 39 48 58 73 74 73 67 58 53 52 69 85 88 89 81 68 53 38 62 85 82 96
81 87 91 82 84 88 78 53 26 24 31 57 63 68 72 76 80 82 80 58 43 37 47 58 64 65 66 60 55 46 45 51 52 46 51 58 56 46 30 31 40 46 46
78 84 86 79 80 88 86 78 42 29 28 38 55 67 70 73 83 84 83 77 69 40 47 57 58 61 61 56 54 35 36 40 31 35 46 43 40 38 34 36 39 42 74
76 78 84 79 80 86 86 90 77 49 30 33 48 67 74 77 82 85 85 80 68 42 50 60 59 64 65 62 55 33 28 30 29 29 33 33 36 40 76 92 84 84 93
71 79 84 88 80 87 92 92 84 64 42 31 40 51 74 81 78 80 74 69 56 48 60 65 64 67 65 55 32 26 24 23 22 25 28 32 41 91 97 94 98 92 92
74 78 82 88 86 82 85 94 88 80 60 40 35 40 61 74 67 71 65 57 48 59 67 63 62 66 58 31 24 22 19 19 18 20 30 30 31 75 98 98 79 74 73
65 72 76 78 78 81 84 88 90 88 82 59 43 41 54 64 75 79 73 73 76 82 69 68 70 68 33 24 23 18 13 14 15 22 28 31 30 32 43 45 48 52 60
63 65 72 75 72 75 81 85 90 91 83 64 55 71 59 70 60 72 89 97 88 83 68 75 75 38 25 25 19 14 11 14 16 23 28 32 32 33 37 40 41 41 42
42 60 67 75 76 78 85 87 85 94 90 87 80 88 82 50 58 78 94 97 86 70 77 78 54 27 29 23 18 13 12 15 19 22 27 32 31 30 32 32 32 26 19
33 44 61 68 72 78 83 86 86 95 91 90 86 91 87 66 65 79 91 91 71 78 79 73 30 32 27 24 18 12 11 14 20 23 28 30 27 24 21 20 20 16 14
33 36 46 58 68 73 74 81 92 96 93 84 89 88 87 78 83 86 88 81 81 84 82 40 34 32 32 25 16 10 9 12 21 28 28 29 26 26 26 20 10 10 10
33 32 37 44 50 61 72 76 80 97 91 86 86 86 84 83 87 89 90 81 85 84 73 33 36 38 32 23 14 9 11 14 22 29 28 32 28 24 19 16 14 14 15
31 30 31 38 49 52 57 66 73 95 87 89 87 86 85 87 90 90 89 83 82 83 49 38 40 38 33 22 11 10 17 17 24 30 32 40 31 21 19 18 18 18 19
27 27 28 37 48 57 59 70 77 85 89 90 88 89 86 88 92 92 81 85 84 81 34 40 42 41 36 25 12 14 21 23 26 32 42 35 24 26 22 24 24 22 22
29 28 26 27 41 56 57 55 61 67 90 89 91 92 90 90 93 93 84 82 78 64 36 42 45 44 42 33 18 14 19 24 27 28 36 30 27 26 28 26 26 23 23
27 29 30 29 34 47 60 60 64 74 77 88 90 91 93 91 96 88 86 84 72 41 41 45 46 47 46 42 31 20 16 20 22 21 24 26 26 26 27 28 25 25 24
25 26 29 32 36 38 44 53 53 59 69 80 86 90 91 98 98 91 92 82 59 37 43 46 46 48 48 48 41 30 20 18 18 19 24 25 28 27 26 24 24 24 22
23 25 29 30 35 42 45 48 50 51 64 64 69 88 91 97 98 98 93 75 43 42 45 47 47 49 51 52 48 37 26 23 22 24 26 23 23 22 20 23 24 22 21
23 23 24 28 33 35 43 46 49 51 54 68 75 92 89 97 97 97 89 70 43 44 48 47 48 50 53 55 53 42 30 26 26 29 32 29 26 20 24 24 22 20 24

GFSSE_850_rhum_018.txt.gz
RH
83 57 56 60 36 32 40 40 40 45 55 81 80 79 84 90 83 75 72 67 58 56 48 71 86 79 95 85 74 76 77 64 65 58 49 38 27 16 14 17 42 76 88
57 58 48 34 26 22 23 22 23 27 38 79 78 82 81 73 68 69 63 52 38 24 23 77 77 82 73 71 73 74 71 45 34 26 26 35 31 24 24 34 53 56 50
57 55 53 29 30 26 27 21 18 23 26 36 65 75 79 77 70 52 28 22 23 27 29 82 81 75 74 74 57 40 34 24 33 38 36 36 36 43 25 28 35 37 48
48 47 49 36 35 30 27 19 19 22 30 87 84 88 84 72 28 22 23 24 25 25 30 55 68 62 44 26 29 26 29 41 51 52 49 50 44 54 49 35 30 32 54
50 44 45 48 39 37 28 19 18 21 31 54 77 84 79 48 26 27 28 28 28 29 30 29 30 32 35 39 42 42 49 60 67 66 58 62 60 62 59 53 50 40 44
56 45 49 54 46 44 31 22 18 21 28 33 60 81 64 33 38 37 36 36 37 39 46 43 46 52 54 55 57 59 64 71 76 78 86 84 81 71 66 58 56 66 64
52 48 53 61 57 49 38 27 19 21 31 40 60 63 72 40 45 43 40 40 44 56 73 58 66 65 68 66 61 57 60 81 80 81 86 87 79 75 48 67 93 88 87
57 56 60 68 67 62 49 31 21 22 28 38 58 60 53 67 66 53 46 41 41 52 59 70 69 66 62 56 54 50 50 62 74 78 87 90 70 66 37 49 81 84 97
75 69 72 68 66 63 53 36 27 27 29 41 50 52 67 77 80 76 60 48 42 49 59 62 58 60 60 52 48 40 42 46 46 46 56 63 58 55 36 35 37 44 53
74 73 78 85 83 68 69 51 35 34 38 45 59 65 73 78 83 86 79 66 52 44 52 56 57 58 58 54 51 38 35 36 34 35 44 48 44 41 40 50 65 80 80
75 62 66 83 78 70 73 70 59 38 39 46 61 69 72 78 89 86 81 80 70 43 53 56 58 63 63 61 55 36 29 28 29 30 32 34 36 65 80 84 88 92 93
72 74 57 70 77 77 82 78 72 49 34 43 52 61 70 72 84 85 84 76 62 45 55 57 62 67 65 57 35 27 25 24 23 25 27 31 51 89 94 92 97 93 97
65 73 70 68 77 82 81 84 78 62 46 35 46 54 62 64 70 78 76 68 55 44 52 60 60 64 64 37 27 24 22 18 18 21 25 27 31 76 98 98 88 90 82
64 66 71 72 75 86 82 82 79 79 63 42 33 42 45 50 55 62 65 58 49 50 56 60 66 69 51 28 24 22 16 13 14 20 25 29 30 53 48 49 53 57 56
64 64 68 70 73 78 84 87 82 88 84 74 46 36 37 43 49 57 68 64 62 67 66 64 71 69 34 26 24 18 14 13 16 21 25 30 32 34 41 40 39 39 37
66 65 63 68 73 76 74 78 85 87 80 80 63 47 41 43 53 63 72 81 72 75 72 73 76 50 28 28 22 18 15 14 18 20 24 30 30 30 32 32 28 18 14
34 43 67 64 64 66 73 76 82 85 89 86 82 70 72 68 62 53 69 77 83 90 74 79 72 33 31 28 24 16 15 15 18 23 28 28 27 26 24 23 24 14 12
34 35 48 66 64 68 72 76 82 84 84 89 85 81 78 86 64 59 70 82 93 82 81 80 54 33 32 30 21 13 11 14 18 25 28 28 26 25 24 17 14 13 14
31 33 34 61 60 62 64 66 70 79 81 90 84 86 90 90 79 67 72 90 92 80 84 78 35 35 35 28 16 11 13 16 22 26 28 29 30 24 20 20 18 17 17
30 31 32 34 53 58 63 58 62 79 82 89 83 86 90 90 87 85 90 89 90 83 83 67 36 39 35 25 13 12 15 22 30 31 30 34 37 24 24 21 20 22 21
30 30 29 30 32 54 62 59 62 74 80 80 85 86 88 89 87 86 91 92 91 83 82 50 39 40 36 26 14 16 21 24 29 32 33 43 28 27 26 23 24 23 21
30 29 28 28 28 34 52 56 58 56 67 70 84 87 88 88 86 88 90 91 88 83 80 40 41 42 40 33 20 17 22 26 27 34 40 37 30 26 25 26 25 26 23
27 28 28 29 32 28 35 53 62 61 66 73 79 84 91 87 86 87 89 93 86 84 70 38 42 43 43 40 33 22 18 18 24 26 29 27 27 28 27 27 28 24 24
22 22 24 27 27 34 35 42 56 61 62 64 71 81 87 86 88 86 87 94 89 82 51 40 43 44 46 46 43 37 28 21 18 20 24 26 27 27 28 25 21 23 22
21 21 21 23 26 30 37 43 49 57 59 57 57 68 68 79 85 87 87 98 92 79 46 44 45 46 47 49 50 47 40 30 24 22 22 24 24 26 23 18 22 23 20
21 22 22 24 24 27 36 42 48 58 58 60 60 65 70 74 84 85 95 98 92 73 44 45 47 48 48 50 53 52 45 36 27 25 25 25 24 18 17 21 24 22 19

GFSSE_850_rhum_021.txt.gz
RH
55 67 74 52 44 42 40 45 47 51 58 70 80 78 77 78 81 81 75 71 64 56 55 84 78 95 92 68 69 70 68 54 49 49 60 53 44 30 17 19 30 56 79
43 65 66 57 46 45 37 40 42 41 55 82 77 82 87 84 74 64 62 54 40 38 94 95 84 85 76 76 77 75 70 40 49 49 37 29 28 21 26 34 44 44 47
52 65 62 41 40 37 28 30 31 32 56 85 81 81 75 65 66 53 30 21 22 32 99 95 82 81 77 76 58 44 35 23 25 32 34 34 38 32 22 27 36 36 46
53 45 54 38 33 29 30 27 27 29 42 62 68 84 75 66 22 20 20 21 25 35 90 78 76 66 56 31 31 26 28 35 40 45 46 46 48 53 52 40 35 37 54
56 43 35 38 36 32 28 26 31 29 60 93 89 86 74 37 21 23 23 24 25 26 32 43 36 29 33 37 37 44 50 52 52 55 57 57 59 66 64 58 53 46 45
57 40 36 36 42 36 28 24 27 29 62 95 88 77 62 24 25 26 27 29 31 35 36 38 43 50 52 54 54 55 59 59 60 60 65 70 68 82 55 55 67 79 69
56 48 43 38 46 44 31 24 27 31 33 50 70 70 36 29 30 31 34 37 44 57 65 62 64 67 69 63 58 56 58 62 68 73 74 76 74 68 47 74 90 86 89
56 54 50 49 53 50 40 26 25 33 33 35 49 48 33 36 34 33 35 38 48 56 68 73 79 70 62 56 51 48 48 56 62 68 76 79 68 55 41 39 54 78 96
63 52 57 51 56 56 43 29 24 35 40 39 45 54 52 67 52 39 37 38 45 57 85 93 66 64 58 52 45 39 40 44 44 42 43 52 54 49 40 34 35 43 58
79 66 51 50 55 54 44 33 25 34 43 46 47 51 67 76 85 72 51 44 41 63 62 60 59 61 59 54 51 42 35 34 34 34 37 43 43 39 45 70 80 80 84
79 77 72 73 74 64 54 39 29 31 43 50 52 56 68 73 84 83 76 64 57 44 55 58 60 61 63 62 57 42 30 30 30 31 33 34 48 78 78 82 87 88 94
73 71 75 81 85 80 68 64 44 33 40 50 57 64 67 70 78 84 85 82 76 50 51 57 57 63 63 61 44 29 25 24 24 25 29 41 67 83 94 93 92 93 91
45 68 62 68 81 83 75 66 64 47 35 41 54 59 67 71 82 85 88 87 78 56 52 58 58 61 62 52 31 25 24 20 18 20 25 28 66 80 98 98 96 96 93
50 50 56 63 68 78 82 78 70 70 50 36 43 56 63 67 74 78 81 79 71 56 52 59 61 65 66 41 26 26 20 16 15 20 25 28 40 78 65 47 48 54 57
57 58 65 65 62 71 79 82 81 78 75 54 37 48 57 61 63 70 75 69 62 52 59 65 65 69 64 33 28 24 18 14 15 20 24 28 33 39 41 39 39 38 35
66 60 60 62 65 69 73 75 81 82 79 80 66 42 43 50 56 69 71 72 62 69 70 65 67 72 52 30 28 23 18 14 16 20 24 29 30 30 32 30 27 20 18
69 67 69 63 64 71 75 76 82 79 84 75 73 76 52 43 49 66 74 74 77 71 75 68 74 73 37 32 30 24 17 14 15 20 25 28 27 26 23 24 24 14 12
35 38 40 58 66 66 68 69 76 82 82 87 84 72 58 59 64 69 73 74 80 80 87 76 79 67 34 34 30 19 13 12 14 22 25 25 24 24 24 18 16 16 15
32 33 34 36 50 66 66 68 69 71 81 84 88 80 77 77 83 88 65 72 84 88 93 81 82 54 36 35 25 14 11 14 18 24 26 26 29 26 21 20 18 18 19
28 32 33 33 33 44 65 67 69 71 80 85 84 78 83 81 87 90 76 75 84 94 90 84 81 41 39 33 20 13 14 17 25 28 29 30 35 29 22 23 21 22 22
31 30 28 32 32 33 54 66 69 69 68 78 83 79 83 86 93 94 86 84 90 92 91 85 78 38 40 32 18 17 20 25 28 30 32 34 40 28 26 24 23 23 21
29 30 30 30 32 32 34 47 60 63 64 66 70 71 79 85 87 89 85 90 89 89 92 83 74 40 41 34 21 19 23 30 29 33 36 40 38 31 27 26 26 25 23
25 27 26 28 29 29 30 34 59 63 66 64 68 80 76 83 88 86 84 86 85 89 90 82 68 40 43 39 32 22 21 21 25 30 35 38 34 30 28 29 28 25 21
20 24 25 24 24 26 28 36 42 51 60 63 60 64 68 74 79 85 83 85 84 88 92 83 58 41 44 43 41 37 33 26 22 22 27 27 28 29 30 29 27 21 21
22 22 22 23 24 24 26 26 38 48 56 58 61 63 66 68 66 75 82 87 89 92 96 86 55 44 45 45 46 46 44 38 30 25 22 25 27 28 28 28 21 20 22
20 20 20 21 22 22 24 27 28 45 52 55 64 62 63 65 64 67 78 84 86 89 94 87 52 47 46 47 49 51 50 47 42 34 28 25 24 24 21 18 20 23 21

GFSSE_850_rhum_024.txt.gz
RH
46 66 98 88 56 58 57 57 64 80 84 87 87 95 87 86 83 82 80 75 70 58 58 73 85 94 70 64 64 60 57 56 60 66 65 70 61 53 32 20 29 54 63
30 55 60 53 54 58 56 54 56 67 89 84 81 82 80 82 83 78 68 57 42 47 98 95 99 99 82 77 77 71 55 34 52 49 44 35 27 20 25 32 39 41 55
36 37 55 36 34 44 50 46 82 97 92 82 88 88 86 74 60 55 36 23 24 96 84 87 87 77 78 76 55 37 32 24 28 30 32 30 30 26 24 27 30 34 45
45 36 49 32 25 28 33 37 54 96 92 88 88 80 64 55 21 18 19 23 42 100 92 80 81 75 57 30 28 22 24 31 37 35 38 40 44 47 47 41 37 37 46
52 40 46 29 27 24 25 26 29 84 75 88 79 77 63 20 18 19 20 21 27 52 71 72 57 32 32 35 32 38 43 46 50 52 56 58 59 61 55 54 52 52 49
57 46 39 30 29 27 24 22 28 34 78 94 92 75 46 20 21 22 23 24 25 27 28 30 36 46 50 51 51 52 56 60 65 66 69 66 60 73 42 48 66 85 78
55 55 45 37 34 32 27 22 29 84 97 93 84 66 27 24 24 25 28 32 36 42 48 52 58 63 62 60 56 55 59 65 68 69 71 69 57 52 39 38 86 83 92
56 52 49 41 38 36 26 22 27 37 83 92 70 52 25 30 29 30 34 42 51 67 68 70 81 67 55 51 48 47 51 62 66 70 68 65 57 52 44 33 35 66 84
65 51 50 41 39 43 36 24 22 30 40 70 79 44 33 35 34 34 36 43 50 73 80 85 76 62 57 50 44 42 43 44 43 43 47 50 48 44 36 35 39 41 58
66 60 51 43 37 37 37 30 22 25 33 51 78 63 53 63 53 42 39 39 50 87 86 68 65 59 57 54 51 44 37 35 34 33 34 35 36 47 76 80 86 86 92
74 69 57 48 42 44 42 36 24 22 33 47 62 80 67 77 91 77 64 49 46 67 61 61 60 60 60 59 56 44 31 28 27 27 28 31 77 83 82 85 85 85 97
74 75 68 60 65 68 62 50 32 24 31 40 52 56 64 77 82 86 82 71 71 50 53 56 60 64 63 60 48 31 26 24 22 21 23 50 78 84 89 91 88 91 90
60 68 69 73 76 78 73 67 57 38 28 34 44 55 65 72 76 88 90 87 86 66 50 55 61 63 64 60 39 27 25 22 16 16 21 28 67 80 97 97 96 94 85
48 59 68 73 76 81 79 75 70 62 46 30 33 46 56 67 73 87 89 90 88 72 53 56 59 60 64 60 35 27 24 17 14 15 21 26 38 64 57 37 50 50 44
60 57 56 66 69 78 82 81 80 76 70 58 36 35 44 54 66 76 84 87 83 74 57 58 64 64 68 58 30 28 22 17 13 15 21 25 31 37 37 37 35 34 31
62 53 55 63 66 73 78 82 80 71 78 76 70 43 38 47 54 64 74 78 72 66 60 70 67 67 71 52 32 28 24 17 14 17 22 27 30 30 30 29 26 22 23
62 68 58 58 62 66 74 77 79 76 78 79 77 77 58 44 50 59 70 73 70 63 71 74 68 72 73 43 32 30 23 17 15 16 22 26 27 27 25 23 24 16 13
35 60 70 66 66 64 66 66 73 73 74 78 78 82 84 81 55 50 59 77 74 73 73 82 72 76 72 39 34 29 20 14 14 17 24 25 25 25 24 20 16 16 16
26 33 37 44 53 51 66 64 61 62 67 71 80 85 88 84 72 53 57 70 76 76 77 86 78 81 70 37 35 25 15 12 15 22 25 26 27 25 22 18 18 17 18
30 28 30 36 35 35 36 57 67 66 66 68 78 85 91 90 78 73 80 83 70 73 86 91 84 84 61 38 33 21 14 14 17 24 26 26 28 32 26 21 22 20 20
29 32 30 28 34 35 34 35 53 67 64 69 71 78 82 92 88 87 88 87 74 78 84 93 86 84 58 39 30 19 17 18 22 26 27 29 31 35 29 25 23 21 22
25 28 31 32 31 33 34 33 38 47 58 58 66 64 64 78 86 84 85 90 84 83 87 87 90 84 60 40 30 20 22 27 25 27 28 30 33 36 31 27 24 24 23
21 20 24 28 29 31 34 33 36 55 63 63 68 67 62 65 88 88 71 84 82 87 84 86 91 84 60 40 36 26 24 24 28 31 30 32 34 34 31 27 27 26 25
23 25 21 22 26 26 30 33 35 36 43 48 54 58 60 59 66 86 79 77 82 86 81 82 91 86 64 42 40 35 29 26 24 29 31 30 30 30 28 28 29 28 26
22 22 23 22 24 25 24 25 25 29 33 50 55 61 63 62 60 67 77 74 80 82 84 83 87 88 75 44 44 42 38 34 31 28 26 32 29 27 27 28 29 28 19
19 21 20 20 20 22 23 24 24 25 26 33 48 52 58 64 63 64 68 69 76 85 83 85 92 94 74 46 46 46 45 45 44 40 38 36 31 28 26 26 25 19 21

GFSSE_850_rhum_027.txt.gz
RH
45 57 98 100 98 97 91 80 80 83 82 86 87 97 96 92 89 86 82 78 73 51 68 77 97 96 79 68 62 60 72 72 72 72 71 70 69 59 40 24 24 36 58
31 50 100 100 68 92 62 71 76 82 83 86 85 87 98 84 82 81 75 67 45 67 90 95 96 90 79 71 69 60 48 42 48 52 50 42 31 20 22 27 32 34 76
40 41 76 83 92 75 66 48 78 87 90 85 80 85 79 78 70 59 53 34 37 94 95 97 96 76 75 74 49 36 31 27 32 34 32 31 27 23 25 29 32 39 71
39 40 34 35 28 34 40 45 92 98 95 86 87 85 72 59 39 21 17 20 78 84 85 67 73 74 53 27 24 23 31 35 36 35 36 43 44 48 48 44 41 46 50
40 35 34 25 28 29 30 36 92 98 94 96 90 69 58 19 17 18 20 24 44 71 62 57 51 30 30 30 34 39 45 47 48 50 50 50 54 67 55 55 62 60 52
47 41 34 23 26 25 23 27 42 93 96 84 79 66 27 20 20 20 21 21 34 48 43 32 33 41 44 44 46 48 51 55 58 58 60 57 60 45 47 63 83 84 84
51 48 35 26 28 27 22 29 31 63 96 95 89 63 22 24 25 25 26 28 29 32 37 48 55 58 60 56 52 53 55 57 57 59 58 56 50 51 39 54 74 81 89
56 52 39 36 34 28 20 22 25 67 98 97 84 58 26 27 30 34 39 43 50 63 62 74 82 62 53 49 45 45 49 52 50 53 52 50 48 43 37 33 36 69 82
66 60 49 41 36 33 25 21 24 57 90 92 86 51 30 32 32 36 44 56 73 76 84 87 68 58 50 46 42 41 40 38 37 37 39 40 39 35 42 48 45 66 72
67 62 56 45 40 37 30 21 20 28 39 84 98 59 36 38 37 36 42 54 69 89 87 79 61 57 53 52 50 43 36 33 31 31 31 32 35 80 82 84 88 92 97
68 65 61 53 45 43 42 32 24 24 31 34 72 91 58 59 52 46 42 43 61 91 74 62 58 57 60 59 56 41 29 26 24 24 25 50 91 78 81 86 88 97 96
61 66 65 59 51 49 50 42 37 28 29 32 39 75 70 76 81 76 68 53 49 49 54 56 58 58 60 60 48 32 26 24 22 19 22 76 78 81 84 85 84 86 88
56 64 68 63 57 66 70 64 52 33 27 33 37 42 54 68 78 90 85 75 76 64 47 51 55 58 59 60 47 30 26 22 16 15 20 33 67 90 71 90 82 87 80
63 64 73 73 71 74 80 77 71 59 40 32 37 44 49 58 70 76 85 85 81 75 62 50 54 57 60 63 50 29 26 19 15 13 18 24 38 50 51 34 50 66 40
64 62 67 72 75 78 79 77 79 75 67 54 38 42 49 55 64 67 78 84 84 84 68 53 51 59 62 65 50 31 25 21 16 14 19 23 27 32 32 29 31 30 26
67 62 65 69 75 78 76 75 72 68 76 75 69 54 40 49 58 66 70 81 84 83 76 58 57 63 63 67 48 32 28 23 16 14 18 24 27 28 29 28 27 24 22
43 54 65 67 64 70 72 72 72 66 68 73 74 82 72 46 51 62 68 72 76 79 69 58 66 65 67 69 48 33 29 22 16 15 18 24 26 27 24 22 23 19 14
30 33 37 60 68 62 57 62 65 65 64 68 73 79 85 79 58 54 60 68 73 70 69 71 73 69 71 72 47 34 29 20 15 14 19 22 23 23 23 22 17 15 16
27 27 29 36 60 68 60 58 61 62 62 66 67 74 81 85 87 78 64 65 71 73 75 81 79 78 76 74 45 35 27 17 14 16 21 22 23 22 21 20 17 18 17
29 30 29 28 37 51 62 66 59 61 64 62 63 63 69 76 86 90 85 64 64 78 84 86 84 87 80 76 42 34 23 16 15 18 24 24 24 24 26 22 19 21 19
32 30 30 30 30 34 36 43 45 40 46 61 59 61 62 66 78 85 85 71 65 77 82 83 87 92 83 75 40 31 21 18 17 19 22 24 26 27 30 27 24 23 22
26 25 25 28 32 32 33 36 36 37 37 40 51 54 60 61 62 68 80 82 83 88 82 85 90 89 86 71 40 29 24 26 21 22 24 26 28 29 31 32 28 25 24
23 22 22 23 28 32 32 34 37 40 46 43 42 46 52 60 61 62 67 70 87 90 81 79 83 85 88 79 51 31 26 26 27 27 26 27 28 30 31 32 29 26 26
24 24 24 24 24 26 28 30 35 36 41 39 37 39 45 58 65 64 64 66 66 82 82 80 82 82 88 86 62 39 33 27 26 31 31 29 30 32 32 32 29 27 27
20 21 22 24 25 25 28 27 28 30 31 32 36 43 52 53 61 63 62 63 64 73 82 82 78 75 86 86 78 48 38 33 30 29 30 36 34 34 33 31 30 28 28
29 25 23 23 24 24 26 27 28 27 26 27 30 31 33 44 54 65 67 64 67 66 73 79 84 78 81 89 83 57 44 41 37 33 33 35 36 36 34 31 30 29 26

GFSSE_850_rhum_030.txt.gz
RH
52 65 96 98 98 88 80 77 72 73 78 81 80 94 96 95 93 88 84 77 69 50 73 92 95 93 91 69 70 75 73 70 69 69 68 68 68 59 34 26 52 85 55
53 89 88 96 96 97 87 75 84 81 83 81 85 94 97 90 86 81 78 67 44 74 86 98 89 79 59 63 59 53 58 62 58 60 59 51 34 22 27 32 30 45 81
80 93 86 100 98 100 98 87 86 86 90 83 82 81 77 80 81 67 55 38 74 95 96 98 88 67 64 58 39 34 30 28 38 40 34 68 24 22 27 29 33 43 83
90 93 93 82 99 94 74 86 94 88 92 81 81 81 72 62 50 31 23 37 89 95 92 90 80 56 36 25 22 25 29 31 29 31 78 89 92 47 45 41 40 45 50
92 90 86 43 54 41 42 47 98 92 92 90 86 74 55 26 17 18 24 55 73 82 75 68 48 27 28 30 37 42 43 42 45 60 66 88 94 64 52 54 68 61 55
90 89 42 27 37 39 45 75 97 93 96 96 80 59 23 17 17 18 22 38 57 63 52 36 28 36 41 44 48 52 55 56 57 77 86 55 92 37 46 64 85 90 90
90 92 58 30 33 34 29 38 96 98 97 90 70 46 18 19 20 21 22 29 36 34 31 40 46 51 51 48 47 48 51 52 83 80 92 72 56 35 31 56 68 82 92
94 95 94 40 37 36 34 34 60 97 95 93 79 42 21 22 24 26 28 32 36 44 56 79 66 54 48 46 43 43 47 45 62 59 43 52 36 36 35 34 39 78 85
96 96 94 66 40 40 30 35 38 72 99 98 90 49 25 26 28 33 41 53 76 64 86 88 62 54 47 43 42 41 38 35 65 43 38 60 34 40 56 49 62 69 80
91 86 94 92 46 45 43 49 62 94 99 98 80 58 34 32 33 37 47 56 69 79 87 82 56 53 49 50 47 40 33 29 29 30 43 65 63 85 80 89 92 98 97
67 76 92 90 82 86 94 49 55 64 91 98 95 55 39 73 44 40 48 52 76 80 76 55 52 53 55 55 52 37 28 26 28 58 71 82 91 82 83 93 90 99 96
68 63 60 67 86 86 92 75 48 57 55 88 97 83 84 96 96 91 47 48 60 74 59 53 51 52 56 56 48 34 26 25 27 72 89 86 88 75 74 80 82 83 85
72 65 60 62 82 81 85 95 94 92 86 92 95 98 96 100 96 89 94 58 56 56 51 54 53 54 56 57 52 37 27 23 46 67 82 69 85 83 76 62 75 78 70
67 68 68 68 64 58 72 72 90 87 74 80 83 95 98 98 100 99 92 97 94 79 67 54 55 54 55 59 58 39 29 23 45 64 67 30 48 47 60 38 45 55 54
62 66 66 70 72 69 68 80 80 80 70 58 80 92 94 96 96 98 100 96 91 97 84 66 54 54 56 60 61 42 30 24 30 56 85 27 33 33 33 30 32 33 28
83 80 64 68 72 75 76 77 74 73 78 75 73 67 76 78 80 96 98 77 99 97 89 76 59 55 60 62 64 44 31 27 27 30 76 33 26 29 27 27 28 23 20
56 70 92 64 65 67 67 74 75 75 72 64 68 75 67 56 80 90 91 64 98 97 90 82 65 56 63 64 67 47 33 29 22 20 32 63 24 27 24 24 20 21 15
37 38 50 48 54 67 67 60 67 70 68 66 66 73 78 81 70 78 92 68 71 85 80 80 66 63 68 67 70 50 34 28 24 20 18 22 34 29 22 21 20 15 15
34 35 34 32 34 36 51 67 64 56 61 62 67 64 69 75 80 79 87 93 84 72 76 79 68 70 73 70 73 54 35 28 21 17 17 19 21 22 22 19 18 16 17
27 27 27 27 27 30 45 49 70 65 59 64 57 56 66 66 74 74 86 84 97 71 76 80 77 78 80 76 75 56 36 27 21 17 21 21 21 21 22 22 20 18 20
31 32 30 29 29 29 49 42 47 65 58 61 54 51 61 61 64 65 75 87 91 77 70 73 83 83 81 83 75 53 35 26 19 18 20 22 21 22 24 27 26 22 23
27 29 29 30 30 30 30 46 51 46 50 58 46 48 54 56 54 63 64 70 78 85 70 69 84 85 85 86 73 50 43 35 23 20 20 23 24 24 26 28 32 29 26
24 24 25 26 25 26 29 32 58 77 72 52 42 39 38 50 56 62 61 62 65 76 73 68 78 83 86 85 83 56 42 39 41 30 23 24 26 26 28 29 32 32 30
25 25 24 24 22 22 25 31 58 82 66 39 34 36 36 39 46 74 59 64 66 63 71 74 84 75 78 82 84 78 54 32 33 39 31 27 26 27 28 30 33 34 32
30 26 23 24 23 24 25 26 38 83 84 84 88 54 40 38 41 49 54 60 65 66 64 80 89 80 75 82 80 83 71 44 31 30 40 34 31 30 31 32 35 34 32
33 30 27 23 25 28 27 27 27 40 72 85 85 91 69 45 40 56 58 56 60 65 66 64 86 89 79 83 81 85 84 69 43 33 31 34 34 36 36 36 36 35 33

GFSSE_850_rhum_033.txt.gz
RH
80 36 69 84 73 62 60 74 73 72 77 80 82 86 94 96 94 87 83 75 65 61 86 88 76 87 77 66 78 70 71 68 68 68 67 65 61 45 23 22 76 84 52
81 52 65 92 91 69 87 76 72 72 84 79 84 87 90 92 86 80 76 64 42 71 94 90 69 47 53 53 51 54 64 65 63 60 56 59 30 19 22 25 29 36 49
80 88 53 96 98 87 77 83 78 85 85 82 86 86 86 75 73 64 53 41 92 83 98 89 80 57 51 40 33 30 34 36 37 38 63 75 26 23 27 32 36 45 39
79 89 85 83 99 99 85 91 89 90 93 90 81 76 65 57 44 32 34 78 94 94 91 82 79 45 24 22 22 25 26 25 28 56 78 82 91 44 43 42 42 44 48
78 84 89 40 99 100 86 89 90 95 86 85 79 65 48 27 18 20 33 79 91 89 89 87 55 24 24 30 36 39 40 42 54 85 94 93 92 46 50 56 76 65 54
75 80 81 57 83 94 99 99 98 97 93 96 83 53 23 16 17 20 24 48 69 68 52 40 25 36 40 44 48 50 52 57 84 90 95 79 86 42 49 68 88 89 91
72 85 65 55 59 52 100 99 98 96 97 96 77 44 17 16 16 18 26 38 47 46 30 31 41 48 48 46 47 50 53 60 90 92 93 89 42 36 32 52 56 86 94
75 87 82 60 39 41 74 80 98 98 96 94 75 40 19 18 18 19 23 31 31 30 41 50 53 46 42 40 39 40 42 44 87 89 67 66 34 31 31 31 45 81 85
79 82 94 47 34 40 41 47 94 97 95 93 73 47 23 23 24 25 27 31 39 52 85 73 52 46 42 38 38 35 32 33 74 51 54 60 27 57 60 42 68 78 81
84 84 82 89 41 39 32 39 65 83 94 96 87 54 27 31 31 36 39 51 52 66 83 75 52 48 45 44 41 35 29 28 46 33 54 39 84 82 79 93 91 95 95
89 88 80 79 83 84 91 48 59 95 97 97 99 77 32 30 33 41 54 62 60 82 81 72 52 49 50 49 46 34 27 37 50 61 73 74 80 83 91 90 98 92 97
96 95 86 79 79 83 86 80 72 93 94 97 98 72 56 87 63 55 54 56 74 84 73 58 52 51 55 53 48 36 36 36 56 71 87 81 84 83 78 80 86 87 83
91 99 92 91 85 84 86 90 86 86 92 93 98 98 93 86 94 92 88 42 53 62 59 53 52 53 56 54 53 44 33 30 57 69 83 81 88 77 67 62 50 67 64
84 87 78 78 93 89 88 91 87 87 86 83 87 89 92 88 92 98 98 96 88 90 94 56 52 53 53 55 56 49 36 38 57 63 77 59 78 58 46 49 35 41 45
94 63 66 67 78 96 93 94 92 90 89 86 85 87 85 87 92 94 93 94 98 99 92 81 60 50 50 53 58 56 40 42 59 66 82 34 32 41 38 32 27 28 24
84 93 63 71 68 70 87 98 99 92 90 88 84 86 86 85 88 92 95 95 97 99 99 91 72 57 50 50 57 59 45 38 55 62 78 38 35 30 28 28 27 24 20
58 70 84 78 64 68 71 83 100 99 94 91 88 89 91 89 87 88 89 96 100 98 99 97 77 61 54 52 57 61 52 43 41 50 71 61 25 25 25 25 22 20 19
40 43 53 72 95 83 83 96 96 94 98 95 91 92 94 94 92 87 88 89 93 95 94 99 82 72 62 59 62 61 59 43 42 47 56 65 47 29 23 23 20 19 14
35 37 39 44 64 85 94 88 64 82 98 96 97 96 94 98 97 94 91 92 89 99 95 98 82 79 66 63 62 62 62 48 38 45 42 38 54 59 32 22 20 17 15
31 33 34 35 39 53 73 91 58 48 66 84 91 92 96 98 95 98 94 95 96 96 99 91 78 77 70 68 67 66 67 49 41 41 36 35 38 30 40 20 19 18 16
34 35 36 38 38 40 45 61 69 44 33 41 67 87 99 98 100 99 94 94 99 100 100 92 76 72 75 72 69 69 63 56 39 41 35 39 30 23 22 21 22 23 20
30 32 35 37 38 38 37 42 56 69 37 31 38 55 64 75 81 99 86 74 83 88 99 93 83 76 76 78 72 72 59 58 46 32 34 37 32 25 22 22 24 27 27
34 27 28 34 37 37 37 40 45 65 82 86 62 53 51 62 77 100 100 91 92 99 94 87 85 78 68 75 80 70 60 53 47 41 32 31 31 29 23 23 26 27 30
37 26 27 27 26 26 26 28 34 50 72 87 88 89 68 54 49 58 100 93 82 89 84 74 81 76 77 74 81 78 72 48 42 43 42 35 30 30 26 24 26 29 31
46 30 27 26 32 36 25 25 27 38 54 75 84 85 86 87 61 45 85 100 93 85 73 74 92 76 78 77 84 77 79 69 46 40 38 38 34 30 28 30 28 32 33
53 37 32 27 28 30 31 30 30 35 56 68 74 79 86 93 97 99 96 100 100 100 91 71 78 86 86 83 90 85 76 76 77 54 38 38 36 36 33 33 33 34 36

GFSSE_850_rhum_036.txt.gz
RH
64 27 20 27 42 56 65 75 71 71 75 80 83 85 92 92 89 86 78 69 48 75 87 70 74 78 63 70 76 74 71 68 66 67 66 65 54 23 25 52 42 35 40
47 30 23 32 48 52 71 72 71 79 81 76 82 88 85 86 84 73 67 49 62 87 90 61 46 41 49 51 57 66 67 65 60 52 52 37 19 20 23 27 32 34 32
61 44 41 63 55 83 88 71 72 86 83 85 90 88 79 74 67 53 40 78 75 92 90 81 70 45 34 30 30 30 38 38 48 76 83 82 41 32 32 36 40 41 42
82 59 63 98 94 80 76 83 86 93 89 91 91 80 59 47 37 33 65 92 90 92 81 81 64 23 19 20 22 24 26 36 78 84 87 89 81 42 42 46 44 44 44
85 76 62 96 99 97 87 94 94 94 94 91 82 63 36 20 16 20 78 89 89 89 90 84 30 24 27 32 35 37 42 61 89 88 79 91 71 43 50 72 76 74 70
81 86 62 66 61 99 84 93 88 94 94 96 81 49 20 15 16 19 29 81 82 75 58 35 29 36 38 39 41 45 49 70 85 94 82 62 44 30 49 79 84 92 92
78 83 76 44 68 38 61 72 95 92 93 95 73 40 16 16 16 20 34 44 55 42 28 32 40 43 41 39 40 42 45 72 88 94 76 50 33 30 31 53 74 90 92
74 80 66 35 40 35 32 89 96 94 96 97 71 37 19 18 18 20 28 37 36 28 34 46 46 40 38 36 36 38 41 75 89 60 48 43 31 27 29 32 63 79 77
78 81 54 30 28 31 46 80 99 95 97 97 74 36 20 21 21 21 24 26 28 38 55 48 44 40 38 37 36 34 34 61 65 43 54 41 32 66 56 71 72 71 72
80 84 73 42 32 31 30 42 85 97 97 98 80 51 22 22 26 29 32 37 42 54 65 51 42 40 40 40 39 33 29 33 31 36 39 31 77 75 86 89 92 93 94
81 81 82 84 48 38 32 35 43 89 98 98 88 71 29 25 27 36 42 60 55 65 68 56 43 43 44 45 42 33 28 30 40 58 57 67 79 85 92 96 93 85 86
88 83 80 79 78 80 82 46 42 67 95 98 98 64 40 29 36 37 43 46 56 73 66 57 44 44 46 47 46 37 32 33 46 71 78 71 74 88 85 77 87 84 82
76 86 82 79 80 83 86 80 49 72 87 84 75 51 46 62 88 73 56 53 48 58 55 50 46 45 47 44 45 45 37 30 50 56 64 68 72 67 60 57 49 37 48
94 87 83 86 85 82 87 85 75 77 75 74 84 86 70 78 88 81 69 70 42 42 50 43 44 49 45 51 52 51 45 34 48 53 55 63 56 56 39 34 36 28 32
78 82 82 85 88 89 86 85 89 88 85 80 81 86 90 81 85 82 90 90 88 79 78 79 62 55 46 50 51 54 51 40 48 45 54 52 35 42 35 31 26 26 25
87 82 61 61 69 79 93 88 91 91 91 85 78 81 85 90 90 87 84 87 87 90 92 94 82 64 56 48 46 53 55 46 47 52 58 47 36 21 28 26 25 24 21
70 71 69 60 57 69 79 85 95 90 94 92 87 82 81 78 87 89 92 81 86 89 94 97 96 79 66 54 47 49 54 53 42 50 42 44 33 20 21 25 24 22 19
48 56 72 75 74 72 63 78 93 96 92 96 94 91 86 84 84 85 88 80 88 83 98 99 97 91 70 61 54 49 53 56 50 44 46 37 33 24 18 21 19 20 18
34 40 42 46 68 74 64 75 82 87 95 92 86 86 89 90 85 88 88 89 85 92 90 98 91 98 81 70 63 56 57 59 55 47 45 42 32 22 21 19 18 16 18
27 33 34 36 39 47 76 84 87 74 79 81 96 95 81 80 82 79 79 89 89 89 92 93 94 100 90 75 68 60 59 59 60 49 44 41 36 27 23 22 19 18 17
30 32 32 33 34 36 38 56 75 73 51 53 56 62 98 96 95 72 67 65 91 86 87 94 100 98 84 77 67 63 58 61 63 56 46 41 36 33 26 22 21 19 19
28 30 30 31 33 34 36 40 47 56 64 54 44 43 58 70 94 98 88 76 68 94 91 90 99 100 93 78 69 64 56 59 66 62 51 44 38 32 29 21 21 20 22
33 29 29 32 34 37 39 40 42 43 50 78 77 53 33 42 69 81 96 94 95 82 98 91 94 97 95 81 76 68 67 68 62 61 60 47 40 36 30 28 23 24 23
45 32 29 29 28 28 31 36 38 39 38 41 63 73 68 61 49 52 68 83 87 96 97 100 76 69 92 86 79 78 72 64 58 56 55 46 42 41 36 32 27 26 28
48 35 32 30 34 46 39 31 27 27 29 35 57 77 87 88 80 75 76 68 92 90 99 99 100 83 67 80 81 81 76 73 61 54 51 49 45 41 39 36 34 31 28
47 41 38 36 35 36 40 42 38 35 31 31 50 66 75 81 84 85 88 97 96 92 93 94 97 100 99 96 89 91 85 80 77 58 54 56 48 47 41 41 40 39 39

GFSSE_850_rhum_039.txt.gz
RH
74 44 24 42 78 64 67 63 65 69 75 84 83 84 93 90 84 77 62 47 70 89 53 66 72 68 58 77 75 72 69 66 65 67 64 50 29 20 26 30 38 33 28
61 36 25 41 58 57 65 61 69 76 77 79 81 83 75 84 75 61 46 62 84 89 48 49 33 39 52 61 70 69 68 62 59 57 48 28 19 22 29 37 32 31 29
53 39 30 39 45 59 60 67 77 76 80 79 84 81 71 65 55 38 58 73 91 92 81 73 34 26 28 31 35 44 48 59 68 73 68 69 37 34 36 38 40 40 37
52 48 33 41 61 83 61 68 85 85 84 87 84 72 48 37 30 85 90 89 92 86 75 71 21 16 17 18 22 28 43 67 85 91 82 76 61 44 62 44 45 48 57
59 56 48 66 75 72 68 82 90 92 91 88 80 48 22 16 19 88 85 86 88 88 83 46 23 26 28 29 29 30 44 64 75 88 87 73 45 43 70 79 84 82 85
70 56 57 98 93 76 91 93 94 92 97 85 66 28 13 13 15 44 80 80 80 78 57 23 32 35 36 39 43 48 68 82 85 64 63 52 32 32 70 81 86 90 90
76 65 59 70 81 65 89 94 89 89 92 74 57 22 14 14 15 20 36 64 55 36 24 34 39 38 37 39 42 49 63 71 77 71 48 38 30 30 39 73 88 92 93
79 84 82 62 56 72 82 93 93 89 91 80 59 24 16 16 17 23 31 36 32 25 34 43 37 34 33 34 36 41 60 69 68 52 34 37 28 27 30 56 66 68 66
78 78 74 53 32 35 57 92 98 91 93 81 60 27 18 18 20 26 30 28 26 34 44 40 37 34 33 33 32 33 39 43 50 36 33 35 49 66 77 73 78 74 76
76 75 59 35 29 27 32 56 98 98 95 82 63 36 20 19 20 21 24 26 34 50 51 42 39 36 37 36 34 30 28 28 28 27 34 33 70 75 85 88 90 91 62
81 82 71 42 32 31 32 30 37 79 88 76 53 39 22 23 24 26 28 33 37 48 56 45 40 41 41 42 39 31 27 27 28 29 42 54 71 89 84 98 98 82 75
84 84 80 74 61 36 34 28 31 42 51 57 45 46 30 24 26 30 34 38 43 44 55 49 40 40 42 43 42 35 32 30 32 38 47 56 73 97 93 97 83 68 54
82 86 85 81 76 54 51 51 35 36 46 61 49 42 46 29 38 35 31 34 38 46 53 50 41 40 40 43 44 43 40 32 32 37 40 47 52 49 52 51 48 39 27
84 84 82 81 82 76 78 72 68 41 49 58 52 56 61 41 50 67 62 53 47 39 42 45 43 44 42 40 39 43 45 38 34 36 39 46 50 44 42 32 28 28 20
64 79 83 81 83 82 84 82 72 72 65 67 60 64 72 77 65 72 79 68 64 70 48 47 46 47 40 41 44 44 47 46 40 38 40 40 44 39 30 25 24 22 19
67 54 65 70 78 83 86 87 82 82 80 83 80 73 78 85 86 82 81 81 81 84 77 66 77 75 65 53 48 46 48 52 46 42 44 42 43 43 30 23 21 20 18
66 65 60 57 60 68 76 85 89 90 91 92 92 85 77 81 85 91 92 90 77 75 86 88 93 96 91 73 60 49 47 52 51 47 45 46 41 39 30 26 20 20 18
66 66 71 72 73 69 69 71 76 90 93 94 93 93 85 79 74 78 83 81 80 79 82 87 87 96 94 88 70 59 51 50 54 52 48 46 42 40 34 27 20 19 19
36 41 50 59 62 71 76 76 76 82 96 98 97 92 81 77 85 84 78 74 78 84 82 86 85 92 95 92 88 70 61 54 54 55 53 50 45 40 35 26 20 20 20
25 34 36 37 43 45 43 58 72 80 84 85 83 82 85 86 81 83 87 88 84 83 83 88 93 92 95 89 96 88 69 60 55 57 56 54 50 44 39 29 24 21 20
24 25 32 35 36 43 54 55 62 69 64 64 72 70 72 70 81 88 76 73 86 85 78 82 89 95 91 91 92 92 71 62 58 57 58 56 54 50 41 34 27 25 23
28 28 30 32 32 34 36 38 43 50 60 64 61 68 68 72 78 83 93 92 74 86 88 83 78 80 92 98 98 88 61 61 65 61 60 60 57 52 46 37 32 28 27
27 26 26 27 28 29 30 34 37 41 44 46 49 53 52 54 58 66 75 75 85 91 89 80 76 72 73 83 98 92 64 66 64 60 59 61 60 56 51 43 37 32 30
27 26 25 26 27 29 33 37 38 39 41 42 42 42 44 48 61 66 62 69 77 82 85 90 88 82 92 85 90 98 90 73 64 63 60 62 63 59 54 48 42 37 32
42 37 32 30 30 30 30 31 31 30 29 29 32 36 44 62 77 72 71 67 84 81 88 99 100 97 84 95 99 94 85 80 74 69 65 64 62 58 56 51 47 42 38
52 46 44 41 40 39 37 36 34 32 30 32 30 31 40 53 67 78 79 80 81 90 93 90 97 98 99 100 98 100 99 91 81 75 68 68 69 62 57 60 64 59 47

GFSSE_850_rhum_042.txt.gz
RH
74 40 42 57 68 79 91 70 64 77 77 80 81 83 89 84 75 61 45 77 83 60 73 71 66 58 71 84 78 72 67 65 66 67 61 32 19 19 26 34 28 26 33
56 37 36 77 68 74 73 79 75 70 81 76 79 74 67 72 59 48 55 81 83 48 53 32 31 57 66 70 71 70 68 66 65 60 41 21 20 26 32 31 31 28 34
59 37 39 65 59 86 65 72 73 70 70 77 67 70 58 53 39 44 72 87 90 77 62 30 21 28 39 54 63 62 61 60 54 46 41 37 34 35 37 38 38 39 32
57 35 39 55 57 61 66 73 73 78 75 74 67 53 39 32 80 84 78 90 88 71 54 19 15 17 19 28 39 50 52 44 42 49 46 44 41 58 48 46 46 56 84
51 38 43 50 78 64 65 75 79 83 86 76 63 30 20 23 84 90 90 88 88 80 50 22 23 22 22 21 26 35 48 52 57 60 52 47 35 65 73 80 86 88 89
56 49 54 73 94 65 71 78 84 88 94 89 53 18 12 16 85 73 77 77 77 71 28 29 31 32 34 34 37 50 60 63 57 57 59 37 30 63 81 80 86 89 89
61 61 94 96 79 79 86 88 89 92 93 76 47 15 12 13 15 48 55 53 46 31 27 34 35 36 37 40 42 48 49 54 55 56 43 35 30 33 70 82 86 87 94
64 62 58 82 67 91 94 91 88 90 84 55 42 16 14 14 16 22 29 36 28 24 34 36 32 31 32 34 36 39 46 52 48 41 35 36 26 28 59 73 64 62 66
75 72 71 59 42 82 87 83 93 95 81 44 37 18 16 16 17 23 31 31 26 33 39 33 31 30 31 31 32 32 40 42 36 33 29 29 47 61 81 76 76 74 74
83 82 78 70 35 56 68 62 92 93 86 45 27 18 18 18 18 21 24 24 28 41 41 37 35 33 34 34 32 29 31 30 27 28 32 32 57 82 86 84 88 68 57
83 80 65 48 35 34 44 40 74 84 78 56 37 22 16 18 20 21 23 26 31 42 47 41 39 38 39 39 35 30 28 28 26 27 34 45 74 86 84 95 99 74 68
81 81 65 45 31 30 33 34 40 50 61 53 41 35 21 20 22 24 26 32 35 42 52 47 40 41 42 43 41 34 32 32 30 31 35 48 72 90 87 99 81 43 48
82 81 80 76 69 40 32 30 33 35 43 48 48 43 42 26 26 26 31 35 38 41 50 53 45 39 40 42 43 41 38 37 34 34 38 40 56 66 46 35 48 43 33
85 84 80 81 77 70 59 54 46 36 36 47 48 50 47 43 30 32 34 36 38 37 40 44 44 45 41 41 44 44 46 44 39 36 39 45 42 53 50 35 28 25 24
82 76 77 83 78 72 70 64 64 59 44 48 57 56 63 63 49 50 55 63 65 59 56 42 38 42 42 42 42 42 44 46 46 41 40 43 46 47 47 38 25 23 20
84 81 75 72 71 67 68 76 72 66 70 75 76 74 69 69 69 70 74 71 77 79 76 76 66 63 64 62 53 48 49 47 48 48 45 45 45 48 47 45 32 21 18
54 58 76 77 72 67 70 71 75 77 82 81 82 87 84 75 71 73 77 79 84 88 84 82 83 76 74 74 79 70 57 48 46 47 48 48 49 48 46 47 35 24 19
64 69 70 69 77 78 73 74 76 75 76 85 88 89 90 87 80 79 76 74 81 90 90 84 79 83 86 87 89 84 76 60 52 49 50 51 51 50 46 44 38 27 22
41 50 57 71 76 77 78 77 79 80 81 83 88 88 89 87 84 82 79 76 80 85 87 86 85 83 84 85 90 94 86 82 65 56 52 53 54 54 51 47 42 33 24
28 38 51 60 50 56 75 80 78 80 84 87 87 85 91 91 91 92 87 82 81 86 85 86 88 89 90 89 94 95 94 89 84 70 60 55 55 56 55 52 47 38 30
23 24 38 38 38 39 54 66 68 71 70 70 77 76 74 74 80 80 79 82 92 93 86 84 82 86 80 83 82 93 90 89 89 90 68 60 56 57 57 56 52 45 35
25 26 30 34 35 36 39 46 53 58 60 74 71 75 78 82 83 79 76 78 81 85 88 86 87 86 77 77 87 85 95 83 88 82 75 67 62 58 58 58 56 52 43
29 29 29 29 30 32 34 36 39 42 44 50 54 56 61 59 67 76 73 77 83 81 77 79 82 89 81 76 75 83 85 83 79 68 62 63 62 61 59 60 60 56 51
28 27 26 25 25 28 30 32 34 36 39 40 42 43 43 42 43 47 56 67 65 71 82 85 85 89 93 91 86 86 87 92 80 70 67 64 61 57 57 58 60 61 56
30 28 25 25 27 28 30 29 30 31 31 31 33 35 37 37 37 41 55 68 73 70 67 86 85 91 93 97 86 94 98 99 97 99 88 75 74 70 64 62 60 62 60
41 40 33 33 34 32 31 30 28 28 27 28 29 31 30 28 29 36 46 58 66 88 85 86 82 91 93 95 100 99 99 100 98 98 90 89 80 83 72 68 64 65 63

GFSSE_850_rhum_045.txt.gz
RH
53 37 50 60 68 58 60 60 65 71 72 73 75 78 79 74 62 44 73 77 81 73 71 64 59 59 79 85 85 72 66 66 65 66 64 27 16 22 27 22 23 28 45
30 33 51 62 65 76 65 65 78 77 78 76 78 61 67 59 46 50 84 70 48 45 31 23 52 63 68 77 73 70 69 68 67 62 40 21 25 29 31 31 27 28 50
33 38 86 68 74 77 88 81 81 85 85 78 53 51 45 40 43 61 85 84 72 53 24 18 32 47 67 65 68 68 66 64 56 40 32 32 34 35 36 37 42 44 36
38 35 87 76 72 69 73 90 89 91 79 47 41 33 32 46 60 74 89 89 74 47 19 15 17 22 33 48 58 58 54 36 42 41 35 35 42 64 48 53 53 85 82
54 31 77 64 84 63 70 73 81 89 66 46 28 20 21 76 86 80 88 78 74 52 21 21 18 17 20 31 35 26 26 35 40 38 32 26 46 70 76 80 90 84 82
52 33 52 58 68 66 69 80 84 73 66 62 36 14 17 88 92 71 73 75 65 39 26 28 28 27 25 25 28 32 31 35 36 34 31 27 36 76 79 80 92 90 90
47 42 50 70 83 65 76 88 74 60 43 63 34 14 15 52 46 61 60 53 45 25 30 32 32 34 34 35 38 43 44 42 39 33 30 27 27 48 76 81 80 87 87
52 50 60 100 83 69 79 80 80 78 58 39 26 15 14 16 28 48 48 41 29 26 34 32 32 33 35 37 41 41 44 49 42 33 32 30 25 29 74 70 71 59 49
64 55 52 64 79 85 99 92 90 84 68 41 20 14 16 17 17 22 28 30 25 33 38 33 32 32 34 36 38 42 43 43 36 32 28 26 43 55 82 83 74 69 64
75 66 59 50 63 86 95 96 100 99 80 50 29 16 15 16 19 24 26 26 25 34 35 34 34 34 36 37 36 42 45 41 32 29 30 32 53 86 93 90 93 68 51
89 87 84 77 53 66 79 72 91 94 82 70 45 24 18 18 18 20 23 24 27 36 37 35 34 35 36 37 35 34 35 31 31 33 36 48 68 98 98 96 98 98 64
85 83 79 71 48 42 59 58 57 70 72 66 58 40 21 20 22 22 24 26 30 37 46 44 38 38 39 42 41 37 33 33 33 33 36 45 79 96 90 97 98 57 51
81 79 60 48 39 36 38 47 46 46 57 61 62 50 44 24 22 23 25 28 33 35 38 47 47 41 39 41 44 44 39 38 39 36 36 40 75 76 87 91 56 54 42
80 76 76 74 62 40 36 36 38 40 44 49 49 51 44 42 28 24 25 28 30 34 37 39 46 46 44 41 42 44 43 43 44 43 39 40 44 48 58 60 53 36 27
77 72 74 77 73 71 59 62 56 53 50 42 49 51 51 51 46 34 38 50 55 63 54 55 51 42 41 43 43 44 42 42 43 45 43 43 45 49 53 56 54 47 24
81 78 71 70 68 67 68 71 73 74 69 58 60 65 62 64 65 64 65 66 63 68 76 77 75 77 67 69 70 61 51 47 46 45 46 48 48 48 52 55 55 55 40
77 77 70 72 73 74 71 69 71 75 76 75 76 79 80 79 73 72 71 72 74 80 84 87 88 84 80 81 78 82 78 74 64 53 48 49 51 51 52 55 55 53 50
58 71 70 79 77 78 76 73 74 77 76 75 78 82 83 84 87 84 76 71 73 81 86 92 92 92 86 86 85 86 88 85 79 74 63 54 51 52 53 54 54 54 52
55 67 72 74 79 80 79 80 80 80 80 81 82 85 88 88 87 88 83 75 78 83 84 87 89 93 90 88 86 88 92 94 96 91 82 79 66 56 54 55 56 56 54
40 42 54 72 82 84 87 88 87 86 85 86 85 86 83 84 92 92 93 90 90 91 90 90 91 91 93 90 88 86 91 92 91 86 82 80 82 74 61 56 57 57 56
25 31 40 46 60 69 72 75 82 77 79 82 82 87 92 88 84 86 86 87 87 88 90 94 95 92 89 86 86 81 78 81 87 82 84 77 73 82 73 60 57 60 60
26 26 29 35 42 42 42 48 62 67 70 67 63 68 76 84 83 80 82 82 83 84 84 85 82 81 82 83 86 88 91 81 76 68 74 71 69 79 80 68 60 60 63
28 29 30 31 33 35 36 38 42 50 52 52 54 54 68 78 82 86 81 79 84 86 79 83 86 85 86 88 91 97 99 86 79 77 74 72 67 64 65 62 57 58 63
30 30 30 30 29 29 29 30 33 35 37 39 40 40 42 45 47 48 46 47 54 58 61 70 76 77 90 91 97 98 97 100 100 96 90 80 75 75 77 72 58 58 64
31 30 29 28 28 28 30 32 36 37 36 34 34 35 35 36 38 39 40 41 41 56 64 74 81 91 90 92 98 99 100 100 100 100 99 94 89 88 84 82 84 82 76
35 35 33 31 30 29 29 32 34 35 34 32 31 31 31 31 31 31 30 34 38 57 70 85 90 91 90 83 79 80 96 98 100 98 99 94 95 87 85 91 83 83 80

GFSSE_850_rhum_048.txt.gz
RH
43 50 56 52 54 59 62 66 68 72 75 68 73 74 72 55 41 65 75 79 69 72 66 54 59 51 63 77 82 70 67 64 61 64 50 18 22 27 26 24 26 39 78
29 48 53 52 46 52 56 59 62 67 67 68 72 58 57 42 51 85 56 44 39 26 20 34 57 61 78 79 74 70 67 63 59 47 24 24 28 31 32 31 25 39 72
30 44 58 75 51 54 58 71 78 80 77 61 47 37 36 46 58 84 77 62 38 20 16 32 47 62 64 71 68 62 60 53 33 29 29 30 32 34 36 40 68 62 44
27 41 58 54 82 70 78 82 80 88 82 56 39 28 29 49 67 84 80 66 48 20 14 16 24 42 52 55 58 57 41 33 37 32 27 32 57 51 66 71 91 76 83
32 55 63 73 67 76 81 84 88 89 73 53 30 23 59 67 69 84 81 66 54 22 21 18 16 21 28 37 36 30 35 38 38 34 26 31 67 78 78 88 90 84 89
39 65 91 70 71 67 80 76 87 80 72 63 30 20 72 82 87 95 68 67 48 25 28 28 26 23 24 26 30 37 39 39 38 32 28 27 56 82 76 86 93 88 88
47 60 86 84 70 69 80 88 84 73 56 51 32 18 72 94 87 60 61 57 38 27 31 31 31 32 32 36 38 39 38 40 38 32 29 30 33 73 79 80 74 88 72
45 50 79 76 69 69 92 96 78 68 53 39 21 15 46 85 60 52 48 39 26 30 32 31 32 34 36 38 44 45 46 44 40 31 29 29 28 36 81 71 64 56 46
53 50 60 97 85 70 94 93 81 85 74 43 22 14 14 15 27 50 43 31 24 31 31 29 29 32 34 35 36 40 40 41 37 31 31 33 49 55 92 86 75 56 44
65 55 60 85 84 78 95 96 98 87 79 48 29 16 15 16 17 22 30 29 25 34 31 30 31 31 31 32 33 34 34 32 30 30 32 40 54 87 96 93 90 53 28
84 74 64 60 76 79 91 96 100 90 74 73 42 22 17 17 19 22 27 27 28 36 34 34 33 33 34 35 35 34 33 31 32 32 36 41 57 91 94 98 100 64 48
89 88 86 83 77 76 90 87 71 79 80 77 60 39 20 20 20 22 25 25 26 35 42 40 37 36 37 38 38 38 37 34 35 36 36 40 55 86 90 92 99 60 32
85 89 84 82 82 64 79 79 61 48 63 64 61 53 41 24 22 23 25 27 30 34 38 40 45 46 42 39 40 41 43 41 40 41 40 39 54 86 80 90 70 63 39
81 78 70 54 52 52 59 62 55 52 52 53 57 57 49 46 36 25 26 29 31 33 35 37 40 44 45 46 45 42 41 42 43 44 45 43 45 76 87 57 59 54 45
79 76 72 67 55 43 41 45 51 45 43 45 51 56 55 52 52 46 33 37 45 51 61 57 64 69 66 56 51 48 46 46 44 45 46 46 46 46 50 53 54 54 47
77 76 74 68 67 69 59 54 59 59 66 63 48 54 63 62 66 67 60 59 63 66 72 78 80 79 78 76 76 72 72 71 69 62 55 50 48 49 50 51 55 57 61
72 69 71 68 71 72 70 70 70 71 73 68 65 70 76 76 75 72 71 70 71 76 79 82 85 86 85 87 82 83 84 83 83 83 76 68 59 53 51 51 54 59 59
77 74 74 78 78 79 77 74 73 75 73 73 73 76 79 81 83 82 80 75 76 79 83 85 86 89 90 92 90 90 91 91 89 89 94 89 80 74 65 56 54 56 60
58 63 68 80 76 83 83 80 82 83 82 82 84 83 81 84 86 86 82 81 88 89 89 90 91 94 92 92 94 95 96 97 97 93 81 79 84 81 79 79 63 57 59
55 66 72 78 77 80 81 86 85 83 87 86 82 82 86 87 91 92 91 91 94 96 92 91 92 93 95 95 94 88 86 87 86 85 82 83 79 81 81 82 84 67 58
40 44 58 73 77 80 81 82 84 80 80 84 83 80 79 83 87 93 91 89 88 86 84 87 89 86 87 85 89 83 80 79 81 78 78 74 73 76 82 80 80 79 62
25 27 33 41 53 66 78 84 84 78 78 80 82 82 85 81 83 92 93 89 80 85 81 83 86 88 88 84 93 100 98 93 90 84 79 74 73 75 74 72 75 73 62
26 26 28 32 38 50 57 57 53 52 61 70 81 86 82 77 84 90 87 86 88 91 83 80 85 81 83 82 88 100 94 88 85 85 84 85 83 84 79 73 73 72 62
29 30 31 33 34 34 34 35 35 35 36 38 40 43 47 47 47 48 50 53 54 51 50 55 67 74 83 81 90 91 96 94 100 96 94 88 91 80 81 83 81 85 76
30 31 31 31 30 30 30 29 28 28 29 32 35 35 35 35 36 38 40 40 40 40 42 47 74 78 86 93 90 90 85 97 100 100 99 98 84 85 89 72 74 88 90
33 33 32 31 30 29 29 29 29 30 31 30 30 29 30 29 30 31 32 31 31 33 38 45 83 85 84 80 86 80 81 88 90 97 99 98 100 88 78 73 81 85 88

GFSSE_850_rhum_051.txt.gz
RH
47 54 64 58 79 77 72 71 76 80 77 74 73 70 59 40 63 82 82 67 72 65 58 43 47 61 68 75 73 68 65 58 50 43 21 24 28 28 25 26 38 79 81
34 48 61 56 71 67 61 68 78 76 71 63 63 53 40 47 71 37 42 40 25 20 24 49 49 58 64 75 72 66 59 46 27 23 28 28 30 32 37 40 39 67 78
28 46 58 52 55 58 61 76 83 84 70 51 38 36 46 57 84 67 58 35 18 15 26 38 52 58 68 68 62 56 43 30 30 30 32 44 36 46 55 85 73 57 58
29 41 54 56 56 70 69 75 81 82 57 40 29 32 51 62 83 78 67 45 18 14 16 25 41 50 50 53 51 36 33 36 34 27 30 56 62 72 90 90 81 88 92
31 43 77 65 78 66 75 76 80 86 57 35 24 45 52 68 80 79 56 44 22 20 17 16 21 28 35 37 29 34 37 38 35 28 28 58 81 80 84 85 77 83 82
33 53 70 86 83 87 84 78 76 71 57 36 23 66 69 69 85 98 54 43 25 26 25 23 22 24 26 30 36 37 37 36 32 29 27 39 80 81 74 82 82 82 77
45 74 78 89 75 77 84 86 81 64 49 33 25 88 97 98 93 44 42 37 25 28 29 28 28 28 30 32 35 35 38 36 31 29 29 27 40 78 83 81 70 69 58
50 92 80 88 71 76 81 93 85 67 46 27 16 42 92 97 64 40 37 30 25 30 28 28 28 28 30 30 32 33 33 31 30 27 29 28 36 49 86 72 64 58 46
46 87 80 95 74 77 91 99 86 73 58 36 17 16 21 20 25 39 36 28 27 32 30 30 29 30 30 30 31 32 32 30 29 29 31 35 44 56 87 87 74 26 23
54 63 88 86 78 74 95 97 92 92 77 49 26 17 17 18 18 24 30 28 28 37 34 33 32 31 31 31 31 31 32 31 31 32 35 40 53 84 97 98 83 28 17
63 61 72 96 96 80 97 97 99 99 85 67 39 19 18 18 20 25 28 28 27 37 37 36 34 33 34 35 36 36 35 34 33 35 36 40 48 81 90 93 95 43 40
71 69 83 91 96 85 97 99 99 86 74 74 53 36 20 20 21 24 27 27 27 35 43 42 40 38 38 38 38 40 41 40 38 39 40 40 45 84 88 88 94 59 52
78 76 78 83 85 91 94 95 84 57 64 71 64 54 38 23 22 23 24 26 29 35 40 44 48 52 51 47 44 42 42 42 42 42 43 43 42 69 84 73 69 62 53
85 86 88 90 92 88 91 96 86 67 51 57 63 58 49 44 36 25 26 28 32 36 38 41 44 44 47 47 46 46 46 45 45 44 43 44 44 44 72 84 57 54 52
83 85 84 73 73 65 66 81 75 59 51 52 52 54 54 49 48 48 33 31 38 43 58 68 65 71 73 74 68 65 69 66 63 60 60 56 50 47 48 50 54 54 55
76 83 80 71 67 53 49 51 50 49 49 57 55 50 58 59 62 65 64 53 57 66 70 75 79 81 81 81 81 79 80 79 79 80 79 76 69 60 54 51 52 55 62
65 82 78 77 79 75 71 59 59 65 68 67 66 59 67 74 76 77 75 74 74 77 79 80 81 82 82 83 82 86 88 88 86 86 87 88 87 82 76 67 58 54 59
67 82 84 81 78 77 74 71 70 72 74 75 74 76 76 78 83 85 83 80 85 85 84 83 86 88 86 86 88 89 92 94 92 88 89 83 77 77 82 84 81 70 59
68 77 81 84 84 80 81 80 79 79 78 79 81 80 80 80 84 86 85 85 90 91 92 93 91 93 91 91 92 93 89 87 85 84 85 80 79 82 84 86 85 81 71
64 67 72 70 80 78 80 82 83 82 80 78 75 76 80 81 84 86 89 91 91 93 94 93 92 90 88 86 84 82 81 72 81 83 81 85 84 83 84 88 87 80 77
64 64 66 69 73 76 77 76 75 71 76 76 76 80 84 85 87 90 92 94 96 92 83 79 80 83 82 80 86 73 71 78 79 76 78 76 77 77 79 80 82 81 76
31 50 51 57 63 66 66 69 70 71 72 73 73 78 83 83 83 84 80 76 84 91 91 84 87 88 86 84 89 97 95 82 75 77 79 77 75 76 80 83 79 74 73
27 29 35 37 44 51 57 63 68 75 76 70 66 74 80 84 88 89 86 86 88 90 89 88 93 85 80 86 81 92 93 81 82 79 81 80 77 79 84 84 83 80 82
28 28 29 32 35 40 48 58 63 57 49 44 42 43 48 52 55 55 54 53 51 51 51 52 53 57 70 83 92 92 93 98 100 96 95 88 86 88 78 78 78 73 75
32 32 33 34 35 35 34 34 34 34 33 31 31 31 34 36 37 38 37 37 37 37 36 37 39 44 59 93 85 88 88 80 84 100 96 87 97 73 82 80 76 74 81
32 34 34 33 33 32 31 30 29 28 28 28 28 29 29 30 31 32 31 31 30 30 30 32 38 41 75 97 90 95 93 88 87 100 98 97 98 96 79 83 82 80 78

GFSSE_850_rhum_054.txt.gz
RH
56 90 74 70 77 80 80 79 80 83 85 81 78 73 44 69 81 83 67 70 65 59 44 58 71 73 68 73 68 65 52 31 22 24 28 29 30 27 28 44 98 84 71
60 88 72 75 79 84 86 81 85 90 83 73 71 63 46 62 37 40 36 24 18 23 53 49 54 53 66 71 64 52 30 25 28 31 31 33 34 50 68 50 46 62 60
62 87 78 80 83 84 81 84 88 92 70 50 46 44 54 78 57 50 30 16 14 30 45 50 58 62 64 58 50 29 28 26 25 32 48 79 60 88 84 73 67 69 89
59 79 90 78 76 76 78 84 84 75 47 35 34 51 59 82 73 61 35 16 13 19 32 43 43 45 48 44 28 29 31 29 24 28 92 97 95 90 83 82 89 89 92
82 89 91 80 70 80 75 79 82 69 42 29 37 51 63 80 74 53 35 21 18 15 17 23 29 33 32 26 31 32 31 28 25 37 85 90 99 81 81 82 84 84 82
88 88 83 68 78 71 78 76 80 60 44 30 50 52 68 80 77 45 32 23 24 22 20 20 22 25 26 31 31 32 30 28 27 25 30 73 91 82 75 71 71 74 71
86 94 74 88 81 78 82 81 73 60 39 25 77 76 79 85 79 46 34 25 26 26 25 24 25 27 30 33 32 33 32 30 29 26 26 25 59 84 77 66 55 47 40
89 95 94 92 87 84 85 87 78 62 35 18 73 96 96 99 76 48 36 26 28 27 27 27 28 29 30 32 33 33 31 29 28 28 32 32 37 65 78 68 52 26 30
96 96 99 87 78 79 84 96 83 60 38 19 24 41 74 49 46 49 38 27 30 30 27 27 28 29 30 32 32 32 31 30 31 31 34 40 42 55 86 66 37 21 19
98 100 99 100 93 90 87 98 90 78 55 33 17 23 29 30 27 38 34 26 31 33 31 31 31 32 33 33 34 34 34 32 32 34 36 38 44 74 91 91 66 44 40
97 100 99 100 97 99 91 97 98 99 76 48 28 19 21 36 22 29 30 28 30 35 33 33 33 35 36 37 37 37 38 37 35 37 39 38 43 75 88 87 84 63 50
96 98 100 100 100 99 91 97 97 100 86 78 49 28 24 23 25 29 29 29 27 35 40 40 40 40 39 41 41 40 42 40 40 40 42 41 40 71 86 88 80 61 52
90 94 98 97 98 100 96 98 98 98 96 88 74 59 36 22 22 25 28 27 29 36 43 48 50 54 57 54 48 46 44 43 43 42 42 43 43 45 80 89 70 65 51
96 96 96 94 94 96 100 99 100 98 94 95 72 66 55 46 29 26 28 29 31 38 52 44 51 46 49 50 55 57 54 59 57 53 54 49 49 46 47 57 63 57 52
98 98 97 94 93 95 91 99 100 98 85 94 65 61 59 53 50 48 34 30 33 38 44 68 68 72 74 74 75 73 74 76 76 77 77 74 69 59 51 50 55 53 55
96 97 96 89 95 93 83 94 97 96 94 83 57 52 55 58 59 63 65 48 44 57 65 69 79 79 79 80 80 82 82 80 79 80 80 82 83 84 75 66 58 56 67
81 81 85 82 71 65 56 56 85 72 71 63 65 55 52 67 68 72 74 74 73 73 74 77 80 80 80 81 80 83 84 84 83 81 81 81 83 78 79 80 82 75 65
68 73 81 85 83 80 75 68 59 66 67 71 72 71 68 72 76 80 82 81 83 85 85 84 84 84 86 88 89 97 99 91 84 84 83 79 77 78 80 82 87 86 78
62 67 73 79 87 83 84 81 77 74 73 72 74 74 73 75 78 81 84 84 88 88 90 91 92 94 94 98 99 93 92 90 80 74 74 79 78 79 83 86 86 90 84
60 63 70 75 84 85 82 86 82 79 77 75 73 74 77 80 83 87 87 88 92 92 90 91 92 94 89 91 97 84 76 77 69 72 77 74 72 73 78 84 90 87 85
63 65 62 66 70 76 73 77 80 74 75 78 79 81 84 86 87 86 84 84 89 91 93 95 93 88 84 85 85 82 92 92 93 88 74 72 73 76 78 79 81 81 80
51 60 63 66 72 78 81 80 79 77 78 87 85 82 83 83 85 85 82 80 81 81 78 85 93 92 87 89 95 98 92 71 74 73 74 74 73 80 77 79 82 82 77
29 35 51 56 60 64 67 71 70 72 72 77 77 76 69 68 70 73 77 81 87 91 85 89 91 91 89 88 74 96 94 65 77 82 82 77 78 82 79 79 81 79 83
29 29 32 45 53 53 58 65 65 69 75 72 71 57 52 49 48 50 53 58 58 57 53 50 47 51 60 71 69 78 98 99 98 96 91 86 87 84 84 81 79 76 81
31 30 30 33 38 44 51 54 53 51 45 39 36 35 34 32 32 33 37 38 38 37 36 33 34 35 39 45 61 99 96 92 100 97 99 90 93 85 91 80 77 79 80
33 30 32 35 38 37 35 33 32 32 31 31 29 28 28 28 30 30 30 31 31 30 30 31 32 32 37 46 58 100 98 94 96 98 93 89 90 86 91 88 74 79 83

GFSSE_850_rhum_057.txt.gz
RH
85 64 67 70 71 72 72 82 85 86 84 78 74 47 69 84 80 62 60 59 51 63 89 94 77 65 67 67 59 35 21 21 26 27 30 32 38 38 51 86 97 81 56
80 62 66 70 76 77 80 84 88 85 84 82 67 51 81 61 38 29 21 18 23 40 51 52 50 55 66 56 38 23 24 26 34 42 50 58 83 69 59 62 62 81 92
79 76 70 70 78 79 81 85 90 97 83 55 52 72 70 50 43 24 14 15 32 43 43 46 58 58 49 38 24 26 25 24 50 84 87 90 90 75 73 82 86 90 80
75 82 90 76 79 78 82 85 86 84 44 39 48 69 86 68 53 27 15 14 23 33 40 45 44 42 36 25 28 29 26 24 53 90 93 94 84 82 80 87 77 77 66
73 85 87 81 74 70 80 83 82 57 40 37 51 64 78 76 56 35 21 16 15 20 29 33 35 32 26 28 27 27 25 24 35 88 97 93 98 76 74 70 66 69 62
72 79 62 76 72 73 67 77 81 51 35 38 50 63 85 79 63 40 25 23 20 18 20 23 26 26 29 29 28 27 25 25 39 46 87 88 99 87 67 55 44 38 34
69 91 71 75 84 75 71 68 51 46 27 50 57 70 87 86 52 37 26 25 24 23 22 24 26 30 29 29 28 28 28 28 41 34 40 57 53 75 60 46 34 22 25
72 95 71 75 80 79 80 73 56 46 23 64 83 91 92 95 52 42 28 26 26 26 26 26 27 29 30 30 30 30 30 31 59 35 39 38 36 45 53 43 24 18 18
76 85 91 89 90 88 90 85 72 45 24 40 85 91 91 66 47 41 33 27 30 28 28 28 29 29 30 30 30 31 31 31 48 34 64 64 40 51 65 55 50 45 39
78 88 98 98 96 86 90 96 84 66 32 23 47 56 42 32 38 37 30 25 30 29 29 29 29 30 32 32 32 33 34 35 47 48 65 36 38 56 83 82 70 58 47
90 88 96 96 91 99 96 96 98 86 59 30 21 30 31 61 24 42 32 28 30 33 32 32 32 32 34 35 35 37 38 47 46 43 54 38 37 48 85 89 77 64 49
87 93 95 91 80 94 95 93 95 98 89 62 39 21 57 80 78 73 30 30 27 35 37 37 39 38 40 44 42 39 40 43 44 42 46 39 38 42 77 97 88 63 50
81 94 91 94 85 87 99 88 96 97 98 97 94 81 71 65 33 28 38 30 28 31 41 44 44 46 62 52 48 52 48 44 48 50 52 42 41 42 46 82 70 59 57
78 79 81 91 93 93 94 89 94 94 87 94 95 94 79 56 35 73 77 78 61 81 89 95 89 86 80 62 79 76 73 69 67 63 62 66 64 57 50 57 56 54 57
85 86 90 98 98 95 96 96 96 93 88 87 92 97 91 83 56 59 71 71 74 78 82 84 92 88 90 91 91 90 84 81 78 73 74 72 76 74 70 60 56 67 66
92 92 95 96 97 98 98 96 94 94 85 84 88 93 96 93 83 70 85 76 72 77 85 88 91 94 94 92 92 92 93 92 80 77 78 78 73 78 78 78 75 71 70
100 98 98 97 98 99 99 98 94 95 85 85 88 93 93 92 91 87 93 93 91 85 88 91 94 95 96 97 96 94 95 95 95 94 93 88 81 73 73 75 77 80 80
97 99 99 100 94 92 90 92 91 86 88 88 89 93 86 65 75 95 98 98 97 97 96 96 97 96 95 94 94 93 90 90 91 92 94 96 96 86 81 77 81 84 86
95 85 89 90 86 93 97 96 94 89 92 89 90 93 97 82 80 83 97 98 97 98 99 99 100 98 98 98 96 94 95 91 91 92 94 94 95 97 80 82 83 86 90
94 92 66 75 82 82 91 92 97 95 95 93 92 93 97 97 97 97 98 99 97 99 100 99 98 97 100 99 97 91 90 89 87 90 94 92 85 88 82 81 84 84 84
88 95 73 67 74 81 95 89 94 96 97 97 98 96 93 92 98 98 96 99 100 100 100 100 100 100 96 99 99 79 84 90 83 89 84 83 81 81 70 78 78 80 83
57 91 93 68 69 71 94 91 94 95 98 98 98 97 88 95 100 100 100 100 99 100 96 97 100 100 99 99 98 99 97 72 68 77 74 73 78 78 81 77 80 83 85
36 63 92 94 82 95 94 99 95 88 81 77 80 78 78 72 78 78 80 83 85 95 90 88 96 99 98 98 98 99 91 70 72 74 81 86 84 83 89 85 85 88 81
32 30 46 62 59 61 66 72 75 78 82 92 84 66 72 69 62 57 52 47 45 47 47 48 48 48 51 77 97 99 99 98 92 87 85 86 87 86 85 90 95 90 82
32 31 29 32 40 50 64 72 80 83 79 73 71 60 44 38 35 33 31 29 30 33 36 38 37 36 36 39 79 99 97 96 99 99 97 80 87 83 87 94 96 87 71
39 35 31 31 33 35 38 50 62 62 55 44 37 34 32 30 28 28 27 27 28 29 30 29 31 33 38 48 52 98 87 84 97 99 97 95 89 84 94 93 98 77 66

GFSSE_850_rhum_060.txt.gz
RH
77 47 55 62 65 71 76 82 85 82 75 69 45 70 88 74 49 56 56 58 92 96 93 76 63 59 61 43 22 23 25 27 30 38 72 70 54 54 66 74 82 92 82
50 50 59 65 67 73 79 84 83 80 71 56 67 88 68 35 24 18 17 26 48 63 60 51 51 57 39 24 23 22 29 49 55 71 84 83 66 67 70 87 92 80 74
40 51 64 71 71 75 82 81 82 73 49 50 81 53 45 36 20 13 19 30 44 80 74 53 48 35 24 25 24 22 36 78 89 90 95 84 71 75 87 83 68 66 74
37 50 61 75 76 79 78 78 73 47 39 51 86 78 57 45 24 15 18 30 40 43 45 38 33 25 24 25 24 22 30 75 91 97 92 82 80 78 74 60 65 65 55
50 52 70 78 78 78 78 71 50 34 37 52 79 77 70 48 28 19 16 18 28 33 32 30 24 24 25 24 24 25 27 39 80 87 97 96 93 65 54 45 38 36 35
81 70 76 81 79 78 76 67 46 31 36 51 66 80 71 52 30 22 20 18 18 21 24 23 24 25 26 26 27 26 30 33 34 52 78 86 80 60 46 36 21 21 22
84 80 81 75 72 72 70 62 38 28 35 48 65 84 74 56 32 24 23 22 21 21 22 24 26 26 26 27 28 28 29 31 34 35 36 37 38 48 45 28 20 18 15
77 82 66 78 84 74 74 54 42 25 40 55 73 92 88 58 40 28 25 25 24 24 24 25 26 27 27 28 29 29 30 37 38 40 56 44 40 43 48 38 41 39 35
82 81 66 84 76 80 80 66 52 26 46 57 83 92 87 38 39 31 26 27 26 26 26 26 27 27 28 29 30 31 31 33 33 42 57 43 40 48 61 63 56 51 43
83 84 78 82 79 84 85 85 60 34 32 74 87 82 50 32 38 34 25 26 27 26 25 26 27 28 29 31 32 33 34 34 35 43 46 41 37 45 70 79 74 58 44
84 80 88 92 92 86 89 94 85 60 31 38 53 53 42 35 23 35 30 24 29 29 29 29 29 30 32 32 34 35 35 34 39 40 39 40 37 40 70 80 82 68 47
85 87 86 92 87 92 96 92 96 78 57 35 22 23 34 86 58 25 29 28 24 31 34 34 36 37 37 34 36 40 37 39 40 42 42 42 39 40 45 76 79 67 50
73 76 88 86 95 81 84 89 92 81 83 90 68 36 64 71 57 40 30 28 27 27 33 41 44 46 38 45 48 51 59 54 57 56 56 58 58 55 50 46 53 52 52
77 76 90 83 93 90 87 91 88 75 96 88 98 82 74 55 33 36 50 40 31 33 47 68 62 84 76 63 72 72 71 70 68 67 66 66 69 69 68 63 58 58 60
78 81 80 86 84 83 84 86 87 85 88 86 93 85 87 71 51 36 51 58 50 59 70 76 76 81 87 90 90 87 86 80 78 78 71 68 68 75 77 78 75 69 67
78 82 82 83 83 84 85 83 89 88 90 85 88 87 83 90 69 53 64 59 56 57 61 72 78 93 91 91 93 93 91 91 91 83 84 82 80 75 75 80 77 76 76
83 84 83 91 91 90 88 90 89 92 87 85 86 88 88 79 83 81 80 91 81 72 72 83 86 81 80 78 80 86 90 89 89 84 84 90 94 94 84 78 80 86 85
93 94 93 91 90 91 88 91 92 90 87 87 87 89 89 76 72 84 84 87 91 97 91 82 82 90 94 95 88 85 87 83 87 92 87 93 96 96 98 93 88 87 91
94 96 93 94 94 90 94 86 85 90 89 82 88 92 93 79 81 83 88 94 96 92 95 98 98 97 96 92 94 93 90 93 79 72 70 69 74 92 92 97 85 86 90
92 95 96 98 86 93 90 94 90 86 87 88 90 92 93 95 92 92 92 97 97 98 97 98 98 94 95 94 97 100 89 81 84 73 63 74 89 86 85 81 74 79 83
91 92 87 80 80 85 88 89 96 90 91 92 93 94 96 99 99 100 95 99 99 96 97 97 95 99 98 99 100 100 99 86 76 70 80 83 84 84 76 79 82 84 84
70 82 92 74 74 78 82 81 88 92 88 87 90 91 95 96 99 97 98 98 94 96 98 98 99 98 96 94 95 94 89 83 66 63 79 84 75 73 79 81 85 88 86
44 73 86 89 80 81 81 88 94 96 96 94 96 95 99 96 95 89 87 90 91 99 99 96 95 97 97 97 95 98 87 82 82 78 79 78 78 81 88 89 87 84 83
37 46 72 85 96 96 94 89 72 67 81 86 90 90 77 70 77 80 72 59 50 43 37 35 37 42 48 57 74 85 98 98 84 79 77 82 78 86 82 83 90 93 81
33 33 36 59 69 64 66 67 66 70 85 86 94 91 82 78 57 40 36 33 30 28 29 33 37 38 39 42 52 74 97 95 96 92 86 81 84 76 83 85 90 99 91
34 32 31 31 43 64 64 65 70 70 75 79 81 79 55 37 32 30 28 28 28 28 30 30 32 35 38 44 73 95 97 95 86 85 88 89 86 77 86 85 88 92 84

GFSSE_850_rhum_066.txt.gz
RH
71 72 66 68 70 72 74 74 72 47 64 84 74 60 48 78 90 92 87 88 85 76 67 52 37 19 21 24 28 50 68 67 60 62 65 73 88 89 79 58 69 68 66
59 63 65 69 71 76 78 74 57 46 80 86 48 21 24 53 88 93 96 90 77 62 44 30 20 20 30 38 44 55 67 71 68 66 71 87 80 59 47 39 44 64 81
54 67 66 69 77 80 77 67 50 79 89 64 26 16 13 26 49 82 97 78 62 39 25 20 21 21 34 47 58 68 70 71 72 69 68 58 42 34 27 26 28 31 39
53 63 65 73 80 77 74 60 47 91 85 37 28 14 12 15 19 42 60 47 31 24 21 22 24 22 32 44 53 68 66 76 70 58 54 47 39 30 22 20 20 20 22
55 59 69 72 77 76 67 46 45 74 51 43 28 16 13 19 21 23 22 24 24 21 22 23 24 24 25 31 37 43 47 51 59 52 55 47 42 27 19 18 16 15 13
61 64 78 78 77 66 45 36 50 75 66 58 29 20 16 16 20 20 20 21 20 21 23 24 25 26 27 29 31 30 33 36 40 38 36 36 43 32 32 36 37 35 26
71 76 80 80 76 64 44 37 49 71 77 67 36 24 20 17 17 19 20 20 20 22 24 25 26 27 28 28 30 33 35 33 39 43 38 38 42 47 45 47 45 40 38
78 84 86 81 78 61 45 37 46 60 78 83 48 33 24 22 20 20 20 21 22 24 25 27 28 29 29 29 30 31 34 32 35 39 38 36 38 45 55 63 58 48 40
79 84 88 83 78 68 43 31 41 51 72 90 63 46 31 25 24 23 22 22 23 24 25 26 27 28 29 30 31 32 34 32 33 35 39 40 38 41 49 63 72 75 49
78 86 86 78 76 65 44 28 34 45 66 89 70 35 30 29 25 25 24 24 24 24 25 26 27 28 30 32 33 33 34 34 34 36 39 41 40 41 44 49 59 71 59
89 82 71 84 79 68 52 35 34 45 55 72 62 36 31 30 28 25 27 27 27 26 27 27 28 29 30 31 32 33 35 40 41 45 49 51 52 54 52 51 53 56 59
94 87 69 80 80 76 66 45 32 49 48 68 63 41 28 28 30 32 28 25 29 29 30 30 32 34 35 36 37 39 49 52 51 54 55 59 62 66 67 64 61 61 62
85 81 71 82 81 81 70 58 44 32 59 67 58 35 27 40 34 30 32 29 26 28 32 35 36 36 40 44 47 57 56 56 57 58 61 64 67 69 70 74 73 72 70
95 86 81 81 84 88 85 68 59 54 34 30 27 24 24 32 37 33 29 31 28 28 31 36 42 41 56 63 65 66 62 64 69 70 72 74 77 81 84 80 78 81 81
69 83 84 83 78 84 86 88 85 74 64 54 63 46 41 42 44 34 31 36 37 34 36 41 47 53 64 71 73 76 78 76 77 80 81 80 85 90 91 90 90 87 85
61 69 90 83 79 80 85 88 88 88 74 73 78 74 75 65 59 49 36 37 42 41 45 51 60 69 75 78 82 83 84 84 86 83 85 84 86 87 85 86 86 92 90
79 71 75 81 83 77 94 84 79 82 84 86 86 86 87 79 69 58 46 48 54 57 57 61 69 77 80 85 87 88 86 80 81 82 87 83 81 76 81 91 81 79 88
66 73 75 62 85 78 82 80 77 81 86 84 85 87 86 83 68 67 62 62 79 81 80 80 82 84 86 90 89 87 87 87 85 84 91 90 95 86 91 89 77 81 86
71 70 62 67 74 84 81 73 77 85 83 83 83 84 87 84 81 68 70 77 85 89 90 92 94 94 89 89 88 88 89 91 92 93 84 94 97 96 85 79 78 86 82
78 76 81 82 85 82 82 84 83 85 87 84 83 84 88 87 89 82 76 84 90 94 92 92 91 92 92 90 87 76 87 81 88 80 82 80 90 96 80 82 87 82 71
73 78 78 81 79 80 81 85 85 84 85 87 86 86 88 88 94 94 88 91 92 91 92 94 95 93 86 89 83 84 78 81 73 75 74 73 81 79 84 79 83 70 72
56 64 71 72 80 82 83 85 85 87 87 91 88 88 83 86 90 92 93 93 95 96 97 96 96 94 94 96 91 89 90 76 72 72 64 60 81 75 86 82 73 68 69
45 45 54 55 63 67 72 73 86 92 91 91 92 85 87 90 90 94 94 96 96 98 98 99 98 98 94 83 86 93 93 84 78 77 76 83 81 86 84 79 71 70 70
41 39 46 56 58 65 69 74 76 75 77 78 77 86 88 93 94 95 98 97 100 99 99 99 98 71 60 38 38 40 59 96 90 91 80 80 82 86 83 84 80 80 79
40 40 49 54 57 62 68 69 70 73 74 70 71 71 82 85 82 74 72 83 88 87 59 38 33 30 31 33 34 38 46 55 74 100 90 76 81 80 78 84 92 88 86
41 41 40 51 54 55 62 65 69 71 73 73 73 72 69 60 62 64 66 74 45 33 30 30 30 30 32 36 40 44 49 64 63 79 92 91 86 91 90 92 97 94 93

GFSSE_850_rhum_069.txt.gz
RH
78 73 72 70 71 71 73 67 48 52 78 60 54 72 83 84 78 86 91 86 78 73 58 35 18 20 22 34 50 54 52 55 60 71 84 81 65 44 40 75 66 83 84
70 69 70 69 71 76 77 63 45 78 86 63 49 59 86 85 84 86 84 78 68 51 30 18 19 24 30 41 49 57 58 55 60 73 62 47 33 28 27 30 42 83 86
72 68 68 70 72 80 68 46 51 86 77 28 19 41 83 92 92 91 82 67 48 24 18 19 23 31 37 44 45 47 56 54 56 56 42 35 28 21 19 19 21 27 38
66 69 72 73 79 77 63 43 73 89 51 21 13 18 52 79 97 91 73 58 23 18 19 20 23 30 28 30 36 42 47 46 46 46 44 37 25 19 19 17 16 16 19
71 77 78 79 77 72 56 53 88 79 30 20 12 13 18 43 54 55 39 24 18 20 21 22 24 28 27 27 29 32 38 41 42 39 36 38 31 28 32 34 34 29 19
88 82 80 80 76 74 50 50 85 47 34 21 14 17 19 20 20 20 20 20 20 22 23 24 24 26 28 30 31 31 31 33 37 37 36 38 42 38 43 44 40 38 38
90 81 78 80 76 66 42 47 73 50 35 25 17 16 18 18 19 20 20 20 22 24 24 25 26 27 28 31 34 36 35 38 43 39 35 36 40 48 54 56 55 43 38
83 84 83 82 72 54 39 52 78 74 53 33 21 18 17 19 20 21 22 22 25 25 26 26 27 27 28 29 31 32 33 34 36 37 37 35 36 40 50 58 65 68 46
79 85 83 82 74 52 39 48 77 92 74 52 30 23 21 20 21 22 23 24 26 28 28 29 29 30 30 30 31 32 32 32 34 36 38 39 40 42 45 50 54 60 56
85 89 86 88 81 67 42 43 57 83 88 77 46 30 25 24 23 23 23 24 25 27 28 29 30 31 32 33 32 32 32 34 38 42 45 47 50 53 53 52 55 57 60
90 92 90 85 82 65 44 37 49 64 90 85 60 33 28 26 26 26 26 26 27 27 28 29 31 32 33 33 34 35 36 43 44 50 53 56 59 63 65 63 62 62 62
90 88 86 74 75 63 50 33 48 56 82 84 59 44 34 31 27 27 29 30 29 29 29 29 31 33 36 39 40 42 53 53 53 54 56 59 63 66 71 73 72 71 70
96 96 83 75 72 68 57 36 52 53 63 74 72 49 38 35 35 33 30 28 31 32 33 34 37 40 42 48 48 60 60 58 60 64 66 70 73 78 83 85 81 78 79
79 96 91 90 75 76 71 53 33 55 62 74 73 59 31 43 46 39 38 31 29 30 33 39 44 48 59 68 69 69 66 68 69 73 78 80 85 88 90 86 80 74 70
51 91 94 96 86 81 81 70 63 53 37 43 46 34 28 36 49 44 35 38 37 33 41 47 51 58 68 72 74 73 72 75 81 83 83 86 87 85 86 83 84 81 72
46 57 55 74 93 77 77 82 81 80 75 56 51 52 47 51 55 55 39 43 44 44 49 55 59 66 75 78 81 83 84 84 83 80 78 84 83 79 79 73 75 77 71
51 60 47 63 94 91 88 62 67 72 84 77 72 73 73 80 69 64 58 46 52 50 54 57 63 72 78 82 84 88 87 85 81 78 83 84 83 82 78 75 82 79 73
54 66 67 59 51 73 82 79 73 70 80 80 80 83 82 83 85 74 68 50 58 68 71 71 76 80 86 89 89 84 83 88 87 85 88 84 96 90 88 92 87 80 79
68 71 79 65 65 54 66 74 68 88 84 82 84 83 82 87 90 85 72 64 70 81 84 89 90 91 89 84 86 87 85 79 82 78 84 79 85 83 87 93 76 79 85
76 73 71 74 60 64 64 65 70 76 88 86 82 84 85 87 91 92 83 74 79 89 88 89 88 89 88 88 87 87 85 80 76 80 74 78 77 79 89 92 79 86 82
74 74 78 77 76 81 84 78 88 84 84 85 84 84 83 85 90 95 97 82 89 95 90 90 91 91 92 87 88 83 82 76 77 62 67 68 71 78 83 80 76 78 71
73 68 74 75 78 76 76 73 82 82 83 81 81 86 86 87 86 83 87 88 88 88 92 91 87 90 92 91 90 93 91 80 59 66 66 68 62 80 76 71 81 74 69
56 66 69 72 69 78 78 81 84 84 82 83 82 85 86 89 86 88 92 92 93 92 93 95 96 95 97 94 94 96 93 80 78 75 78 77 78 80 73 75 80 75 73
37 43 54 56 64 67 71 69 73 72 65 74 69 79 85 83 82 81 85 84 83 86 94 98 96 98 100 85 56 46 49 67 95 87 86 88 91 92 81 82 81 82 82
38 38 40 46 52 64 63 64 69 71 70 73 76 81 74 76 77 83 86 76 80 64 66 68 91 65 40 33 33 34 38 48 62 84 95 82 92 86 90 81 78 85 82
37 40 40 44 47 52 53 60 58 65 66 75 78 84 76 74 72 82 80 74 64 63 71 50 32 30 30 32 33 39 43 50 59 70 82 97 98 93 93 92 83 88 90

GFSSE_850_rhum_072.txt.gz
RH
82 75 80 69 67 68 65 55 41 68 62 62 69 62 52 37 50 73 85 80 72 67 34 17 18 23 36 40 39 42 49 61 78 64 48 37 33 33 32 76 79 81 78
76 75 78 66 66 66 63 47 58 82 58 52 76 87 81 78 82 89 84 74 64 33 16 18 22 29 37 42 41 41 48 55 49 41 36 28 22 21 21 24 27 51 76
71 75 78 66 68 78 60 43 79 86 62 44 69 82 83 84 87 81 74 61 34 17 18 23 30 32 33 38 43 42 44 44 42 39 33 22 20 19 17 17 17 19 30
71 75 78 72 72 76 52 46 81 84 34 21 53 88 89 88 84 80 62 38 17 18 20 27 30 29 31 33 37 43 41 41 40 37 37 26 27 32 34 34 30 20 16
73 79 80 74 77 71 43 56 85 69 23 15 30 78 92 92 85 72 54 19 18 19 22 27 27 27 28 30 32 34 34 34 33 33 36 38 34 40 42 38 36 37 36
77 84 79 80 80 67 44 83 84 41 21 12 14 47 69 77 60 46 21 18 20 22 23 26 28 29 28 30 31 32 34 36 35 32 33 36 41 46 50 54 50 41 38
81 80 83 82 75 65 48 86 82 33 19 14 17 17 30 40 23 19 19 21 22 24 25 26 29 31 31 33 33 32 33 34 35 33 32 35 38 45 53 57 64 57 46
81 82 83 83 74 66 50 82 63 39 24 16 19 20 19 18 18 19 20 23 24 25 27 28 29 30 31 34 35 35 35 35 36 38 38 38 40 44 49 52 53 58 51
82 84 85 83 71 51 49 78 76 58 35 21 18 20 21 20 21 21 22 26 27 27 28 29 30 31 32 33 34 35 35 36 38 41 43 46 49 50 52 54 56 58 58
84 85 88 82 72 48 44 75 88 75 61 38 25 20 20 22 24 24 24 26 28 29 30 31 32 31 32 34 35 35 35 39 42 47 50 53 56 60 62 64 61 60 61
89 90 88 85 77 53 41 57 88 93 83 63 41 29 26 24 24 26 27 28 28 29 30 31 32 33 34 34 34 37 40 47 47 51 52 56 60 65 68 71 70 67 68
95 94 87 87 80 66 42 44 69 90 93 85 50 35 29 28 28 29 29 30 31 30 31 32 33 35 36 37 40 41 55 54 54 57 60 65 69 75 78 81 76 73 74
95 95 88 83 80 67 46 35 49 70 96 87 58 44 38 35 29 29 31 31 31 32 33 34 36 40 43 44 46 61 61 60 62 67 74 79 82 86 87 78 76 70 72
98 95 96 88 82 74 54 37 44 53 76 90 74 52 40 38 39 38 35 33 32 36 37 39 43 46 55 66 70 71 70 71 73 81 84 86 86 89 85 84 82 78 81
94 92 98 94 93 86 73 55 36 55 59 67 79 75 52 40 51 47 44 39 35 32 35 42 49 52 62 72 74 76 77 79 81 82 82 82 84 81 78 76 73 77 81
63 65 58 68 75 93 84 81 62 50 44 58 76 71 42 35 50 56 49 40 47 41 47 51 54 60 69 74 76 78 81 84 83 80 78 81 81 76 79 75 78 72 79
58 61 60 55 46 60 82 75 78 82 74 69 50 48 54 56 70 72 68 50 54 55 54 59 62 68 74 78 80 83 88 83 82 83 79 82 81 80 86 77 82 79 83
71 72 52 49 58 52 64 74 86 78 71 74 80 79 79 79 85 84 75 70 59 62 63 65 70 76 82 86 84 84 85 83 80 79 79 76 83 79 81 84 90 87 74
59 53 54 56 55 51 78 77 75 78 81 78 70 73 83 85 89 90 86 76 64 68 82 84 90 92 91 88 85 84 88 85 80 78 79 77 79 72 78 79 79 78 79
56 53 56 68 56 68 80 78 74 68 78 77 76 90 87 81 85 89 92 90 83 80 87 92 91 86 89 87 86 84 82 79 86 73 80 73 80 75 76 81 92 78 80
62 69 66 69 59 69 60 67 69 76 70 66 76 90 84 82 86 87 89 95 92 91 92 88 91 91 88 88 89 82 82 80 62 52 48 50 61 62 70 90 76 71 74
64 69 75 85 81 79 71 68 63 54 58 60 71 87 84 82 85 85 93 90 88 92 89 88 87 85 82 90 86 91 88 76 54 55 62 66 67 63 81 86 72 72 72
53 67 69 71 78 82 87 82 77 75 77 77 84 85 85 80 87 86 88 89 84 83 84 86 83 86 85 93 97 98 85 79 70 63 68 77 78 76 78 79 76 74 76
42 42 58 68 73 75 80 86 100 92 87 94 93 90 79 81 80 76 82 81 84 85 86 83 81 95 90 94 98 82 63 62 70 71 75 80 85 86 84 84 78 79 77
40 38 38 44 58 61 63 65 66 73 80 70 64 74 88 88 87 85 78 78 82 87 78 73 70 60 61 77 40 36 38 40 50 76 74 66 90 85 84 90 80 82 78
38 36 38 40 43 55 57 61 62 63 68 69 75 74 67 80 73 77 84 81 85 74 70 77 66 66 50 32 33 35 39 42 53 65 82 78 92 91 92 94 91 91 85

GFSSE_850_rhum_075.txt.gz
RH
78 77 77 77 73 72 66 57 39 68 54 67 27 39 61 58 58 63 81 77 71 46 16 17 27 37 34 36 42 55 52 49 34 28 24 22 24 35 45 57 74 83 65
75 73 77 74 66 64 60 46 64 66 56 80 63 34 61 50 56 73 79 74 58 19 18 22 37 37 34 36 41 44 39 36 32 26 21 20 19 19 20 23 30 49 80
73 76 79 69 64 62 57 40 78 57 57 84 83 73 63 76 83 82 76 61 21 18 22 28 33 35 36 36 39 39 39 40 37 27 23 25 29 30 28 24 18 20 26
72 79 78 74 69 68 53 56 81 64 50 76 84 84 84 90 84 75 61 28 17 21 29 32 32 33 35 38 37 37 36 34 34 35 30 35 38 39 36 35 34 33 25
77 78 78 74 74 70 46 72 85 45 32 66 87 86 88 83 80 62 34 16 18 26 31 31 33 33 35 38 38 38 37 36 36 38 40 42 46 50 50 45 38 36 36
79 78 80 78 78 64 45 76 86 40 19 41 88 92 90 87 75 54 18 18 20 26 29 30 29 33 38 38 37 37 39 37 34 35 38 42 44 53 57 60 52 43 42
82 82 84 81 79 60 66 81 83 30 16 20 78 95 98 81 63 32 17 21 22 25 28 29 31 32 33 34 36 37 37 37 36 35 37 39 44 50 52 51 53 49 48
79 83 85 87 77 54 79 86 76 32 16 14 38 70 72 56 27 19 20 23 24 25 27 29 31 32 33 34 34 36 35 36 39 39 40 43 46 50 51 52 53 54 54
80 84 87 90 80 56 83 83 59 37 20 21 20 30 41 27 20 21 23 26 27 28 29 30 31 32 34 35 34 33 35 39 42 44 47 50 53 55 56 57 57 59 58
83 81 85 88 77 59 62 80 68 50 31 21 26 29 35 24 24 24 27 28 29 31 32 33 33 34 34 36 36 37 39 42 46 49 52 55 58 62 64 64 65 64 66
91 88 85 89 76 49 51 85 78 70 53 30 23 26 29 29 27 26 28 30 30 32 32 33 33 34 36 36 36 38 46 49 49 52 56 60 65 69 73 72 70 70 69
92 91 92 84 74 51 48 85 90 86 75 58 34 26 25 26 27 28 28 30 31 32 31 32 33 34 35 36 39 42 55 54 55 59 64 70 76 82 82 72 67 67 68
99 94 94 87 77 61 43 62 84 93 85 81 50 34 30 30 29 29 29 30 31 32 32 33 34 35 39 42 42 54 59 58 62 66 72 77 82 85 80 84 80 79 79
98 100 89 90 84 75 51 41 60 83 97 82 66 49 44 36 32 32 32 33 33 33 35 36 39 45 48 55 62 68 67 66 68 76 80 82 84 85 81 78 73 73 82
99 100 99 96 85 83 61 46 45 56 74 99 84 54 46 45 43 43 41 40 38 37 39 43 49 54 58 69 73 73 72 73 77 82 82 76 76 80 76 76 72 72 76
73 85 93 99 90 85 79 64 42 57 59 66 81 78 73 50 51 58 53 47 43 39 37 43 57 62 69 75 78 78 79 80 82 81 80 80 76 78 76 80 78 71 72
74 85 77 76 84 75 69 76 69 56 56 66 74 81 83 59 42 55 61 62 49 54 49 54 59 64 71 78 82 83 86 83 80 81 76 79 79 72 76 78 83 81 85
61 70 67 76 83 73 67 76 78 79 77 70 62 59 58 61 62 80 78 72 64 65 60 61 64 69 77 84 85 83 85 87 85 84 81 80 77 78 72 76 79 77 78
65 65 68 64 64 75 66 60 80 74 76 82 89 83 82 91 90 91 89 82 80 65 66 67 70 79 92 90 86 84 86 84 84 85 79 75 79 79 80 77 77 79 78
81 76 73 69 64 70 61 61 71 75 72 70 76 75 81 80 90 88 89 91 85 72 72 87 91 91 85 85 87 86 87 82 83 75 72 66 54 53 64 68 81 84 76
84 77 67 64 70 62 58 68 76 73 61 62 58 75 71 82 80 86 88 92 94 85 80 90 91 85 86 84 84 82 82 83 58 52 40 41 43 50 58 65 92 78 74
91 80 70 71 83 78 71 72 61 66 66 72 72 66 65 71 88 86 85 88 88 91 88 87 87 84 84 84 82 84 83 79 58 54 52 60 61 59 58 75 85 77 74
69 68 74 75 66 57 71 82 84 81 87 87 83 86 73 82 95 96 86 81 87 90 82 83 85 84 82 80 87 87 85 81 84 59 53 54 69 69 66 77 81 81 80
48 58 62 72 75 73 76 79 84 87 99 95 99 97 93 99 97 83 84 85 84 82 84 87 90 85 81 83 89 90 91 88 90 72 51 66 66 76 80 81 86 88 79
42 43 43 45 70 74 81 84 87 94 86 76 74 73 74 73 81 83 88 90 86 86 86 93 88 75 75 73 65 43 34 36 37 48 75 56 69 79 90 82 76 87 85
41 41 39 40 42 63 66 68 72 76 82 89 84 80 77 85 75 73 68 85 91 88 97 93 81 74 77 76 61 34 33 35 41 51 60 52 64 74 92 92 83 91 88

GFSSE_850_rhum_078.txt.gz
RH
89 99 81 79 77 66 68 64 47 42 53 35 34 60 68 59 65 64 74 77 64 17 18 26 33 34 44 56 62 51 33 27 24 21 21 25 28 45 53 53 96 93 86
89 99 77 79 75 68 70 56 41 62 71 44 23 55 58 55 72 71 82 75 35 16 24 62 46 33 39 44 37 35 32 27 21 21 21 21 21 21 22 31 40 79 86
91 99 78 80 70 68 62 48 62 58 72 58 38 55 58 61 69 83 82 63 17 20 32 37 34 35 39 40 38 40 39 32 24 27 48 59 36 34 31 25 22 21 34
94 100 98 79 65 62 58 41 62 57 85 76 43 62 64 75 77 82 71 24 19 26 34 34 35 38 40 41 40 38 36 36 32 38 81 86 46 37 36 35 35 32 27
98 100 99 78 68 64 51 56 61 52 81 88 78 70 78 90 86 73 40 18 24 31 33 32 36 38 39 39 38 36 36 35 37 48 53 89 89 54 53 42 40 38 36
99 100 88 77 73 69 48 76 77 52 60 88 90 91 92 93 74 48 19 20 30 34 36 36 36 35 36 36 36 37 35 34 37 65 67 68 90 53 50 50 45 44 43
97 99 82 78 78 66 57 80 78 28 40 90 92 90 91 81 64 27 18 23 33 34 34 35 38 38 34 34 36 37 35 36 62 61 87 94 63 50 50 51 50 49 50
98 98 98 84 80 58 67 78 85 28 22 93 97 95 96 90 58 18 21 25 33 34 36 36 35 34 35 35 35 36 37 38 49 45 54 88 48 51 53 53 56 55 53
98 100 96 86 85 62 68 86 73 28 16 66 100 100 100 73 44 19 23 24 29 33 32 32 33 34 34 34 35 35 38 41 68 53 66 86 53 56 61 60 61 61 60
99 100 100 99 95 77 91 88 65 30 16 19 88 100 93 52 28 23 26 27 26 28 30 31 31 33 33 33 34 36 40 42 50 49 53 62 60 62 66 69 67 69 67
99 99 99 98 100 95 90 84 64 46 25 27 31 71 51 48 28 27 30 28 30 31 32 32 33 33 34 35 35 37 46 46 50 54 60 61 66 73 74 67 62 61 60
85 99 98 99 100 94 97 83 82 64 48 45 52 68 91 91 84 70 32 33 34 35 35 35 35 35 36 36 38 40 55 53 56 60 66 70 76 78 75 79 73 76 75
85 98 96 96 97 84 68 86 82 82 92 86 68 45 83 66 32 32 36 36 37 37 37 37 36 37 38 41 42 49 59 57 69 66 70 76 80 82 80 78 73 72 80
78 94 99 97 89 63 56 92 90 81 82 83 47 34 30 30 29 31 32 33 33 35 34 36 43 38 40 44 58 76 76 82 82 74 84 80 81 81 80 74 72 75 78
84 88 96 96 87 72 48 59 85 89 87 84 67 47 42 35 32 33 34 35 35 35 37 36 39 48 56 75 77 87 89 88 87 89 89 79 78 76 76 79 70 76 71
60 70 89 100 95 82 53 42 52 74 86 94 93 60 54 49 46 43 44 42 44 40 38 46 72 83 86 83 92 92 91 91 90 89 86 86 78 75 75 77 82 79 76
71 71 71 98 99 93 78 62 41 46 54 77 91 93 85 81 56 60 75 66 56 51 44 45 60 68 88 94 93 91 90 88 87 86 88 87 90 83 73 72 71 75 81
56 60 76 90 93 97 86 87 66 52 59 64 66 76 83 97 84 56 70 66 74 55 57 53 73 85 87 88 88 88 89 85 84 82 86 88 88 93 93 84 78 78 79
68 91 83 75 75 80 72 70 86 84 80 75 70 64 59 56 58 62 84 85 81 70 63 62 69 84 85 90 92 86 85 85 83 85 84 88 95 78 87 90 78 78 79
70 83 78 81 85 74 73 74 75 82 82 81 80 77 76 77 82 87 90 94 91 83 71 68 77 81 89 90 89 82 85 84 84 86 80 58 44 39 45 60 67 78 82
75 75 71 66 68 66 66 78 73 72 70 67 73 70 72 77 81 85 84 94 98 90 80 66 81 92 93 84 84 85 86 80 87 64 44 39 40 40 53 60 88 92 81
80 83 83 82 85 83 77 73 77 77 82 77 79 74 78 78 74 77 82 86 97 98 89 79 93 94 81 83 90 82 78 72 78 46 50 39 41 49 50 57 78 92 80
94 92 88 96 85 82 68 73 70 85 82 70 84 91 94 88 77 75 74 90 95 100 94 86 82 85 88 84 79 82 75 64 79 72 51 45 42 56 54 54 81 91 84
82 83 88 85 83 82 84 81 79 75 82 81 87 83 88 94 96 88 79 80 94 99 99 100 93 92 88 88 87 85 84 91 80 60 72 56 52 61 65 70 74 84 86
59 57 71 77 81 81 90 92 85 85 85 87 77 78 91 99 82 80 73 86 95 100 99 96 94 89 97 91 82 72 70 45 40 72 62 60 78 62 58 64 82 79 77
47 47 48 48 61 77 76 79 78 84 88 82 88 92 81 82 79 80 81 92 89 92 90 92 99 100 93 84 77 79 62 59 56 50 73 68 77 83 81 69 86 92 82

GFSSE_850_rhum_081.txt.gz
RH
80 94 86 76 66 62 60 61 57 50 46 62 67 68 68 62 67 72 88 74 48 16 19 29 54 80 95 78 50 27 24 22 22 27 34 33 41 52 60 92 98 95 85
78 92 87 76 72 65 63 63 50 37 46 36 54 69 71 61 69 62 79 68 20 21 44 35 40 56 72 42 31 28 23 21 21 22 22 22 21 23 28 45 66 75 63
75 91 90 81 76 65 65 59 40 61 63 43 50 61 67 59 73 67 77 58 17 66 97 67 39 47 40 35 35 32 24 24 33 41 54 37 33 31 28 26 23 25 29
74 85 99 81 78 66 64 52 56 59 78 32 56 56 60 56 76 81 77 29 23 69 83 34 40 44 40 38 36 34 32 30 47 79 79 86 43 37 36 36 34 32 27
81 82 95 84 79 65 58 44 66 67 82 37 60 61 62 73 69 82 63 20 43 87 38 41 41 41 40 39 36 33 35 38 58 86 91 98 81 52 46 42 41 40 38
97 92 93 84 69 63 56 44 62 68 88 69 64 65 75 82 86 76 28 22 36 36 40 43 44 43 41 38 36 34 34 43 79 92 96 91 55 50 50 47 46 46 45
95 93 92 81 73 67 52 60 61 55 86 88 72 79 91 98 80 52 19 27 33 38 40 42 40 38 35 35 34 35 36 49 86 91 92 96 50 49 50 51 50 49 51
91 91 96 81 76 75 54 73 74 41 78 91 95 95 96 90 60 27 21 32 36 38 39 40 38 35 34 34 34 34 37 41 78 89 95 68 49 53 53 54 54 54 52
98 97 91 90 87 79 63 78 84 36 48 92 99 99 96 95 55 20 24 37 38 37 37 36 35 35 35 33 34 35 37 48 75 79 88 84 52 54 59 61 62 62 60
100 98 98 95 98 86 76 87 89 40 22 97 97 98 100 96 54 21 24 35 39 38 36 34 35 36 35 35 34 36 39 43 70 51 78 57 57 60 67 64 63 62 57
92 97 99 94 98 98 91 94 86 40 20 81 100 98 100 82 41 24 27 29 36 35 34 34 33 35 35 36 35 36 44 57 68 69 72 59 62 68 68 68 66 67 63
75 73 96 100 96 97 84 98 71 40 26 41 97 100 96 79 87 83 34 32 31 32 33 33 34 34 35 40 36 37 53 58 60 66 71 63 71 74 72 72 69 71 80
74 67 75 83 96 87 83 97 98 68 80 87 91 76 89 90 90 91 44 35 35 36 36 35 36 35 37 58 59 56 64 69 68 75 69 70 74 78 80 76 76 72 77
69 62 57 71 87 96 85 90 93 86 80 80 88 88 84 89 89 90 76 47 48 38 56 39 46 56 63 62 62 64 72 78 76 79 80 76 79 78 78 78 80 74 80
54 69 70 63 88 97 84 86 86 89 86 87 83 82 87 93 72 81 78 74 62 54 65 63 66 62 63 68 72 74 79 79 78 79 82 84 78 77 75 77 76 81 79
55 60 66 80 98 100 80 87 88 87 95 93 94 83 86 80 54 69 76 74 56 54 50 65 65 68 68 76 81 82 82 81 80 79 80 80 81 78 75 70 70 72 79
59 71 70 66 94 99 88 88 93 94 92 86 95 94 95 89 55 46 56 45 49 74 68 70 69 74 79 78 79 80 81 78 79 78 77 79 78 82 83 82 76 68 72
65 62 64 57 78 99 76 66 88 99 96 91 92 85 67 61 59 51 63 83 89 88 81 70 76 81 85 82 82 79 79 80 76 73 74 78 80 82 87 90 87 80 78
62 74 77 79 74 87 92 85 60 54 70 88 84 81 86 80 84 84 67 90 95 95 91 81 83 85 83 81 81 76 74 76 75 73 76 77 80 87 92 92 85 66 76
72 83 81 75 80 82 87 86 90 76 70 72 66 88 71 74 83 64 64 95 97 98 89 91 86 83 80 77 78 81 84 78 80 76 76 77 73 46 42 48 78 57 71
84 98 98 93 84 74 80 84 81 84 84 85 85 85 88 89 94 91 90 90 94 99 98 92 88 82 82 82 86 90 76 76 77 78 80 72 68 36 35 50 82 89 80
93 95 95 94 90 81 78 84 78 84 85 85 88 85 80 78 77 83 88 91 97 97 97 97 87 84 83 88 88 85 85 74 71 72 69 54 41 35 37 40 51 96 95
91 90 99 97 93 82 92 87 83 87 86 85 85 88 90 86 92 90 87 80 80 87 88 97 99 89 87 87 82 86 74 70 65 70 74 54 44 43 53 44 47 67 91
77 85 90 97 94 70 79 84 92 94 93 91 93 92 88 91 91 87 85 92 86 82 76 73 79 100 96 87 83 85 83 77 74 62 70 61 51 64 81 64 51 61 79
100 92 90 80 81 80 83 62 72 79 74 84 80 87 84 72 74 72 78 96 90 79 68 82 77 89 99 97 99 93 90 79 75 58 67 59 78 68 81 79 74 71 77
89 79 81 77 89 92 92 90 92 90 90 90 84 74 71 66 70 77 58 58 95 76 66 66 72 94 91 99 99 99 90 79 70 63 61 60 59 70 80 71 74 85 90

GFSSE_850_rhum_084.txt.gz
RH
87 70 58 51 50 49 48 49 52 63 67 65 69 68 61 57 62 71 84 68 25 17 30 78 82 84 87 34 25 23 22 24 35 30 41 41 44 72 92 93 90 75 84
82 79 75 60 58 57 55 57 55 53 61 63 66 69 62 57 70 85 78 64 18 20 33 94 82 80 55 30 26 23 22 22 23 24 24 25 31 39 61 65 68 59 53
74 81 79 78 66 63 58 60 54 36 37 46 61 68 64 66 68 68 75 45 26 39 58 88 89 88 38 31 26 23 26 41 51 55 43 34 30 28 27 26 25 27 29
83 81 79 80 73 68 63 60 42 49 58 43 53 64 61 68 67 65 74 27 95 98 45 44 49 45 37 36 32 27 37 58 80 84 83 46 39 37 36 36 35 34 29
84 75 76 84 81 69 71 54 43 62 73 44 57 63 63 69 75 80 70 39 97 97 35 37 39 40 38 33 33 33 38 60 86 91 89 64 49 45 41 41 41 40 39
94 88 75 84 84 70 71 52 56 61 79 38 69 63 67 69 71 82 52 35 96 40 35 39 40 39 37 34 32 33 41 68 68 79 76 74 41 40 42 42 42 44 45
94 88 79 85 84 68 61 46 63 64 85 48 65 65 68 80 81 80 29 39 41 37 40 55 40 39 37 36 35 34 47 64 82 94 89 50 43 44 45 45 45 46 48
84 89 84 92 83 69 64 50 66 57 87 56 70 69 84 90 92 68 25 29 35 38 43 40 39 35 35 35 36 38 46 64 82 89 76 51 48 50 52 54 55 54 53
77 84 96 92 83 80 69 69 80 54 72 89 72 83 97 99 86 49 42 33 38 41 44 43 39 34 33 34 35 38 45 62 74 69 86 64 53 54 58 59 59 58 56
66 96 97 99 85 86 75 72 92 44 53 93 93 96 100 93 56 30 39 38 39 41 42 40 36 35 34 33 33 38 41 56 56 62 77 63 55 59 62 57 57 57 57
58 89 94 99 100 100 79 77 94 82 29 97 98 97 98 99 59 24 34 39 38 40 39 37 36 36 35 34 34 37 42 56 63 68 64 59 62 68 66 67 67 71 73
61 56 81 86 74 99 99 79 96 81 31 84 99 97 98 93 61 25 34 37 39 39 35 35 34 34 34 35 35 37 53 54 63 64 68 64 67 72 72 74 76 74 76
68 65 66 82 77 85 89 100 90 77 31 33 100 96 99 86 59 36 36 30 32 33 33 33 34 34 35 36 44 40 62 66 67 72 67 67 70 76 78 77 76 73 76
58 65 65 55 65 66 84 90 100 67 30 35 65 98 96 85 91 72 52 33 31 32 34 36 36 36 38 48 58 53 63 66 72 75 78 81 81 73 74 78 75 76 74
63 58 60 67 58 60 88 81 100 74 60 79 82 66 88 89 86 87 56 36 34 38 39 47 43 52 55 50 54 65 71 79 78 78 81 82 83 79 76 70 71 72 81
63 58 63 79 78 56 67 84 94 89 80 77 86 88 86 89 88 87 75 50 50 51 46 52 50 60 61 62 75 78 79 82 80 77 80 78 78 81 77 75 67 62 66
71 65 68 90 80 64 62 97 97 88 89 82 82 83 84 76 59 59 67 58 46 45 43 46 58 65 70 73 78 81 82 79 77 76 76 75 79 79 83 84 81 74 68
82 73 77 76 75 82 79 94 90 82 82 84 72 70 92 83 54 49 47 44 44 51 58 61 60 69 76 79 80 81 80 77 76 76 73 74 78 80 81 83 81 85 77
86 74 73 80 83 78 59 87 90 88 86 86 91 80 85 70 61 58 68 77 92 91 87 72 68 68 78 78 82 80 76 73 74 76 72 73 76 81 83 66 60 58 59
95 82 79 86 78 84 71 67 76 73 86 86 88 92 96 86 85 88 79 75 93 90 91 90 78 78 84 85 80 77 72 72 75 70 74 76 78 76 57 37 44 49 53
94 94 88 88 78 87 94 80 76 64 64 79 68 80 85 86 85 94 78 70 90 87 96 92 91 84 81 78 81 74 73 76 75 73 77 78 73 51 37 39 40 61 62
92 98 96 86 83 74 95 90 90 83 76 77 81 92 83 86 86 91 91 92 94 90 92 94 95 91 88 83 78 87 82 76 73 81 77 75 54 42 34 41 49 62 52
100 98 100 100 98 96 100 94 93 90 89 92 91 91 81 86 86 78 80 78 77 80 78 89 96 94 89 87 86 83 85 80 75 80 71 51 51 44 38 43 52 58 64
99 96 99 100 100 95 93 94 94 90 90 87 93 89 89 88 86 81 78 80 77 73 73 78 80 79 85 90 82 95 89 81 72 77 77 70 56 50 55 48 43 46 62
91 94 91 100 99 82 78 87 81 82 90 91 80 83 93 86 87 74 69 67 67 63 59 56 73 73 83 84 84 77 88 100 93 74 73 72 76 70 69 66 59 57 64
99 100 99 96 84 79 74 86 94 78 79 68 79 83 75 92 77 72 73 74 72 81 63 68 76 75 73 87 81 78 99 98 100 89 82 88 80 62 72 71 69 74 74

GFSSE_850_rhum_090.txt.gz
RH
80 68 57 59 56 53 52 52 55 56 61 61 60 63 62 57 59 67 74 39 29 43 66 88 81 70 57 41 43 63 48 55 48 40 54 74 84 76 76 47 38 57 69
76 59 57 56 55 49 49 55 62 59 61 61 62 57 60 59 59 84 71 23 56 73 86 92 69 26 25 24 30 43 30 34 31 32 32 43 47 42 35 32 28 33 50
75 64 52 54 50 49 51 55 60 64 63 62 64 58 53 61 53 80 67 20 56 78 86 90 42 25 24 24 26 28 31 31 31 31 30 30 30 31 33 33 30 30 30
78 72 56 49 49 49 52 55 56 58 65 63 65 61 58 70 64 83 65 20 50 86 84 77 33 27 24 27 41 46 46 44 41 38 38 37 36 37 37 38 38 36 33
89 78 64 51 53 56 57 59 60 57 56 62 62 66 62 71 74 84 64 22 33 91 99 62 35 29 26 37 51 58 51 52 50 45 44 41 36 36 37 39 41 42 42
93 85 77 66 61 63 62 63 62 48 41 40 62 62 66 71 86 70 56 66 89 90 93 42 38 35 30 38 52 58 52 52 51 50 40 38 38 39 40 40 39 42 44
86 88 84 87 81 72 70 70 53 50 66 59 55 60 70 70 80 75 80 86 82 77 41 79 39 36 35 39 51 62 55 53 52 52 42 41 42 44 46 46 45 45 46
76 88 96 97 96 85 79 80 55 61 74 78 55 64 72 69 86 87 80 100 55 37 37 43 36 34 34 39 46 53 50 55 59 62 45 45 45 48 50 49 47 45 46
76 83 96 98 100 94 85 85 74 73 72 89 38 66 72 73 88 98 92 98 51 40 44 38 36 35 35 36 43 48 47 46 49 54 52 48 48 49 50 48 48 52 56
63 71 74 93 93 93 86 88 78 78 74 86 58 76 75 81 91 99 91 92 88 98 86 43 36 35 37 38 41 50 54 45 47 52 52 50 53 56 55 54 58 66 70
59 62 76 78 93 92 88 86 80 97 70 72 82 76 78 82 95 99 82 75 85 90 55 39 35 34 36 36 39 44 50 47 44 50 53 55 58 62 61 61 64 67 70
53 56 58 64 74 94 86 84 71 96 99 69 84 79 81 79 97 99 78 74 70 41 44 46 38 35 34 35 36 42 47 52 49 50 52 55 62 64 65 65 67 69 72
52 58 64 68 72 77 81 90 80 72 85 75 84 95 90 83 100 99 76 80 48 45 44 43 39 36 35 35 34 40 49 54 54 58 65 62 70 78 69 63 67 68 70
55 57 56 54 63 68 64 67 67 63 69 61 61 96 100 100 100 100 70 53 42 41 40 38 36 35 35 35 35 38 51 57 59 63 73 77 85 85 79 71 63 63 66
58 58 57 60 59 67 57 46 46 46 48 64 55 76 99 100 100 100 66 34 40 41 39 35 36 34 34 35 40 43 49 61 67 68 78 83 80 76 81 76 70 66 61
41 44 54 59 62 56 56 52 59 84 63 63 54 51 92 85 100 97 67 38 42 41 38 34 34 35 35 36 40 44 52 66 80 79 77 73 76 78 81 82 80 78 69
44 51 58 62 62 56 61 65 75 85 74 66 53 56 67 94 97 92 43 41 40 43 36 35 39 44 46 51 48 52 59 65 78 82 76 71 76 77 82 82 83 83 79
46 43 41 58 62 57 63 71 82 82 90 61 68 69 70 86 95 94 55 47 36 35 35 40 48 50 50 53 59 69 72 76 76 74 74 73 73 72 74 80 83 82 79
50 54 55 56 54 62 74 84 87 82 97 66 98 98 75 69 98 89 83 66 43 40 43 42 48 50 55 61 68 72 77 81 80 79 74 73 74 70 76 77 78 78 62
51 60 63 58 64 68 76 79 90 85 92 71 81 78 64 66 76 90 91 74 56 54 56 53 53 56 59 65 74 78 79 80 80 77 74 69 72 68 70 76 79 70 35
54 63 64 68 70 73 76 83 88 88 88 81 70 79 91 81 86 90 90 78 64 62 50 56 65 64 62 66 71 75 79 82 81 79 78 73 70 71 72 78 76 42 32
65 72 78 76 84 82 74 79 87 90 91 97 80 75 73 66 82 89 87 75 74 69 78 80 81 76 71 69 77 85 84 81 81 81 75 71 68 71 75 75 78 37 33
75 96 100 99 97 95 73 76 90 95 99 100 100 97 96 90 82 76 69 66 82 84 80 80 84 80 80 80 79 80 85 81 75 75 77 74 79 77 78 79 68 35 38
99 98 97 94 99 97 95 83 96 97 98 98 96 90 88 78 83 77 75 78 92 83 77 76 79 70 71 71 72 82 81 72 78 78 72 80 86 85 85 67 43 45 56
100 100 100 99 100 95 84 98 100 100 99 92 93 99 98 99 94 90 91 91 91 92 91 90 86 80 76 74 70 68 70 77 78 76 82 73 88 85 85 76 62 69 66
98 100 100 100 97 97 100 98 100 100 100 100 100 100 96 93 96 97 92 90 98 91 93 86 86 86 82 84 76 82 89 86 79 81 90 87 75 77 69 73 79 82 83

GFSSE_850_rhum_093.txt.gz
RH
77 74 91 68 76 66 61 62 54 54 53 48 48 60 61 63 70 73 73 48 22 35 78 83 79 72 67 65 63 69 62 42 52 72 79 77 68 66 46 40 59 72 85
82 82 90 72 75 68 61 59 56 58 60 56 55 62 63 60 60 65 72 31 35 63 82 84 65 56 31 38 38 39 39 33 32 36 48 48 36 32 31 28 31 43 52
80 66 73 68 71 71 68 65 60 60 61 60 59 60 63 61 63 84 64 30 69 84 91 78 29 27 24 29 36 26 26 26 28 30 31 31 31 33 34 32 32 31 27
78 60 52 55 62 61 67 72 66 66 64 63 61 55 56 60 57 88 60 37 76 81 85 63 26 25 24 27 29 34 36 37 35 35 36 35 35 35 36 36 36 35 34
79 69 55 53 53 51 55 62 63 65 66 65 63 60 60 73 64 69 63 34 76 80 86 52 28 25 26 35 41 45 48 50 44 43 39 36 34 35 36 37 39 40 40
86 76 64 54 49 51 53 55 58 60 59 64 63 67 63 72 86 85 66 27 72 91 84 50 30 26 32 39 40 44 47 47 44 41 38 37 37 40 40 41 41 42 43
78 84 72 58 57 60 65 65 65 60 48 42 52 65 69 68 83 97 67 34 38 99 92 39 34 29 36 39 39 42 45 45 43 40 40 41 42 45 46 46 46 45 44
88 90 87 86 77 73 74 76 67 53 59 59 53 59 62 71 76 87 72 80 96 90 94 39 37 34 34 41 41 42 46 47 44 41 43 45 46 49 51 48 45 46 46
78 91 96 95 94 91 84 83 72 64 76 83 73 62 64 76 75 84 82 93 96 93 71 65 38 35 35 38 42 43 44 47 47 48 44 46 49 52 51 50 52 57 59
73 80 88 90 92 98 85 84 74 70 79 77 89 51 73 81 79 91 83 98 75 53 74 83 38 36 35 37 42 44 44 45 46 50 47 46 51 56 55 55 59 66 69
63 62 70 72 79 82 93 81 71 66 72 77 83 62 79 84 81 94 93 90 43 68 53 50 41 38 37 39 42 43 44 45 45 48 48 51 55 60 61 62 65 68 70
62 62 63 66 69 73 73 82 74 61 69 67 92 81 88 82 84 93 99 98 44 96 89 61 42 39 38 38 40 43 45 46 46 49 51 53 56 62 66 61 64 68 69
80 73 70 66 61 66 67 78 73 71 81 70 66 74 92 93 88 93 98 100 89 99 98 77 42 36 36 36 36 40 46 48 52 52 56 61 67 79 72 65 64 67 72
61 70 72 73 77 75 74 72 81 70 71 64 56 56 56 87 95 95 100 99 90 99 82 57 42 36 36 36 35 37 42 50 54 59 68 74 80 81 77 72 66 63 65
65 54 52 60 58 63 68 63 61 57 54 50 62 53 60 67 93 99 100 99 78 91 65 56 43 37 36 36 36 36 42 50 56 60 68 79 80 77 78 78 72 72 67
52 54 55 52 46 50 56 62 56 48 44 46 60 52 39 50 67 99 100 100 84 52 58 52 44 36 36 36 39 42 43 52 61 67 76 76 76 78 78 81 81 78 74
45 48 51 50 55 56 59 58 56 52 50 50 48 56 60 50 52 71 95 100 67 48 74 47 47 39 37 37 40 45 49 53 67 79 80 77 74 76 77 83 83 83 79
38 45 52 52 53 55 57 55 60 61 60 65 64 74 77 51 54 63 74 99 88 91 81 59 41 39 37 37 40 47 47 56 62 73 80 75 75 72 74 76 77 81 79
42 48 53 54 51 54 63 60 61 63 68 74 82 86 81 57 56 55 78 94 84 60 77 66 40 40 39 42 51 58 63 68 72 75 79 76 75 74 72 72 76 79 78
44 52 64 64 59 63 67 69 70 64 64 76 79 82 89 79 65 81 86 83 79 76 58 65 45 44 49 48 53 58 68 74 78 80 80 80 76 73 73 72 72 75 79
58 60 63 64 61 69 75 75 70 66 67 82 80 91 98 99 100 96 86 89 80 71 62 47 53 60 57 56 65 70 77 80 81 80 80 80 79 74 72 69 72 76 76
60 61 62 68 67 76 87 82 82 79 78 81 87 90 94 99 97 92 82 85 82 58 55 62 68 64 58 62 67 74 80 78 77 80 80 79 79 75 70 69 71 77 77
64 66 67 66 67 82 94 88 85 90 97 80 89 94 88 90 84 89 76 79 84 67 68 71 68 63 61 68 70 74 84 80 72 72 79 80 78 76 72 73 76 78 78
70 78 84 94 98 98 88 94 98 95 92 79 80 98 94 97 93 82 85 84 81 88 76 69 67 82 81 78 73 75 78 76 76 75 73 70 72 77 74 73 75 78 72
98 97 100 100 100 94 80 93 95 97 97 93 93 100 100 96 84 90 80 79 77 79 79 63 63 65 72 81 86 81 83 80 78 76 73 68 70 71 73 72 76 75 60
100 100 99 100 99 100 99 100 100 83 100 98 94 100 100 99 95 98 95 90 83 73 71 75 80 81 84 88 85 88 84 77 73 73 84 77 79 74 73 85 86 75 57

GFSSE_850_rhum_096.txt.gz
RH
75 71 76 68 68 67 69 62 61 61 60 61 64 70 75 75 74 77 73 46 21 51 80 90 84 84 92 77 67 62 56 62 84 82 79 75 56 42 46 59 70 84 84
83 74 88 66 74 67 65 66 64 58 58 53 51 58 62 65 65 69 71 35 30 65 93 94 69 69 59 38 49 47 41 40 46 52 47 34 33 31 30 32 32 41 49
81 82 86 66 76 73 66 67 61 60 59 57 52 56 61 59 59 64 70 34 44 78 94 73 38 27 41 34 31 34 30 30 30 32 31 31 32 34 32 32 32 29 30
84 78 82 65 71 70 66 66 64 65 66 62 59 61 61 60 57 77 64 47 71 85 82 47 26 23 26 33 26 27 30 31 32 33 35 34 33 32 32 34 35 35 33
75 67 67 66 64 65 64 66 66 64 66 68 62 58 62 65 60 80 65 62 72 88 82 39 24 24 26 27 33 35 36 36 37 37 35 34 34 34 35 35 37 39 40
80 72 65 61 62 61 58 61 62 64 64 66 67 68 68 73 75 61 72 53 75 84 87 41 26 25 28 35 39 45 43 38 37 36 35 36 37 39 40 40 40 41 41
87 80 69 65 60 58 58 59 59 59 59 60 66 67 70 67 79 97 71 42 74 89 83 52 27 26 33 38 39 42 43 41 38 37 39 41 41 44 44 44 43 44 43
84 87 80 78 66 58 59 62 65 65 61 54 60 62 64 68 73 87 86 44 78 80 88 54 30 29 35 36 39 40 41 42 39 40 42 43 44 47 47 43 44 48 50
73 84 86 77 74 74 74 75 74 72 60 52 53 61 67 67 76 77 84 63 56 70 93 44 35 32 35 37 37 41 41 45 44 41 42 44 48 49 49 49 52 59 63
73 72 86 85 86 83 83 82 82 70 63 66 75 68 68 76 80 80 87 87 98 98 98 62 41 35 35 36 39 40 45 45 46 47 45 47 51 54 54 55 58 64 65
74 71 70 69 76 76 87 85 83 74 60 64 70 88 67 73 81 84 91 91 93 85 96 98 49 37 35 37 40 43 44 45 45 47 45 48 53 57 61 62 62 66 68
79 72 73 70 70 68 75 74 83 76 59 63 66 74 44 64 85 85 91 93 90 74 71 99 80 39 36 37 39 42 45 49 47 47 48 52 56 61 64 60 62 65 66
87 89 76 77 74 68 67 67 81 77 68 64 65 81 70 75 80 93 94 94 98 91 96 89 90 47 38 38 39 40 45 48 48 50 51 54 60 72 69 63 59 63 68
71 77 79 72 64 68 75 76 81 79 72 67 63 60 57 58 57 79 98 96 98 99 79 90 76 49 40 39 38 37 41 46 49 54 59 63 71 77 77 73 67 62 58
57 71 72 67 63 59 66 72 74 75 76 61 69 68 49 56 55 54 70 94 98 98 85 93 95 56 42 39 36 34 36 42 49 55 63 72 76 77 73 75 75 70 69
56 70 70 71 62 62 58 58 58 68 67 69 60 50 51 64 67 58 56 70 90 96 95 89 93 74 50 42 38 35 36 39 48 54 61 70 76 74 76 80 77 77 76
34 50 62 71 70 65 56 54 58 60 57 53 51 49 47 63 65 74 56 56 69 99 96 84 91 72 63 47 44 39 37 39 50 54 64 74 76 76 78 80 81 79 80
31 33 37 42 54 56 59 60 62 60 58 55 54 57 53 48 55 60 81 77 64 76 99 90 73 82 63 48 43 41 44 46 49 54 72 78 78 76 76 75 77 76 79
29 31 36 44 51 54 58 64 65 65 64 65 64 66 64 59 56 62 74 90 91 70 84 80 74 78 65 52 39 42 47 47 49 58 62 75 76 77 78 75 72 74 75
26 28 38 48 61 64 69 75 74 72 65 69 69 73 78 72 74 85 78 85 98 93 92 76 77 67 62 56 50 43 51 54 56 62 68 74 78 78 79 76 72 72 74
27 33 44 52 63 64 69 71 75 69 69 73 79 80 80 82 78 90 93 93 99 99 89 71 81 86 75 58 64 69 62 63 67 71 74 78 80 79 78 75 74 72 72
43 61 56 59 62 70 74 73 83 82 82 80 78 75 78 82 81 86 99 96 98 96 89 76 80 68 65 58 78 81 72 65 70 71 77 78 80 79 77 78 74 72 71
53 54 59 67 71 72 76 84 89 88 82 79 77 79 76 83 76 85 100 100 100 98 74 70 69 75 63 55 79 74 78 78 68 69 74 75 75 74 76 76 75 73 72
65 72 71 72 67 62 71 80 94 89 94 96 76 74 86 91 86 82 92 98 100 100 86 72 64 51 60 58 76 75 74 77 76 70 68 64 73 78 76 77 75 75 74
97 97 99 100 98 93 83 90 90 98 98 87 72 95 91 92 86 85 97 99 91 93 95 92 72 56 66 76 72 71 73 78 78 77 75 72 72 69 66 63 70 78 77
99 96 99 94 97 100 100 99 100 99 94 94 100 100 99 99 99 100 100 99 100 100 99 99 93 82 66 66 73 71 79 77 78 81 80 76 74 70 69 67 68 77 79

GFSSE_850_rhum_099.txt.gz
RH
86 83 72 62 60 70 59 61 71 74 76 76 78 79 78 76 75 78 72 43 30 72 88 85 81 92 87 86 66 64 68 85 82 76 65 43 36 46 60 76 88 92 84
91 82 78 70 65 68 72 62 61 62 63 64 68 72 80 78 74 70 68 33 33 71 85 89 88 91 91 57 48 43 55 64 63 50 36 33 32 30 36 36 42 50 66
88 86 93 69 68 64 68 69 64 62 59 56 53 54 77 81 64 64 64 35 39 74 82 97 62 85 35 35 38 34 35 34 34 34 31 30 32 32 32 31 30 31 38
93 92 93 74 77 72 76 67 64 58 57 57 56 53 58 82 59 60 67 36 54 81 85 63 29 35 30 31 31 28 29 30 31 32 33 32 31 32 32 33 34 32 31
84 83 90 78 80 78 70 66 62 62 62 61 59 57 69 84 60 75 68 47 72 83 82 45 26 24 30 27 28 31 31 32 35 36 34 32 32 32 33 34 36 37 38
87 86 76 78 75 73 70 66 65 65 64 64 65 62 70 82 63 68 74 74 75 75 83 51 24 25 28 30 34 36 36 35 35 34 34 35 36 37 37 35 35 37 37
96 86 85 80 75 71 72 69 68 67 67 66 69 71 71 74 76 72 76 70 73 84 87 62 26 25 29 36 38 41 38 36 35 36 39 40 40 41 40 38 38 39 38
86 98 84 85 88 70 65 66 67 64 65 68 68 68 65 69 74 82 81 66 74 82 86 81 29 26 32 38 42 39 38 38 37 40 40 40 42 45 43 41 44 48 51
74 84 93 83 78 71 66 66 67 65 66 63 65 65 61 68 76 78 88 73 65 74 83 77 38 28 35 38 40 40 39 41 40 40 40 42 45 47 47 47 51 58 59
77 79 82 94 84 68 64 70 72 71 70 63 51 49 63 67 76 80 82 89 70 70 73 76 42 30 37 39 40 38 41 43 42 42 40 42 47 50 52 54 57 62 61
78 81 79 86 89 86 83 76 75 76 75 66 60 69 70 63 71 78 87 90 80 84 87 91 48 36 37 41 43 44 42 43 44 44 43 44 49 54 57 57 58 62 65
62 82 88 77 83 79 81 78 76 78 81 70 58 68 76 80 62 71 81 91 92 96 99 86 86 54 41 40 45 49 46 43 44 46 45 46 50 57 63 59 59 63 64
44 65 74 84 77 77 76 74 75 73 81 75 68 62 72 55 47 64 81 92 97 97 98 92 90 90 49 40 42 45 49 49 49 48 49 50 53 60 73 65 60 59 67
36 53 74 80 84 81 80 77 70 71 80 74 68 59 61 59 60 62 64 75 91 90 96 95 87 91 74 44 43 46 49 52 50 50 52 53 58 70 73 71 66 61 58
30 40 59 74 79 75 74 75 74 68 78 79 75 65 68 69 63 61 60 69 64 79 91 96 83 84 80 64 48 44 46 49 52 51 53 59 65 73 74 79 75 68 69
24 30 56 72 73 71 74 73 68 76 85 83 75 71 74 71 66 68 68 71 79 71 72 83 94 82 89 70 54 50 45 45 48 52 55 61 70 77 73 75 80 77 75
16 27 36 72 75 72 67 66 66 75 87 87 83 76 62 53 49 50 70 71 74 86 83 81 88 92 89 93 68 51 45 42 42 47 55 59 66 75 75 78 78 78 78
13 21 32 38 45 62 71 70 68 66 68 67 66 60 57 58 57 53 53 70 69 74 94 96 91 94 94 65 79 57 47 43 43 44 53 59 65 75 76 78 78 74 73
21 16 26 32 33 38 46 62 68 71 69 66 64 61 60 63 63 64 61 64 74 75 80 81 97 99 86 74 81 68 58 45 46 50 53 56 72 77 78 76 78 76 74
29 22 21 29 30 42 53 68 71 68 65 65 65 63 64 66 67 70 72 76 82 82 82 90 86 87 96 76 69 61 54 55 48 56 58 57 63 76 79 78 80 76 74
43 33 23 29 35 51 62 66 66 57 59 64 68 70 70 71 72 73 82 82 87 90 90 97 92 96 98 80 66 50 62 55 52 51 55 57 62 67 78 79 81 78 73
49 35 34 41 52 58 65 65 70 69 69 73 75 76 74 73 77 78 86 93 97 97 98 89 96 100 100 77 69 81 86 69 49 55 60 65 70 74 79 79 79 77 76
97 98 57 60 61 64 65 64 66 77 78 83 79 74 74 74 76 77 83 94 90 100 100 87 98 100 98 87 78 89 81 84 69 57 54 59 67 75 77 78 80 78 77
100 72 57 60 61 62 63 67 72 81 99 96 88 86 73 70 71 73 80 92 97 97 100 99 96 100 95 87 96 79 63 69 72 64 58 54 59 69 75 76 75 77 76
99 85 72 74 79 83 76 86 95 99 98 92 84 84 98 91 88 88 86 89 95 100 95 100 100 100 100 91 83 82 69 65 75 79 76 66 63 65 71 75 72 70 72
98 92 96 90 94 94 99 96 100 100 99 95 80 82 83 88 86 86 96 89 96 100 98 99 91 92 93 90 86 76 72 75 77 77 82 76 69 67 74 78 79 72 69

GFSSE_850_rhum_102.txt.gz
RH
99 99 94 82 69 67 68 71 75 78 79 78 80 79 80 77 76 74 66 34 42 74 79 77 81 90 87 80 60 66 88 88 85 78 47 41 53 62 75 92 97 91 84
98 100 88 73 69 66 58 61 63 70 74 72 71 78 78 77 74 74 68 34 43 77 89 80 88 85 88 81 60 57 78 78 76 54 42 33 34 45 54 60 69 73 94
99 99 93 76 68 69 68 58 57 58 59 61 62 83 83 84 74 70 65 33 50 78 83 84 85 90 68 48 40 48 55 53 49 40 33 76 30 31 32 30 33 42 48
95 98 98 76 75 70 68 70 63 61 57 54 52 60 76 75 74 64 61 40 52 79 81 77 76 60 34 41 38 35 37 33 32 31 74 80 58 32 31 31 30 29 29
92 97 98 86 76 77 74 72 66 62 56 56 58 55 62 94 63 61 67 43 55 79 85 74 43 26 31 34 36 30 30 30 32 38 62 86 88 32 33 35 36 36 36
94 97 91 91 80 85 81 76 70 61 58 59 60 58 71 84 68 87 85 52 72 80 85 77 30 27 34 27 29 33 33 34 35 59 53 37 88 36 36 37 38 38 38
92 92 91 88 81 82 81 76 70 68 66 66 66 72 74 74 75 68 82 79 77 81 87 80 25 26 33 31 37 40 39 37 43 45 83 60 65 40 39 38 38 39 38
82 90 90 88 85 82 79 77 75 74 74 75 74 72 71 71 73 76 79 77 76 77 88 86 36 26 29 38 44 46 42 38 38 48 53 86 50 42 41 40 43 46 49
74 82 90 96 89 87 79 73 72 69 67 71 70 70 70 72 74 76 82 80 75 78 84 87 75 28 30 41 47 48 45 43 73 77 62 86 44 45 45 46 50 55 55
79 73 78 87 98 90 73 62 61 61 61 61 64 63 62 66 68 75 78 90 82 79 79 81 77 47 32 43 49 49 50 49 78 47 63 89 48 47 49 51 55 60 58
64 84 79 78 88 96 89 73 69 69 71 73 72 58 60 60 89 72 72 85 88 82 77 76 75 64 34 47 53 55 53 66 88 80 80 48 47 50 54 56 56 61 61
39 57 80 82 85 90 90 89 88 83 80 81 78 63 63 68 95 92 94 75 84 86 79 86 86 70 42 76 71 59 56 89 89 87 84 44 48 56 59 61 57 61 65
28 39 49 80 85 87 88 87 84 78 73 76 81 66 70 68 65 62 93 78 79 88 95 96 90 89 83 77 87 90 87 91 87 85 82 50 49 56 79 66 58 60 63
22 29 38 58 80 81 86 84 83 80 76 73 80 70 60 64 63 66 86 97 96 97 94 98 99 98 95 88 82 88 86 83 84 86 82 50 52 55 71 66 60 56 56
14 21 31 41 67 81 85 84 83 82 86 86 86 73 60 63 65 67 71 94 95 94 100 83 89 93 94 99 89 76 72 79 78 79 83 56 53 58 70 70 73 65 59
17 14 22 33 62 82 84 79 82 85 96 92 85 76 69 70 76 82 75 70 73 98 100 99 95 94 93 91 93 91 70 54 69 67 75 71 58 62 70 72 83 81 72
36 19 13 27 50 74 80 80 82 81 86 88 88 86 85 82 79 72 56 53 62 71 98 100 98 98 93 89 85 80 60 52 49 59 53 61 66 64 72 73 72 80 81
40 32 19 18 36 62 76 76 80 82 84 85 87 88 85 83 72 58 57 56 52 88 73 83 91 89 92 94 90 93 79 62 62 59 60 56 61 59 63 73 73 79 79
37 47 28 22 24 36 50 61 72 74 75 70 67 71 74 68 62 62 65 70 72 61 65 80 84 91 93 95 99 86 65 74 53 64 62 62 58 59 64 68 73 77 78
49 44 33 28 23 29 33 34 42 55 64 65 65 65 64 62 62 65 72 74 91 98 93 86 99 99 99 93 96 100 84 62 74 51 37 55 68 66 59 73 77 75 77
69 56 46 29 31 30 31 38 48 58 61 60 60 64 66 69 68 71 78 72 78 98 99 98 98 90 99 98 100 100 84 76 97 63 44 42 47 60 60 59 78 81 77
100 98 76 60 35 45 46 65 71 69 68 66 65 60 64 67 71 78 76 70 74 92 100 98 92 95 97 99 100 100 98 89 85 58 54 47 48 48 56 56 63 76 79
93 92 84 95 99 96 94 78 73 63 57 57 60 61 60 68 77 76 72 70 70 87 88 94 90 97 99 98 100 98 96 81 69 63 48 46 47 59 52 56 65 75 81
97 96 100 100 99 82 58 66 70 69 91 89 73 85 88 88 98 90 74 73 72 88 90 89 88 96 100 100 100 100 97 76 68 65 64 58 61 66 58 57 67 73 77
100 98 100 100 70 65 67 65 69 85 87 97 96 86 93 84 88 100 99 95 93 93 94 94 92 100 100 100 99 100 100 83 82 79 75 65 60 50 58 60 58 71 75
100 98 100 97 81 94 86 78 90 94 100 100 96 96 96 91 98 100 100 96 94 99 98 90 98 99 99 100 100 100 99 97 88 92 82 82 80 81 68 64 66 68 70

GFSSE_850_rhum_108.txt.gz
RH
92 90 92 91 87 74 77 80 78 75 72 77 78 77 76 74 72 67 57 34 39 63 66 73 85 77 72 35 75 91 86 84 56 40 60 72 66 76 90 93 90 92 89
93 90 86 85 80 71 71 77 79 76 74 75 78 76 77 74 71 68 62 40 42 72 72 90 88 83 84 52 73 87 86 76 51 41 34 40 50 76 88 90 88 87 89
97 92 90 92 75 69 69 75 77 74 75 76 75 85 79 80 72 73 64 49 44 78 84 85 89 83 83 51 44 73 75 66 46 35 60 46 36 42 45 47 48 62 76
98 97 100 92 79 72 67 72 73 71 72 71 72 72 74 75 78 75 67 54 47 81 87 76 80 81 77 45 34 49 54 49 40 70 76 80 42 30 30 30 31 41 40
92 92 94 92 92 76 76 70 65 66 65 66 77 71 67 72 79 77 67 59 44 81 87 77 77 68 52 34 33 33 36 36 36 69 80 80 76 35 31 32 32 31 32
96 98 93 97 96 89 76 74 72 70 68 66 60 60 59 63 80 86 70 66 46 68 83 82 76 42 41 33 32 28 30 32 40 79 84 88 87 56 35 35 37 37 37
88 99 96 95 94 92 80 82 82 79 72 63 62 65 64 63 75 78 73 79 69 58 78 86 85 36 32 35 30 28 31 34 48 71 82 75 83 46 36 37 38 38 38
83 93 94 100 93 92 84 85 86 84 76 68 65 62 63 68 68 70 71 70 77 63 78 81 83 54 27 32 28 33 39 39 44 75 86 84 87 57 39 37 36 40 44
50 74 92 99 100 92 88 80 80 78 75 74 71 69 67 67 66 67 66 72 75 77 79 80 81 81 32 30 30 35 41 39 44 73 78 71 66 49 40 41 43 46 50
27 44 70 87 96 94 100 95 85 77 76 72 73 71 70 72 70 69 64 62 70 77 75 78 78 80 76 31 30 36 41 40 38 70 79 84 80 63 39 40 44 49 53
22 25 38 64 80 92 92 94 94 86 76 69 66 65 66 67 66 62 62 62 66 73 77 77 80 83 75 67 34 36 40 41 42 62 78 67 75 61 40 39 42 44 52
18 16 21 29 56 73 92 93 91 95 77 70 71 75 77 78 67 63 84 84 83 72 76 81 80 82 77 71 64 36 38 40 43 52 83 74 75 58 41 41 45 42 47
27 19 14 16 24 46 66 93 93 98 98 97 99 99 97 92 92 90 89 88 88 84 80 82 86 82 75 79 72 40 39 42 43 61 83 79 72 62 45 40 49 49 44
30 28 23 15 14 24 39 62 96 100 98 99 86 90 88 83 85 90 86 88 79 82 75 77 86 86 83 84 81 74 73 71 47 63 82 79 76 63 45 51 63 62 52
34 35 34 33 25 18 31 41 62 93 99 96 87 81 75 83 72 70 90 95 93 99 90 89 89 85 89 88 88 75 77 80 78 70 82 81 80 74 52 45 67 78 58
42 42 39 38 39 39 27 48 43 71 100 93 97 86 72 72 77 67 72 73 85 96 98 94 88 87 86 86 89 92 88 72 79 78 76 79 78 74 64 50 48 56 76
59 53 47 45 46 45 40 38 62 48 95 99 84 92 94 87 82 71 67 63 63 70 72 74 89 88 85 87 88 92 89 88 74 75 76 74 73 70 64 51 50 52 57
78 79 75 62 53 48 48 40 49 59 100 99 94 87 89 93 93 96 91 77 67 73 74 67 63 74 86 95 90 85 89 89 94 85 72 72 72 71 58 44 42 48 57
86 84 83 86 79 60 50 40 45 68 87 99 100 95 90 90 92 91 91 88 83 82 77 65 63 78 79 74 76 79 78 86 88 93 86 72 62 57 54 48 38 37 47
79 73 71 84 90 80 60 50 39 62 82 94 95 100 93 90 88 93 84 84 85 83 83 82 77 62 67 71 78 77 78 77 84 92 96 92 91 63 58 54 49 46 41
83 73 72 74 72 92 73 57 50 54 78 88 92 91 83 80 75 77 92 92 91 89 88 88 87 92 76 67 86 88 85 87 84 78 81 99 99 83 73 57 53 52 49
93 85 74 80 73 84 88 64 48 65 75 77 82 88 93 80 77 89 96 93 92 89 84 86 85 82 88 88 89 100 100 97 94 95 88 83 99 100 91 66 54 48 44
100 93 84 99 99 81 82 78 72 74 72 76 76 78 90 88 86 92 87 93 82 90 90 88 90 92 94 89 92 97 93 91 88 85 79 73 75 93 97 91 82 55 50
99 98 92 92 99 96 84 79 83 95 79 78 90 93 99 97 89 99 96 91 94 94 96 98 97 95 93 96 93 94 94 97 95 88 85 83 80 80 79 83 87 70 61
98 100 94 91 100 98 97 91 97 92 80 85 97 74 99 97 94 100 92 90 82 83 86 90 94 99 100 100 96 95 99 90 96 100 98 91 89 89 84 83 85 81 67
98 99 99 97 98 100 100 97 99 96 77 78 79 94 95 99 97 100 98 100 100 93 95 98 99 99 99 96 98 100 100 99 97 100 100 100 93 93 95 88 85 80 72

GFSSE_850_rhum_111.txt.gz
RH
82 91 86 90 89 79 77 75 77 75 74 74 73 74 74 72 68 62 49 33 49 63 64 76 73 67 32 55 81 87 80 54 42 62 76 75 63 86 91 92 90 91 95
98 90 88 87 80 73 78 79 79 77 76 77 75 77 76 73 73 67 59 40 53 69 70 84 84 83 52 55 77 88 81 53 42 40 38 52 68 89 91 90 85 83 85
86 86 91 93 82 68 73 76 79 76 77 77 77 76 77 74 72 75 66 49 49 80 77 88 87 80 64 43 48 73 63 56 36 45 54 46 43 54 49 50 48 56 75
93 82 93 95 90 70 70 73 74 70 73 73 73 70 71 75 73 74 66 58 44 88 92 80 82 82 72 44 29 44 43 43 50 77 74 51 54 32 32 31 31 38 38
99 91 88 89 96 81 74 67 66 68 67 64 61 54 62 68 75 77 68 62 46 78 81 77 78 81 75 54 34 33 34 34 50 77 80 78 63 34 29 30 30 30 33
89 95 88 92 98 99 81 78 74 70 68 67 64 57 58 59 70 75 65 62 52 64 81 82 78 48 38 35 38 32 31 32 38 57 74 80 57 58 35 32 33 34 34
80 97 89 94 98 98 94 80 76 76 76 72 66 63 63 63 63 72 68 72 72 49 67 80 81 74 30 31 32 30 30 32 38 54 70 60 54 55 36 34 35 36 36
46 86 88 87 86 91 95 86 89 86 81 72 67 68 67 70 72 69 67 65 68 65 59 76 79 77 38 27 30 28 32 36 41 55 75 70 53 61 38 35 34 35 39
26 40 77 94 90 92 89 89 88 86 83 79 73 71 69 69 70 69 68 68 69 71 69 74 76 76 74 29 29 29 35 39 41 56 70 71 63 60 38 37 37 39 43
24 24 29 63 95 97 92 98 84 82 82 83 84 79 76 73 71 71 69 62 61 70 73 74 74 72 73 70 31 29 36 40 39 45 71 71 76 73 63 40 39 40 42
16 19 21 24 48 80 89 91 93 92 83 79 76 70 71 70 69 68 68 61 61 60 67 73 74 74 79 75 66 37 30 38 41 43 66 69 75 64 52 41 42 45 44
18 16 16 17 20 33 62 90 87 87 90 81 75 69 67 71 73 74 63 70 80 72 67 74 77 78 81 78 74 64 44 34 41 40 50 59 66 65 58 40 41 45 46
25 22 21 18 15 14 23 50 89 89 89 94 90 78 75 79 85 79 76 87 91 89 83 71 66 76 76 79 77 75 74 40 43 44 48 63 78 66 59 42 38 42 46
36 36 36 33 31 23 19 21 40 82 91 91 95 94 92 85 81 87 94 98 98 94 91 85 79 74 75 75 77 80 82 51 55 58 48 63 82 76 67 51 38 42 45
40 40 41 40 37 35 31 25 25 35 78 94 98 99 94 87 80 85 89 98 96 95 98 96 91 88 86 82 82 86 84 68 61 79 69 69 86 82 76 71 44 42 57
71 69 66 58 49 45 44 35 26 28 38 86 96 96 91 84 73 79 74 73 86 93 93 93 90 88 86 92 88 82 85 86 74 77 79 72 82 83 81 77 64 44 50
74 71 67 70 62 57 52 46 38 29 32 42 90 100 94 90 84 75 77 68 80 81 92 91 86 87 87 85 83 88 85 85 93 82 75 78 75 76 77 74 70 57 48
66 61 59 59 63 66 65 56 52 40 32 41 53 92 93 88 87 76 82 76 67 67 69 76 75 73 72 90 87 80 84 83 84 89 80 82 82 75 73 68 62 58 52
69 63 60 59 56 58 68 69 65 54 42 44 59 87 87 92 89 91 90 78 84 84 81 76 74 71 67 64 66 68 72 75 80 82 86 91 84 77 73 69 63 56 51
63 64 64 63 60 54 54 73 68 61 45 50 62 77 88 90 87 92 94 85 69 84 88 84 78 76 70 64 67 68 61 55 66 77 83 85 88 89 84 71 67 65 51
66 64 69 68 65 62 58 79 77 62 54 46 66 76 79 84 93 98 94 93 84 80 85 90 88 88 85 88 98 82 66 62 70 76 78 82 86 88 89 86 77 80 58
87 88 80 78 72 76 71 72 80 77 57 75 70 76 84 97 95 94 84 80 82 79 89 88 90 90 92 88 92 93 98 90 89 73 73 80 80 79 80 81 88 76 62
98 98 96 85 80 82 75 78 75 77 67 79 81 85 95 98 96 96 88 84 83 73 76 74 80 87 90 84 93 99 95 87 83 83 79 75 75 75 75 79 80 80 82
91 96 99 84 82 95 90 94 84 85 96 96 81 89 100 100 100 93 80 73 85 86 87 83 86 85 85 86 95 99 96 98 99 91 84 83 82 82 80 75 72 76 84
84 84 95 95 88 95 93 99 99 94 98 100 100 99 98 97 89 96 92 84 95 100 90 92 94 86 80 89 98 97 94 99 98 100 98 93 93 87 86 86 82 81 82
85 85 92 91 92 89 92 99 100 100 100 100 98 97 90 98 99 98 100 100 100 97 94 92 88 89 90 97 100 100 100 99 95 96 99 99 98 88 88 91 87 78 74

GFSSE_850_rhum_114.txt.gz
RH
79 86 86 91 87 86 81 76 78 78 78 81 76 74 72 70 64 57 39 38 60 60 69 67 60 30 35 64 80 78 49 44 55 70 76 60 70 89 91 88 90 97 93
83 90 82 92 86 79 77 78 78 77 76 80 75 78 76 73 70 65 54 42 64 68 80 83 77 48 41 70 85 88 65 38 35 36 41 48 78 89 89 84 88 87 88
78 80 83 94 88 78 77 78 79 78 78 77 76 76 75 74 72 73 63 49 55 74 82 91 83 77 55 39 68 78 52 36 29 33 40 36 42 51 50 45 49 50 63
80 79 81 89 94 79 74 76 78 75 75 75 73 72 70 74 72 73 66 59 47 82 86 81 82 78 70 48 33 49 44 38 34 34 40 36 34 31 30 28 28 31 34
92 86 78 86 96 88 76 69 73 70 70 70 67 70 77 72 81 78 68 61 48 73 84 79 82 73 65 47 36 39 37 39 46 45 41 42 35 29 27 27 28 29 30
87 96 87 87 85 95 90 80 72 65 65 65 65 62 63 62 63 78 71 62 56 60 82 78 76 62 34 33 34 32 34 36 49 48 43 44 46 42 30 29 30 31 33
79 98 88 83 84 90 98 92 80 80 77 71 67 63 59 60 62 70 75 72 70 53 64 81 82 80 38 31 33 33 30 31 40 52 52 52 48 46 34 32 31 31 32
30 80 84 87 85 89 84 88 85 82 82 82 78 72 67 67 70 69 68 72 72 76 56 66 81 83 80 32 31 32 30 32 34 43 42 50 65 59 53 35 33 32 34
25 26 57 92 95 86 89 89 86 85 88 87 82 79 77 74 72 72 72 69 70 71 71 61 73 79 77 66 28 31 30 36 38 43 43 48 59 52 45 37 37 36 38
16 20 24 32 75 95 94 99 95 88 81 79 80 78 74 73 73 72 74 71 68 68 73 74 72 73 71 75 65 30 32 38 40 41 46 47 55 66 58 50 38 38 39
16 15 15 19 23 46 83 89 88 92 94 89 78 78 76 70 67 68 70 69 70 64 64 73 77 77 76 77 76 66 33 33 44 44 47 50 60 68 59 49 38 38 40
22 21 20 16 14 16 22 50 91 90 88 92 92 79 74 70 67 68 70 72 65 72 67 66 76 78 80 79 81 78 64 46 36 46 47 56 59 62 61 54 44 37 37
36 34 33 31 27 22 17 16 30 80 96 88 95 95 80 72 69 72 76 76 70 89 90 84 72 81 81 79 80 79 74 71 66 41 48 57 55 65 73 56 53 41 39
39 39 37 34 33 33 29 23 18 21 55 96 92 94 97 97 93 89 84 82 78 88 90 92 92 88 87 86 84 83 80 76 77 51 42 52 56 63 80 80 63 51 40
45 51 52 49 40 32 26 26 27 22 19 37 85 90 95 95 97 95 92 89 92 88 92 90 90 84 78 82 87 88 89 86 83 72 51 72 63 61 69 83 79 72 49
67 60 54 49 48 43 37 32 29 28 29 22 28 85 85 96 96 93 92 87 86 87 85 86 88 88 86 86 84 85 86 90 88 84 72 66 79 68 68 77 82 78 74
72 65 53 47 44 42 40 39 35 33 31 38 31 27 85 91 94 92 92 83 82 75 82 80 86 88 85 75 74 72 79 82 87 87 84 84 76 81 78 74 77 80 72
68 59 55 57 54 51 45 41 42 42 42 34 38 36 32 79 99 89 98 90 83 75 83 86 88 84 76 73 67 59 68 74 74 76 80 82 84 82 81 80 82 74 74
52 54 56 54 54 55 51 46 42 55 60 48 39 39 39 50 89 100 90 99 90 85 82 80 77 80 79 74 70 70 69 68 67 70 71 74 81 85 82 83 80 78 78
58 61 62 62 63 58 59 58 55 53 71 65 54 43 49 63 81 93 97 90 97 96 90 94 86 88 86 84 85 76 60 53 50 45 43 47 58 77 85 86 85 78 77
64 66 71 68 69 66 66 63 61 65 70 65 58 49 60 74 84 93 92 94 86 100 99 95 90 87 86 90 90 70 66 60 49 46 39 35 41 54 67 84 87 84 84
84 91 81 76 77 73 76 70 73 81 82 83 75 86 85 85 83 85 98 96 99 100 97 84 76 80 79 79 88 91 93 68 59 53 60 60 52 53 64 73 82 86 88
84 87 90 80 78 76 77 83 75 85 85 76 69 77 81 86 99 100 98 99 100 99 100 90 79 67 74 66 75 100 92 82 82 81 79 80 82 77 74 75 75 81 84
78 78 80 91 83 74 73 92 99 99 100 98 100 99 100 94 95 98 100 99 96 88 85 97 81 86 82 81 77 86 100 99 100 94 87 88 89 85 85 82 78 75 75
80 78 84 90 90 81 75 92 98 98 100 100 100 100 98 98 92 80 90 100 100 97 98 88 94 91 88 88 97 99 88 92 99 100 99 91 83 91 88 84 85 81 74
78 79 83 81 81 82 81 77 86 94 88 85 89 95 98 99 99 90 98 96 95 89 83 78 79 85 90 90 93 99 99 99 97 99 99 100 100 93 92 88 83 75 79

GFSSE_850_rhum_117.txt.gz
RH
80 88 82 90 88 86 83 82 79 79 76 79 75 73 70 69 62 53 38 40 57 56 65 60 39 33 46 70 77 41 38 40 56 65 68 53 83 87 88 86 90 94 87
75 87 81 89 93 85 77 79 79 80 78 78 76 75 73 76 70 65 51 45 64 66 76 70 62 34 62 78 87 66 48 36 32 36 39 43 84 91 85 84 92 87 80
75 76 85 85 91 81 75 77 78 79 78 80 78 74 72 75 70 73 66 50 58 69 81 91 87 57 46 61 87 83 54 35 31 31 29 32 45 63 64 53 51 44 42
76 80 79 86 94 87 76 78 77 76 76 76 78 73 73 76 72 69 71 64 50 75 75 84 84 79 66 44 60 76 51 37 34 36 39 31 28 28 28 27 27 28 31
83 84 80 88 85 85 78 75 78 79 74 74 72 72 70 71 72 79 75 63 56 56 79 88 82 80 79 67 42 55 42 35 33 37 43 42 34 27 26 26 26 27 28
93 96 87 86 91 86 87 80 78 69 71 71 70 71 67 64 62 62 77 62 59 51 81 82 80 77 50 45 40 41 42 35 33 30 34 47 48 47 37 30 30 30 29
82 97 87 81 89 90 96 94 84 78 77 73 73 73 70 66 68 66 72 73 65 58 56 80 82 81 80 36 35 38 37 34 36 34 34 34 36 44 50 35 34 32 32
26 62 83 80 80 85 83 87 89 86 81 80 79 77 73 67 67 71 73 72 72 74 72 55 71 82 80 68 31 34 35 33 35 37 39 39 44 44 48 37 33 34 34
15 20 32 74 91 84 88 90 92 90 87 87 87 84 77 70 69 68 69 69 71 71 73 74 61 75 82 78 62 31 33 32 34 39 43 44 49 48 48 44 36 36 36
15 14 15 23 39 83 86 92 97 98 93 89 86 84 80 77 73 70 69 70 71 70 67 72 75 72 81 81 81 57 34 33 38 41 41 45 53 56 60 53 47 37 37
16 18 17 15 17 21 47 78 89 90 93 96 96 93 86 83 80 78 76 75 74 73 70 66 68 76 80 84 78 80 58 35 37 43 42 43 51 59 81 73 50 43 38
24 24 22 21 18 16 17 20 37 78 90 92 92 94 95 87 82 76 73 71 70 72 70 63 67 71 83 85 82 83 80 69 43 37 46 47 48 56 64 88 59 55 42
36 35 32 30 28 24 20 16 17 20 43 94 91 93 91 95 93 82 74 71 75 78 70 74 75 70 73 86 83 85 86 84 76 71 49 48 48 50 57 73 82 61 59
40 41 43 44 40 36 30 25 20 17 16 25 64 85 88 91 93 95 97 92 86 85 78 84 86 87 90 87 83 84 90 90 87 82 84 55 51 54 54 60 77 75 70
50 53 52 46 41 37 34 33 30 26 22 19 18 38 78 80 89 91 93 97 100 93 90 87 84 88 87 83 86 82 78 81 83 86 87 80 49 52 53 58 66 79 79
57 55 50 43 43 40 36 32 30 31 31 29 26 19 22 68 81 84 87 94 95 96 91 87 88 87 84 86 84 89 88 89 88 85 83 83 69 75 80 69 66 74 80
63 54 48 43 41 40 38 35 33 33 35 37 37 33 26 24 67 77 83 95 94 92 92 88 85 89 86 83 82 84 83 79 80 78 80 84 86 84 77 80 81 78 78
49 44 43 45 46 45 44 42 38 34 32 37 46 54 46 36 33 57 80 98 93 96 95 91 82 83 85 81 82 70 71 67 64 71 75 73 72 72 73 72 80 81 83
50 49 48 51 53 53 52 50 52 53 50 53 56 56 56 41 36 49 67 86 100 97 100 94 92 99 94 89 82 78 74 64 63 67 62 60 57 58 57 56 66 82 82
56 58 59 64 65 65 62 58 56 57 57 71 73 61 59 50 48 57 70 85 80 99 98 100 96 100 95 88 86 80 73 71 67 57 46 39 35 32 30 32 38 53 76
64 67 69 72 74 74 73 69 70 82 78 91 92 78 82 86 77 70 72 83 90 92 90 100 95 100 99 96 92 84 76 67 54 44 38 36 35 36 40 38 35 39 51
73 75 78 79 76 75 71 78 84 90 100 100 99 83 90 89 84 95 91 92 100 100 98 100 98 100 100 100 94 85 76 59 47 59 65 60 59 63 62 54 52 54 53
76 74 77 79 74 72 72 78 80 88 98 95 95 99 98 97 94 93 92 96 90 100 97 98 98 93 91 97 91 96 91 91 86 70 64 66 78 74 71 73 70 66 69
78 75 78 78 72 70 71 78 91 93 88 97 99 97 92 98 92 92 95 98 98 94 90 78 93 92 79 83 91 95 96 100 99 95 89 81 82 98 86 85 81 75 77
78 76 77 80 79 79 73 71 86 86 80 86 91 96 99 99 100 100 100 100 99 100 99 100 97 97 92 87 90 87 88 90 100 99 100 89 77 87 90 93 94 90 75
78 83 80 72 67 70 70 69 64 64 71 72 72 70 68 64 60 56 55 52 41 41 42 46 50 50 53 59 71 85 97 100 98 100 100 100 95 82 76 75 80 79 75

GFSSE_850_rhum_120.txt.gz
RH
81 87 87 88 88 84 80 80 79 79 78 79 76 74 72 70 63 54 40 42 56 57 62 53 33 37 57 75 71 44 40 47 56 66 56 58 82 86 79 81 89 86 81
75 79 85 85 88 84 80 79 76 79 79 80 77 74 74 74 70 66 56 47 58 62 72 68 46 42 64 85 75 63 44 35 41 45 42 53 86 89 84 92 94 91 83
77 77 86 86 90 83 76 79 80 79 78 78 80 77 76 75 70 69 67 55 50 68 83 98 93 49 43 54 82 81 54 35 33 32 33 39 67 79 75 58 49 45 38
79 80 78 83 89 92 74 75 80 81 78 77 77 75 74 72 73 70 68 59 52 58 73 89 91 84 68 54 53 76 61 39 34 36 37 34 32 34 33 30 27 26 27
86 86 84 88 92 91 86 73 73 78 78 76 75 74 74 69 71 75 81 70 61 50 63 79 85 86 80 76 64 48 57 40 36 38 40 39 34 30 28 28 28 28 29
97 90 86 82 85 87 89 91 84 75 71 74 74 72 70 66 67 69 67 78 62 58 53 83 89 82 77 46 47 42 49 39 33 37 40 42 40 36 32 32 32 33 34
68 91 80 80 76 79 84 92 93 89 84 78 74 74 73 70 64 64 64 67 70 65 57 66 81 80 80 74 37 39 40 40 34 35 36 38 42 40 41 37 32 31 32
18 31 80 78 77 78 80 86 93 91 89 86 85 81 80 75 69 67 67 68 65 64 66 69 64 75 81 83 74 37 41 38 35 33 37 39 43 49 47 48 40 35 35
17 14 17 46 78 77 79 89 93 96 95 92 92 92 93 86 80 75 72 70 70 69 66 68 71 63 66 84 82 71 37 39 34 33 36 41 44 48 75 50 48 37 37
18 14 13 13 23 44 82 82 82 91 99 96 92 88 91 92 88 83 79 75 75 75 74 69 68 73 70 72 82 76 67 37 33 34 37 42 47 48 59 90 58 52 41
19 20 19 17 15 15 20 39 74 82 83 88 92 95 94 92 88 88 87 83 79 77 75 74 72 66 74 81 82 83 79 71 38 35 41 43 46 49 55 75 83 61 52
24 26 28 28 24 20 18 16 18 25 60 82 82 87 88 91 93 90 87 85 82 78 74 72 75 69 70 76 82 85 85 81 78 55 39 43 48 50 51 59 78 82 59
35 37 34 36 39 34 27 21 18 15 16 22 55 80 90 86 87 91 94 88 83 80 79 79 78 71 74 73 80 84 85 86 86 84 73 63 49 50 50 54 56 77 79
45 50 50 43 34 32 32 30 27 23 19 16 16 20 56 80 81 90 89 91 95 95 90 90 87 80 87 86 83 74 75 80 82 81 80 79 84 64 52 52 56 60 76
53 48 46 41 33 32 31 31 31 30 27 24 24 22 21 23 64 76 79 84 87 90 93 96 94 93 89 87 88 87 84 83 82 82 80 83 84 85 53 53 57 60 66
52 45 36 35 34 35 35 34 32 31 30 31 32 32 28 28 26 30 68 74 76 85 86 96 98 91 92 94 90 88 88 82 84 87 88 88 89 88 65 60 72 72 65
50 41 42 40 38 38 37 35 34 35 33 31 29 32 42 45 37 30 26 57 77 76 92 94 94 95 90 88 88 85 87 83 84 86 84 83 82 87 90 77 76 81 84
50 49 47 45 44 45 43 41 41 40 39 39 39 40 45 56 56 43 37 34 45 77 78 94 99 94 95 88 88 85 86 84 70 69 69 72 66 66 62 61 52 50 53
54 54 52 50 53 55 52 48 50 49 45 43 51 67 61 59 60 52 50 48 58 65 77 89 93 99 97 93 94 91 88 81 73 71 63 56 56 58 61 58 65 64 67
56 55 56 59 63 62 63 64 62 64 59 66 72 72 69 72 76 76 72 60 62 69 89 91 73 94 100 97 98 99 92 85 79 71 63 58 56 51 44 42 38 35 33
60 62 64 70 72 71 69 66 66 71 94 98 81 81 75 86 86 82 86 98 100 99 98 99 91 92 99 95 100 99 95 94 88 78 70 55 43 42 45 48 46 45 41
65 70 71 77 77 75 75 78 79 87 99 98 94 98 97 97 91 91 87 88 97 96 98 94 96 89 96 93 93 91 90 81 67 62 60 65 60 52 51 59 65 69 68
74 72 74 80 77 73 73 78 82 83 84 82 85 89 89 89 87 81 82 84 75 84 93 92 86 83 86 86 80 93 85 90 77 73 69 71 72 70 72 76 70 74 79
77 75 77 80 78 74 72 71 75 74 76 82 87 92 96 94 94 96 92 96 98 97 100 99 91 97 99 97 99 99 96 98 88 82 75 86 76 78 78 77 80 81 80
78 79 77 74 73 73 70 68 72 75 72 72 68 70 71 68 67 64 62 61 64 70 63 68 68 80 78 82 90 89 93 95 100 100 99 94 58 50 69 76 74 69 76
79 81 76 71 70 65 61 59 61 62 62 61 61 60 57 56 54 51 51 50 54 55 58 55 39 35 34 32 31 31 39 60 90 97 98 97 98 70 37 55 79 84 86

GFSSE_850_rhum_123.txt.gz
RH
80 86 85 94 90 82 79 82 82 82 81 79 76 73 71 70 63 56 46 44 52 57 61 48 31 44 67 86 48 42 46 77 70 71 54 81 82 80 70 69 89 80 80
75 77 87 88 90 86 80 78 78 82 80 82 77 74 73 71 70 66 60 50 52 62 73 70 39 50 68 89 66 64 41 36 41 46 44 74 90 89 92 92 93 87 81
77 75 80 85 88 92 75 77 78 80 80 82 82 80 75 72 69 68 68 60 52 67 79 95 93 51 44 51 79 78 59 34 32 31 32 40 76 86 85 73 58 46 36
82 77 80 87 91 92 83 75 78 78 77 79 80 75 69 67 70 69 68 64 58 52 72 82 91 90 73 62 45 55 63 43 33 35 37 33 31 35 35 32 31 31 32
95 90 88 89 91 92 87 83 76 79 81 77 76 74 71 67 66 65 63 75 59 56 50 68 86 85 85 75 67 53 46 46 35 36 39 41 38 32 27 26 26 28 30
96 87 84 84 87 83 85 91 85 80 75 76 76 73 72 69 62 63 64 63 70 57 52 50 81 88 85 77 46 46 42 44 37 35 37 38 42 40 38 34 33 32 31
67 86 78 76 79 74 76 81 87 94 87 83 78 78 79 78 76 68 64 64 66 69 65 56 62 80 79 80 76 40 39 40 38 34 37 37 40 42 40 40 35 33 33
17 19 51 77 75 74 77 78 83 93 94 93 89 87 86 84 83 80 73 71 73 71 69 69 71 62 72 79 85 78 39 35 36 35 34 38 42 43 46 43 42 38 37
18 15 12 18 51 74 75 75 83 91 94 95 93 92 92 93 90 86 83 80 78 77 77 75 71 73 71 67 78 86 83 42 34 32 32 36 42 44 52 88 52 44 36
19 18 14 12 13 21 40 76 80 78 79 93 96 96 93 89 89 90 87 83 81 78 78 79 78 71 72 75 73 85 89 86 46 35 31 33 41 44 46 62 80 70 52
22 21 21 20 18 15 14 18 25 46 74 78 78 87 92 92 94 93 89 87 85 81 79 79 78 78 76 72 77 80 88 90 84 57 35 35 40 44 44 48 66 79 71
25 26 27 28 25 23 21 18 15 14 18 27 62 81 79 78 87 88 89 91 88 85 81 78 77 77 80 78 71 74 86 84 84 83 68 42 38 43 47 48 51 67 81
32 38 40 36 32 27 24 21 20 19 17 14 15 21 53 76 77 78 84 85 89 93 86 79 76 80 83 82 77 79 76 84 85 84 84 79 62 50 47 47 49 60 71
45 45 42 37 31 29 28 28 27 24 22 20 20 18 16 17 34 74 77 74 84 85 89 93 94 92 89 89 88 90 85 79 78 81 82 86 86 80 82 70 51 51 62
50 45 38 33 31 29 30 30 30 28 27 25 24 24 23 22 20 18 23 61 76 78 77 84 87 89 95 93 94 93 89 89 85 84 84 82 89 88 85 86 64 50 56
48 41 38 39 37 36 35 34 33 30 29 29 29 28 28 30 32 31 27 23 22 54 76 65 80 85 91 97 90 92 95 94 89 89 84 82 83 92 92 88 75 52 52
48 44 47 44 43 42 42 42 40 37 35 33 32 32 35 38 37 41 44 40 32 28 31 74 75 66 86 86 99 92 89 90 90 90 86 83 84 86 87 90 88 76 76
51 50 49 47 48 49 51 51 48 44 41 38 35 38 46 50 53 55 53 48 43 41 37 36 71 80 76 82 88 92 89 88 88 85 87 84 76 75 77 78 72 71 65
54 53 51 51 54 56 57 58 57 56 50 44 37 47 58 59 61 68 67 61 54 43 57 74 83 86 84 88 89 91 92 91 97 90 84 76 70 66 69 77 82 83 80
57 55 55 56 61 63 64 64 61 58 57 51 44 48 56 65 71 68 75 80 91 85 94 98 98 94 96 91 83 82 96 99 100 100 95 90 84 75 70 66 60 56 55
58 56 54 54 64 67 65 63 64 72 77 73 64 73 76 81 78 80 82 78 78 86 82 82 85 82 98 99 84 79 85 90 99 100 99 95 83 72 73 71 66 62 59
59 58 60 63 71 70 69 73 78 84 86 81 79 84 83 83 83 78 72 71 73 74 71 88 88 79 75 79 82 78 72 66 69 82 76 78 79 73 70 69 67 64 62
64 64 65 69 71 70 73 75 77 80 84 81 76 80 83 88 86 85 76 77 80 86 76 78 87 91 92 93 91 91 84 73 72 66 74 73 74 68 80 74 75 68 65
68 70 72 74 73 70 70 73 71 68 68 66 66 70 72 70 66 64 62 60 60 63 67 64 59 70 80 81 94 100 100 100 100 98 87 91 88 76 79 77 76 77 73
72 75 74 72 70 69 68 64 64 65 65 64 63 60 57 56 55 54 53 53 55 57 58 62 56 46 40 37 34 38 58 84 98 100 98 92 53 36 26 28 30 61 75
76 78 75 69 68 63 60 59 57 55 57 57 55 53 50 45 39 30 24 22 22 25 28 29 34 32 31 27 24 26 29 36 47 57 74 59 45 18 9 16 78 67 73

GFSSE_850_rhum_126.txt.gz
RH
81 82 83 90 96 89 82 81 79 78 79 78 76 73 69 69 64 58 50 48 56 62 63 40 34 54 74 90 44 40 39 65 64 59 57 78 74 60 61 83 87 86 80
76 76 84 87 93 92 85 82 80 81 80 80 78 74 68 66 66 62 60 52 51 61 80 73 37 56 70 88 62 65 42 32 36 37 38 84 90 92 87 93 95 97 84
79 79 87 88 91 97 84 81 82 82 83 82 83 78 74 74 72 65 62 59 52 57 75 88 93 55 44 45 79 74 65 36 28 28 30 86 97 87 87 81 67 49 36
82 81 85 88 90 92 86 78 80 81 84 84 83 80 71 65 65 67 69 70 60 54 61 72 82 94 79 67 55 51 59 51 32 30 41 30 42 35 40 34 29 28 28
91 89 88 90 92 93 92 85 75 76 82 83 83 82 76 73 69 66 66 66 76 59 55 58 67 82 84 82 58 55 44 48 40 35 37 35 34 30 26 26 28 29 32
91 85 85 83 88 84 84 87 85 82 76 73 78 80 80 80 78 70 67 69 69 75 62 56 59 83 86 85 78 44 39 38 41 39 43 40 37 38 32 31 31 33 34
77 82 77 77 76 76 77 74 74 80 89 88 82 79 79 80 81 81 75 70 71 76 76 75 61 77 87 87 82 81 44 38 41 54 34 38 38 38 38 37 33 31 32
17 19 39 67 75 73 71 75 77 79 88 92 92 89 87 86 84 83 81 78 74 76 78 78 76 74 70 78 84 88 87 56 40 53 42 35 34 38 39 41 44 39 33
18 16 14 12 20 52 72 73 74 79 82 88 93 94 91 90 91 90 88 84 81 79 78 79 80 77 75 77 73 77 90 88 69 81 59 53 44 39 40 46 61 47 40
20 19 17 14 13 12 16 28 59 75 76 77 79 89 96 95 92 89 88 89 86 82 78 76 78 79 78 75 78 79 79 92 87 84 55 46 32 40 45 49 82 74 58
24 22 21 20 19 17 15 13 12 16 22 39 64 75 76 84 86 88 90 92 91 87 86 82 79 79 79 79 78 75 80 82 97 100 92 53 33 37 44 48 53 72 80
26 27 28 28 26 23 21 20 18 16 14 13 15 23 53 75 79 76 79 82 87 88 90 86 81 78 76 83 98 95 82 96 99 100 99 78 58 37 41 45 50 53 78
32 36 35 32 29 26 23 22 22 20 20 19 18 16 14 16 24 62 72 77 78 79 82 89 98 95 99 98 98 99 100 100 94 98 100 83 81 71 51 44 46 51 53
42 40 37 32 30 28 26 27 26 25 24 24 23 22 20 19 18 16 18 38 71 79 66 70 76 82 90 97 94 96 99 100 99 100 99 95 83 85 82 73 74 64 52
46 42 36 36 37 36 34 34 31 30 28 27 27 27 26 25 26 27 27 30 42 57 75 85 73 66 69 77 84 91 99 96 96 95 89 96 83 89 89 86 82 85 72
47 42 39 41 41 40 40 40 39 37 36 33 31 30 32 32 31 31 35 62 67 67 70 78 84 94 83 62 71 75 83 94 93 95 91 90 85 85 87 88 89 87 89
48 44 44 43 40 40 43 44 44 42 40 36 34 35 38 39 40 41 43 44 70 91 86 84 87 75 71 83 72 67 80 87 92 89 96 95 91 81 88 91 93 89 92
49 48 46 44 42 45 49 50 52 51 47 45 40 35 39 44 48 53 53 53 51 88 93 93 93 71 67 98 87 81 73 86 81 88 89 94 95 92 90 89 91 95 97
52 52 49 47 44 49 55 56 58 61 59 55 44 42 51 54 58 64 69 74 78 80 84 81 95 98 89 100 100 95 76 84 83 88 87 98 99 97 89 88 86 90 90
56 54 51 51 49 57 61 62 68 95 69 56 51 61 64 66 66 69 72 72 70 65 74 81 85 92 82 92 91 94 95 72 89 92 95 99 100 99 98 98 97 98 76
59 57 56 56 56 62 64 66 72 70 70 69 68 73 74 76 76 76 69 70 72 77 78 79 85 88 97 77 78 95 91 67 65 68 83 97 97 97 100 100 95 100 100
61 59 58 58 61 66 67 68 69 73 76 76 79 82 78 79 75 77 72 69 76 76 76 73 76 79 82 85 89 94 81 83 85 80 82 80 83 70 85 91 84 79 73
63 61 60 60 66 67 67 68 70 75 79 78 76 73 74 74 71 72 67 60 61 60 64 66 65 69 67 80 93 98 96 90 96 98 93 92 97 93 89 94 93 83 89
64 62 62 64 68 67 67 68 71 71 70 65 64 64 62 60 58 56 55 54 54 56 58 59 59 53 46 44 50 61 95 100 98 96 97 98 95 80 56 35 34 48 72
65 65 65 68 68 67 65 63 64 64 63 62 61 58 55 52 48 42 33 25 22 19 21 25 25 28 29 30 26 26 32 74 98 97 89 68 61 65 15 7 89 86 62
68 67 68 69 66 64 63 60 58 54 53 51 46 41 31 24 23 21 17 12 9 7 6 6 6 6 6 7 8 9 14 49 80 78 69 62 61 45 8 88 84 61 29